[[{"header":{"parameterUnit":"m.s-1","parameterCategory":1,"la1":30.6,"la2":29.2853,"lo1":-89.7004,"lo2":-87.6739,"dy":0.0162,"dx":0.0183,"nx":112,"ny":82,"refTime":"2023-08-02T00:00:00:Z","depth":0,"parameterNumber":2,"parameterNumberName":"U-component_of_WINDS"},"data":[0.0,0.0,0.0,0.0,0.0,0.0,0.0,0.0,0.0,0.0,0.0,0.0,0.0,0.0,0.0,0.0,0.0,0.0,0.0,0.0,0.0,0.0,0.0,0.0,0.0,0.0,0.0,0.0,0.0,0.0,0.0,0.0,0.0,0.0,0.0,0.0,0.0,0.0,0.0,0.0,0.0,0.0,0.0,0.0,0.0,0.0,0.0,0.0,0.0,0.0,0.0,0.0,0.0,0.0,0.0,0.0,0.0,0.0,0.0,0.0,0.0,0.0,0.0,0.0,0.0,0.0,0.0,0.0,0.0,0.0,0.0,0.0,0.0,0.0,0.0,0.0,0.0,0.0,0.0,0.0,0.0,0.0,0.0,0.0,0.0,0.0,0.0,0.0,0.0,0.0,-3.8686,-4.0157,-4.5764,-4.999,-5.1507,-5.1616,-4.8994,-4.2777,0.0,0.0,0.0,0.0,0.0,0.0,0.0,0.0,0.0,0.0,0.0,0.0,0.0,0.0,0.0,0.0,0.0,0.0,0.0,0.0,0.0,0.0,0.0,0.0,0.0,0.0,0.0,0.0,0.0,0.0,0.0,0.0,0.0,0.0,0.0,0.0,0.0,0.0,0.0,0.0,0.0,0.0,0.0,0.0,0.0,0.0,0.0,0.0,0.0,0.0,0.0,0.0,0.0,0.0,0.0,0.0,0.0,0.0,0.0,0.0,0.0,0.0,0.0,0.0,0.0,0.0,0.0,0.0,0.0,0.0,0.0,0.0,0.0,0.0,0.0,0.0,0.0,0.0,0.0,0.0,0.0,0.0,0.0,0.0,0.0,0.0,0.0,0.0,0.0,0.0,0.0,0.0,0.0,0.0,0.0,0.0,0.0,0.0,0.0,0.0,0.0,0.0,0.0,0.0,-3.9242,-4.435,-4.7599,-4.9661,-5.0321,-5.0123,-4.7928,-4.31,0.0,0.0,0.0,0.0,0.0,0.0,0.0,0.0,0.0,0.0,0.0,0.0,0.0,0.0,0.0,0.0,0.0,0.0,0.0,0.0,0.0,0.0,0.0,0.0,0.0,0.0,0.0,0.0,0.0,0.0,0.0,0.0,0.0,0.0,0.0,0.0,0.0,0.0,0.0,0.0,0.0,0.0,0.0,0.0,0.0,0.0,0.0,0.0,0.0,0.0,0.0,0.0,0.0,0.0,0.0,0.0,0.0,0.0,0.0,0.0,0.0,0.0,0.0,0.0,0.0,0.0,0.0,0.0,0.0,0.0,0.0,0.0,0.0,0.0,0.0,0.0,0.0,0.0,0.0,0.0,0.0,0.0,0.0,0.0,0.0,0.0,0.0,0.0,0.0,0.0,0.0,0.0,0.0,0.0,0.0,0.0,0.0,0.0,0.0,0.0,0.0,0.0,0.0,-3.8062,-4.0952,-4.5966,-4.7426,-4.8432,-4.9377,-4.8693,-4.6497,-4.2492,-3.9949,0.0,0.0,0.0,0.0,0.0,0.0,0.0,0.0,0.0,0.0,0.0,0.0,0.0,0.0,0.0,0.0,0.0,0.0,0.0,0.0,0.0,0.0,0.0,0.0,0.0,0.0,0.0,0.0,0.0,0.0,0.0,0.0,0.0,0.0,0.0,0.0,0.0,0.0,0.0,0.0,0.0,0.0,0.0,0.0,0.0,0.0,0.0,0.0,0.0,0.0,0.0,0.0,0.0,0.0,0.0,0.0,0.0,0.0,0.0,0.0,0.0,0.0,0.0,0.0,0.0,0.0,0.0,0.0,0.0,0.0,0.0,0.0,0.0,0.0,0.0,0.0,0.0,0.0,0.0,0.0,0.0,0.0,0.0,0.0,0.0,0.0,0.0,0.0,0.0,0.0,0.0,0.0,0.0,0.0,0.0,0.0,0.0,0.0,0.0,0.0,0.0,0.0,-4.0847,-4.2682,-4.6332,-4.6822,-4.7241,-4.8095,-4.7105,-4.4955,-4.1493,-3.8541,0.0,0.0,0.0,0.0,0.0,0.0,0.0,0.0,0.0,0.0,0.0,0.0,0.0,0.0,0.0,0.0,0.0,0.0,0.0,0.0,0.0,0.0,0.0,0.0,0.0,0.0,0.0,0.0,0.0,0.0,0.0,0.0,0.0,0.0,0.0,0.0,0.0,0.0,0.0,0.0,0.0,0.0,0.0,0.0,0.0,0.0,0.0,0.0,0.0,0.0,0.0,0.0,0.0,0.0,0.0,0.0,0.0,0.0,0.0,0.0,0.0,0.0,0.0,0.0,0.0,0.0,0.0,0.0,0.0,0.0,0.0,0.0,0.0,0.0,0.0,0.0,0.0,0.0,0.0,0.0,0.0,0.0,0.0,0.0,0.0,0.0,0.0,0.0,0.0,0.0,0.0,0.0,0.0,0.0,0.0,0.0,0.0,0.0,0.0,0.0,0.0,0.0,-4.114,-4.3756,-4.568,-4.6491,-4.6663,-4.6074,-4.5255,-4.3398,-4.0228,-3.6964,0.0,0.0,0.0,0.0,0.0,0.0,0.0,0.0,0.0,0.0,0.0,0.0,0.0,0.0,0.0,0.0,0.0,0.0,0.0,0.0,0.0,0.0,0.0,0.0,0.0,0.0,0.0,0.0,0.0,0.0,0.0,0.0,0.0,0.0,0.0,0.0,0.0,0.0,0.0,0.0,0.0,0.0,0.0,0.0,0.0,0.0,0.0,0.0,0.0,0.0,0.0,0.0,0.0,0.0,0.0,0.0,0.0,0.0,0.0,0.0,0.0,0.0,0.0,0.0,0.0,0.0,0.0,0.0,0.0,0.0,0.0,0.0,0.0,0.0,0.0,0.0,0.0,0.0,0.0,0.0,0.0,0.0,0.0,0.0,0.0,0.0,0.0,0.0,0.0,0.0,0.0,0.0,0.0,0.0,0.0,0.0,0.0,0.0,0.0,0.0,0.0,0.0,-4.0665,-4.3233,-4.5445,-4.5744,-4.5573,-4.5078,-4.4542,-4.2779,-3.9362,0.0,0.0,0.0,0.0,0.0,0.0,0.0,0.0,0.0,0.0,0.0,0.0,0.0,0.0,0.0,0.0,0.0,0.0,0.0,0.0,0.0,0.0,0.0,0.0,0.0,0.0,0.0,0.0,0.0,0.0,0.0,0.0,0.0,0.0,0.0,0.0,0.0,0.0,0.0,0.0,0.0,0.0,0.0,0.0,0.0,0.0,0.0,0.0,0.0,0.0,0.0,0.0,0.0,0.0,0.0,0.0,0.0,0.0,0.0,0.0,0.0,0.0,0.0,0.0,0.0,0.0,0.0,0.0,0.0,0.0,0.0,0.0,0.0,0.0,0.0,0.0,0.0,0.0,0.0,0.0,0.0,0.0,0.0,0.0,0.0,0.0,0.0,0.0,0.0,0.0,0.0,0.0,0.0,0.0,0.0,0.0,0.0,0.0,0.0,0.0,0.0,0.0,-3.788,-4.0571,-4.31,-4.5207,-4.5243,-4.4919,-4.4447,-4.3465,-4.1672,-3.8885,0.0,0.0,0.0,0.0,0.0,0.0,0.0,0.0,0.0,0.0,0.0,0.0,0.0,0.0,0.0,0.0,0.0,0.0,0.0,0.0,0.0,0.0,0.0,0.0,0.0,0.0,0.0,0.0,0.0,0.0,0.0,0.0,0.0,0.0,0.0,0.0,0.0,0.0,0.0,0.0,0.0,0.0,0.0,0.0,0.0,0.0,0.0,0.0,0.0,0.0,0.0,0.0,0.0,0.0,0.0,0.0,0.0,0.0,0.0,0.0,0.0,0.0,0.0,0.0,0.0,0.0,0.0,0.0,0.0,0.0,0.0,0.0,0.0,0.0,0.0,0.0,0.0,0.0,0.0,0.0,0.0,0.0,0.0,0.0,0.0,0.0,0.0,0.0,0.0,0.0,0.0,0.0,0.0,0.0,0.0,0.0,0.0,0.0,0.0,0.0,0.0,0.0,-3.7858,-4.1022,-4.3596,-4.4927,-4.5096,-4.4787,-4.4058,-4.181,-3.9908,0.0,0.0,0.0,0.0,0.0,0.0,0.0,0.0,0.0,0.0,0.0,0.0,0.0,0.0,0.0,0.0,0.0,0.0,0.0,0.0,0.0,0.0,0.0,0.0,0.0,0.0,0.0,0.0,0.0,0.0,0.0,0.0,0.0,0.0,0.0,0.0,0.0,0.0,0.0,0.0,0.0,0.0,0.0,0.0,0.0,0.0,0.0,0.0,0.0,0.0,0.0,0.0,0.0,0.0,0.0,0.0,0.0,0.0,0.0,0.0,0.0,0.0,0.0,0.0,0.0,0.0,0.0,0.0,0.0,0.0,0.0,0.0,0.0,0.0,0.0,0.0,0.0,0.0,0.0,0.0,0.0,0.0,0.0,0.0,0.0,0.0,0.0,0.0,0.0,0.0,0.0,0.0,0.0,0.0,0.0,0.0,0.0,0.0,0.0,0.0,0.0,0.0,0.0,-3.6785,-4.0283,-4.2961,-4.3758,-4.4131,-4.4233,-4.3998,-4.2069,-4.0265,-3.8781,0.0,0.0,0.0,0.0,0.0,0.0,0.0,0.0,0.0,0.0,0.0,0.0,0.0,0.0,0.0,0.0,0.0,0.0,0.0,0.0,0.0,0.0,0.0,0.0,0.0,0.0,0.0,0.0,0.0,0.0,0.0,0.0,0.0,0.0,0.0,0.0,0.0,0.0,0.0,0.0,0.0,0.0,0.0,0.0,0.0,0.0,0.0,0.0,0.0,0.0,0.0,0.0,0.0,0.0,0.0,0.0,0.0,0.0,0.0,0.0,0.0,0.0,0.0,0.0,0.0,0.0,0.0,0.0,0.0,0.0,0.0,0.0,0.0,0.0,0.0,0.0,0.0,0.0,0.0,0.0,0.0,0.0,0.0,0.0,0.0,0.0,0.0,0.0,0.0,0.0,0.0,0.0,0.0,0.0,0.0,0.0,0.0,0.0,0.0,0.0,0.0,0.0,-3.6073,-3.9527,-4.2181,-4.301,-4.3642,-4.3955,-4.3804,-4.1862,-3.9937,-3.8322,0.0,0.0,0.0,0.0,0.0,0.0,0.0,0.0,0.0,0.0,0.0,0.0,0.0,0.0,0.0,0.0,0.0,0.0,0.0,0.0,0.0,0.0,0.0,0.0,0.0,0.0,0.0,0.0,0.0,0.0,0.0,0.0,0.0,0.0,0.0,0.0,0.0,0.0,0.0,0.0,0.0,0.0,0.0,0.0,0.0,0.0,0.0,0.0,0.0,0.0,0.0,0.0,0.0,0.0,0.0,0.0,0.0,0.0,0.0,0.0,0.0,0.0,0.0,0.0,0.0,0.0,0.0,0.0,0.0,0.0,0.0,0.0,0.0,0.0,0.0,0.0,0.0,0.0,0.0,0.0,0.0,0.0,0.0,0.0,0.0,0.0,0.0,0.0,0.0,0.0,0.0,0.0,0.0,0.0,0.0,0.0,0.0,0.0,0.0,0.0,0.0,0.0,-3.5522,-3.8675,-4.1224,-4.2489,-4.3286,-4.3632,-4.3403,-4.1167,-3.9129,-3.7588,0.0,0.0,0.0,0.0,0.0,0.0,0.0,0.0,0.0,0.0,0.0,0.0,0.0,0.0,0.0,0.0,0.0,0.0,0.0,0.0,0.0,0.0,0.0,0.0,0.0,0.0,0.0,0.0,0.0,0.0,0.0,0.0,0.0,0.0,0.0,0.0,0.0,0.0,0.0,0.0,0.0,0.0,0.0,0.0,0.0,0.0,0.0,0.0,0.0,0.0,0.0,0.0,0.0,0.0,0.0,0.0,0.0,0.0,0.0,0.0,-4.1585,0.0,0.0,0.0,0.0,0.0,0.0,0.0,0.0,0.0,0.0,0.0,0.0,0.0,0.0,0.0,0.0,0.0,0.0,0.0,0.0,0.0,0.0,0.0,0.0,0.0,0.0,0.0,0.0,0.0,0.0,0.0,0.0,0.0,0.0,0.0,0.0,0.0,0.0,0.0,0.0,0.0,-3.4461,-3.743,-3.9984,-4.1341,-4.1609,-4.1944,-4.2506,-4.0341,-3.8542,-3.7581,-3.4412,0.0,0.0,0.0,0.0,0.0,0.0,0.0,0.0,0.0,0.0,0.0,0.0,0.0,0.0,0.0,0.0,0.0,0.0,0.0,0.0,0.0,0.0,0.0,0.0,0.0,0.0,0.0,0.0,0.0,0.0,0.0,0.0,0.0,0.0,0.0,0.0,0.0,0.0,0.0,0.0,0.0,0.0,0.0,0.0,0.0,0.0,0.0,0.0,0.0,0.0,0.0,0.0,0.0,0.0,0.0,0.0,0.0,0.0,0.0,0.0,-4.3022,0.0,0.0,0.0,0.0,0.0,0.0,0.0,0.0,0.0,0.0,0.0,0.0,0.0,0.0,0.0,0.0,0.0,0.0,0.0,0.0,0.0,0.0,0.0,0.0,0.0,0.0,0.0,0.0,0.0,0.0,0.0,0.0,0.0,0.0,0.0,0.0,0.0,0.0,0.0,0.0,-3.4419,-3.6786,-3.8892,-4.0373,-4.0873,-4.1277,-4.1699,-3.9882,-3.8193,-3.7,-3.4578,0.0,0.0,0.0,0.0,0.0,0.0,0.0,0.0,0.0,0.0,0.0,0.0,0.0,0.0,0.0,0.0,0.0,0.0,0.0,0.0,0.0,0.0,0.0,0.0,0.0,0.0,0.0,0.0,0.0,0.0,0.0,0.0,0.0,0.0,0.0,0.0,0.0,0.0,0.0,0.0,0.0,0.0,0.0,0.0,0.0,0.0,0.0,0.0,0.0,0.0,0.0,0.0,0.0,-4.7952,-4.8413,-4.8779,-4.9086,-4.9529,-4.9952,-4.799,-4.657,-4.5468,-4.3665,0.0,0.0,0.0,0.0,0.0,0.0,0.0,0.0,0.0,0.0,0.0,0.0,0.0,0.0,0.0,0.0,0.0,0.0,0.0,0.0,0.0,0.0,0.0,0.0,-3.9423,-3.8781,0.0,0.0,0.0,0.0,0.0,0.0,0.0,0.0,0.0,0.0,0.0,0.0,-3.4513,-3.6248,-3.7955,-3.9698,-4.0377,-4.0744,-4.0891,-3.9551,-3.8065,-3.6597,-3.5073,-3.3275,0.0,0.0,0.0,0.0,0.0,0.0,0.0,0.0,0.0,0.0,0.0,0.0,0.0,0.0,0.0,0.0,0.0,0.0,0.0,0.0,0.0,0.0,0.0,0.0,0.0,0.0,0.0,0.0,0.0,0.0,0.0,0.0,-4.1403,-4.1777,0.0,0.0,0.0,0.0,0.0,0.0,0.0,0.0,0.0,0.0,0.0,0.0,0.0,-4.606,-4.7787,-4.9174,-4.9624,-4.9106,-5.2087,-5.276,-5.1452,-5.2972,-5.3318,-5.2722,-5.3145,0.0,-4.7607,-4.635,0.0,0.0,0.0,0.0,0.0,0.0,0.0,0.0,0.0,0.0,0.0,0.0,0.0,0.0,0.0,0.0,0.0,0.0,0.0,0.0,0.0,0.0,-4.1217,-4.001,-3.9808,-3.9717,0.0,-3.7459,-3.5789,-3.4587,-3.3421,0.0,0.0,0.0,0.0,0.0,0.0,0.0,-3.3825,-3.5422,-3.7331,-3.9643,-3.9368,-3.9294,-3.9992,-3.9221,-3.8303,-3.7386,-3.6468,-3.5495,-3.4403,-3.2357,0.0,0.0,0.0,0.0,0.0,0.0,0.0,0.0,0.0,0.0,0.0,0.0,0.0,0.0,0.0,0.0,0.0,0.0,0.0,0.0,0.0,0.0,0.0,0.0,0.0,0.0,0.0,0.0,0.0,-4.0643,-4.3353,-4.2468,-4.2947,-4.2401,0.0,0.0,0.0,0.0,0.0,0.0,0.0,0.0,0.0,-4.7288,-4.8118,-4.9329,-5.1045,-5.1742,-5.2164,-5.2279,-5.378,-5.4337,-5.4068,-5.4838,-5.4972,-5.4626,-5.5011,-5.3568,-5.0836,-4.9207,-4.6811,-4.4014,0.0,0.0,0.0,0.0,-4.0966,-4.1152,-4.1598,-4.1662,0.0,-4.0929,0.0,0.0,0.0,0.0,0.0,0.0,0.0,0.0,0.0,0.0,0.0,-4.1864,-4.157,-4.124,-4.124,-3.9698,-3.7808,0.0,-3.5532,-3.4761,-3.2926,0.0,0.0,0.0,0.0,-3.254,-3.4266,-3.5128,-3.6174,-3.7698,-3.7551,-3.7496,-3.7845,-3.7551,-3.7202,-3.6835,-3.6486,-3.5716,-3.4394,-3.3752,-3.2742,0.0,0.0,0.0,0.0,0.0,0.0,0.0,0.0,0.0,0.0,0.0,0.0,0.0,0.0,0.0,0.0,0.0,0.0,0.0,0.0,0.0,0.0,0.0,0.0,0.0,0.0,0.0,0.0,-4.3124,-4.5584,-4.3883,-4.5624,-4.5485,0.0,0.0,0.0,0.0,0.0,0.0,-4.6106,-4.77,-4.9357,-5.1037,-5.1664,-5.2779,-5.4491,-5.4068,-5.428,-5.5145,-5.5145,-5.5338,-5.5703,-5.5934,-5.5915,-5.5703,-5.5703,-5.4876,-5.3374,-5.1437,-4.8996,-4.6278,-4.4599,-4.3633,-4.3222,-4.3222,-4.3094,-4.3002,-4.3589,-4.3663,-4.3332,-4.2341,0.0,-4.1038,-3.9019,0.0,0.0,0.0,0.0,-3.99,-4.1111,-4.157,-4.1974,-4.2947,-4.258,-4.1992,-4.1992,-4.0726,-3.9111,0.0,-3.7367,-3.6652,-3.4009,0.0,0.0,0.0,0.0,-3.2651,-3.4468,-3.4862,-3.5349,-3.6211,-3.6303,-3.6303,-3.6303,-3.6303,-3.6303,-3.6303,-3.6303,-3.5642,-3.4174,-3.4486,-3.3587,-3.1164,0.0,0.0,0.0,0.0,0.0,0.0,0.0,0.0,0.0,0.0,0.0,0.0,0.0,0.0,0.0,0.0,0.0,0.0,0.0,0.0,0.0,0.0,0.0,0.0,0.0,0.0,0.0,0.0,0.0,-4.7366,-5.0209,0.0,0.0,0.0,0.0,-4.546,-4.7076,-4.872,-5.0298,-5.1972,-5.3665,-5.534,-5.5415,-5.628,-5.803,-5.6395,-5.6011,-5.6857,-5.6857,-5.6453,-5.5722,-5.6549,-5.6472,-5.5703,-5.5703,-5.5222,-5.4299,-5.2528,-5.0378,-4.8079,-4.7164,-4.6346,-4.5718,-4.5718,-4.5241,-4.4599,-4.4635,-4.414,-4.3608,-4.4305,-4.3497,-4.2066,-4.1203,-4.0396,0.0,0.0,-4.091,-4.2139,-4.2213,-4.28,-4.3204,-4.2525,-4.1754,-4.1167,-4.1167,-3.99,-3.8946,0.0,-3.8505,-3.7184,-3.6266,0.0,-3.4293,-3.2834,-3.322,-3.3715,-3.3844,-3.4541,-3.5349,-3.6211,-3.6303,-3.6303,-3.6303,-3.6303,-3.6303,-3.6303,-3.6303,-3.5899,-3.4972,-3.4247,-3.3788,-3.3623,-3.1378,0.0,0.0,0.0,0.0,0.0,0.0,0.0,0.0,0.0,0.0,0.0,0.0,0.0,0.0,0.0,0.0,0.0,0.0,0.0,0.0,0.0,0.0,0.0,0.0,0.0,0.0,0.0,0.0,-4.9408,-5.2753,0.0,-4.9703,-4.9796,-5.0204,-5.0505,-5.2107,-5.3571,-5.4705,-5.5857,-5.6992,-5.8107,-5.8146,-5.8204,-5.83,-5.7684,-5.6973,-5.6145,-5.6145,-5.5992,-5.5703,-5.6011,-5.5992,-5.5665,-5.5145,-5.4453,-5.3568,-5.2395,-5.1242,-5.0069,-4.8445,-4.7503,-4.6897,-4.5605,-4.5278,-4.5314,-4.4287,-4.4085,-4.4232,-4.3993,-4.3534,-4.291,-4.2121,-4.2029,-4.2103,-4.1589,-4.1864,-4.2304,-4.2304,-4.2139,-4.1882,-4.1607,-4.091,-4.0322,-4.0322,-3.9478,-3.8781,-3.9074,-3.8652,-3.7845,-3.6523,-3.5587,-3.4623,-3.355,-3.3183,-3.322,-3.3733,-3.4045,-3.4357,-3.4651,-3.4688,-3.4688,-3.4688,-3.4688,-3.4688,-3.4688,-3.5183,-3.4871,-3.3505,-3.3678,-3.3073,-3.1513,-3.065,-2.9953,0.0,0.0,0.0,0.0,0.0,0.0,0.0,0.0,0.0,0.0,0.0,0.0,0.0,0.0,0.0,0.0,0.0,0.0,0.0,0.0,0.0,0.0,0.0,0.0,0.0,-4.949,-5.2617,-5.1211,-5.5098,-5.6456,-5.2797,-5.3672,-5.4479,-5.4534,-5.6074,-5.7223,-5.78,-5.8665,-5.9396,-5.9915,-5.9646,-5.9242,-5.8704,-5.8146,-5.728,-5.6126,-5.5838,-5.5703,-5.5703,-5.5703,-5.5703,-5.5665,-5.4857,-5.4164,-5.3549,-5.2395,-5.1753,-5.1342,-4.9594,-4.8418,-4.7523,-4.6181,-4.5622,-4.5296,-4.3956,-4.3846,-4.4213,-4.3663,-4.3497,-4.3387,-4.2873,-4.3075,-4.3314,-4.2525,-4.2304,-4.2249,-4.1974,-4.1515,-4.1038,-4.0763,-4.0286,-3.9827,-3.9551,-3.8854,-3.8303,-3.8303,-3.8303,-3.7863,-3.6523,-3.5587,-3.4807,-3.4302,-3.3532,-3.3311,-3.41,-3.3972,-3.3807,-3.3807,-3.3807,-3.3807,-3.3807,-3.3807,-3.3678,-3.3421,-3.3917,-3.3578,-3.2247,-3.2981,-3.2651,-3.1035,-3.0485,-2.9806,-2.8994,0.0,0.0,0.0,0.0,0.0,0.0,0.0,0.0,0.0,0.0,0.0,0.0,0.0,0.0,0.0,0.0,0.0,0.0,0.0,0.0,0.0,0.0,0.0,-4.6425,-5.0859,-5.3789,-5.3008,-5.7363,-5.9098,-5.5626,-5.7407,-5.8382,-5.7405,-5.8702,-5.9553,-5.9553,-6.0339,-6.08,-6.08,-5.9954,-5.9492,-5.9454,-5.7819,-5.6973,-5.6934,-5.6088,-5.5684,-5.5665,-5.5665,-5.5645,-5.5568,-5.4761,-5.4414,-5.428,-5.2568,-5.1875,-5.1739,-5.0554,-4.9126,-4.7718,-4.77,-4.6397,-4.4562,-4.3754,-4.3497,-4.3497,-4.3497,-4.3497,-4.3497,-4.3497,-4.3497,-4.3314,-4.2525,-4.2286,-4.2084,-4.1277,-4.1056,-4.0836,-4.001,-3.9827,-3.9588,-3.8799,-3.801,-3.7441,-3.7441,-3.7452,-3.7165,-3.6376,-3.5569,-3.499,-3.4954,-3.4302,0.0,-3.4844,-3.4284,-3.3807,-3.3807,-3.3807,-3.3807,-3.3807,-3.377,-3.3421,-3.2614,-3.2577,-3.2192,-3.1347,-3.21,-3.2522,-3.2504,-3.0962,-2.9787,-2.8994,0.0,0.0,0.0,0.0,0.0,0.0,0.0,0.0,0.0,0.0,0.0,0.0,0.0,0.0,0.0,0.0,0.0,0.0,0.0,0.0,0.0,-4.4601,-4.7705,-4.9726,-5.3398,-5.6269,-5.7285,-5.9746,-6.0914,-5.9837,-6.0334,-6.0584,-6.021,-6.0431,-6.0596,-6.0596,-6.0702,-6.08,-6.08,-5.9954,-5.9223,-5.8646,-5.755,-5.6665,-5.6049,-5.5799,-5.5395,-5.4818,-5.4818,-5.4491,-5.3837,-5.2991,-5.2606,-5.2529,-5.1471,-5.1029,-5.0971,-5.0325,-4.9436,-4.8348,-4.7217,-4.5564,-4.3791,-4.3571,-4.3497,-4.3497,-4.3497,-4.3497,-4.3497,-4.3497,-4.3497,-4.3314,-4.2525,-4.1882,-4.1258,-4.0432,-3.9808,-3.9166,-3.834,-3.8138,-3.7936,-3.7129,-3.678,-3.6615,-3.6615,-3.6119,-3.5624,-3.5404,-3.5155,-3.4789,-3.4229,-3.3935,0.0,-3.41,-3.3935,-3.3807,-3.3807,-3.3807,-3.3807,-3.3807,-3.3275,-3.2596,-3.177,-3.1733,-3.1109,-2.9732,-3.043,-3.0595,-2.9984,-2.9567,-2.9237,0.0,0.0,0.0,0.0,0.0,0.0,0.0,0.0,0.0,0.0,0.0,0.0,0.0,0.0,0.0,0.0,0.0,0.0,0.0,0.0,0.0,0.0,-4.8282,-5.1518,-5.4277,-5.6094,-5.7773,-5.9492,-6.0879,-6.1678,-6.1584,-6.152,-6.1465,-6.1383,-6.1153,-6.0997,-6.0997,-6.086,-6.0627,-6.0262,-5.9762,-5.8934,-5.7761,-5.7242,-5.6549,-5.5703,-5.5703,-5.528,-5.4491,-5.4491,-5.403,0.0,-5.2279,-5.1914,-5.1856,-5.1029,-5.0702,0.0,0.0,0.0,0.0,0.0,-4.4697,-4.3693,-4.3548,-4.3497,-4.3497,-4.3497,-4.3497,-4.3497,-4.3497,-4.3497,-4.3314,-4.2525,-4.1735,-4.0928,-4.0102,-3.9038,-3.8065,-3.7606,-3.7221,-3.6853,-3.6395,-3.6303,-3.6193,-3.5826,0.0,0.0,-3.4578,-3.4504,-3.4468,-3.4321,-3.4027,-3.3917,-3.4266,-3.4009,-3.3807,-3.3807,-3.3807,-3.3807,-3.3807,-3.3073,0.0,0.0,0.0,-3.0485,-2.9549,-2.9953,0.0,0.0,0.0,-2.9347,-2.8994,0.0,0.0,0.0,-3.0941,-3.1314,0.0,0.0,0.0,0.0,0.0,0.0,0.0,0.0,0.0,0.0,0.0,0.0,0.0,0.0,0.0,0.0,-5.2805,-5.5957,-5.8903,-5.8652,-5.8769,-6.0351,-6.123,-6.1699,-6.1699,-6.1584,-6.1515,-6.1515,-6.1238,-6.1007,-6.0893,0.0,0.0,0.0,0.0,-5.8492,-5.6992,-5.6896,-5.6472,-5.5703,-5.5607,-5.5145,-5.4357,-5.4241,-5.3741,-5.2876,-5.2106,-5.1722,-5.1568,-5.0856,-5.0433,-5.0202,-4.951,-4.8527,-4.7167,-4.4965,-4.4058,0.0,0.0,0.0,0.0,-4.3497,-4.3497,-4.3497,-4.3497,-4.3424,-4.3185,-4.2396,-4.1589,-4.0781,-3.9974,-3.8634,-3.7489,-3.7397,-3.6725,-3.6119,-3.6046,-3.6009,-3.5826,-3.5119,-3.4917,-3.4688,-3.4045,-3.3862,-3.4045,-3.4752,-3.4266,0.0,-3.4752,-3.4247,-3.377,-3.3678,0.0,0.0,-3.3532,-3.2797,-3.2027,-3.1311,-3.0503,-3.0063,-3.0063,-3.0063,-3.0063,-3.0063,-3.0063,-2.9714,-2.8994,-2.8608,-2.8935,-2.9982,-3.0451,-3.103,0.0,0.0,0.0,0.0,0.0,0.0,0.0,0.0,0.0,0.0,0.0,0.0,0.0,0.0,0.0,-5.1075,-5.3575,-5.6224,-5.9549,-5.9954,-6.0293,-6.1328,-6.1601,-6.1699,-6.1699,-6.1679,-6.1658,-6.1658,-6.149,-6.1042,-6.0254,-6.0076,-5.9534,-5.855,-5.7838,-5.7319,-5.6992,-5.6299,-5.5857,-5.5684,0.0,0.0,-5.3433,-5.2722,-5.1972,-5.1164,-5.101,-5.0529,-4.9875,-4.9721,-4.8856,-4.7682,-4.8163,-4.7605,-4.6412,-4.5285,-4.4489,-4.3986,-4.3924,-4.3726,-4.3497,-4.3497,-4.3497,-4.3497,-4.3497,-4.3039,0.0,-4.157,-4.0763,-3.9955,-3.9148,-3.8212,-3.7331,-3.6688,-3.5881,-3.5073,-3.4412,-3.4284,-3.4431,-3.4899,-3.4486,-3.4192,-3.466,-3.4229,-3.3844,-3.4009,-3.3899,-3.3862,-3.4009,-3.3899,-3.355,-3.2908,-3.2834,-3.2577,-3.1916,-3.1127,-3.0595,-3.0448,-2.9696,-2.9214,-2.9214,-2.9214,-2.9214,-2.9214,-2.9214,-2.914,-2.8994,-2.8608,-2.8676,-2.9218,-2.9586,-3.0318,0.0,0.0,0.0,0.0,0.0,0.0,0.0,0.0,0.0,0.0,0.0,-4.2367,-4.4841,0.0,-5.101,-5.4707,-5.6511,-5.8257,-6.0536,-6.0534,-6.0655,-6.1582,-6.1699,-6.1699,-6.1699,-6.1308,-6.1055,-6.1055,-6.0522,-5.9983,-5.9482,-5.9269,-5.8718,-5.7777,-5.727,-5.678,-5.6338,-5.5511,-5.5107,-5.5088,-5.4241,-5.3395,-5.2529,-5.2106,-5.1471,-5.0702,-5.0702,-5.0202,-4.9375,-4.8933,-4.8029,-4.6951,-4.7336,-4.6858,-4.5898,-4.5314,-4.4853,-4.4508,-4.4117,-4.3881,-4.3726,-4.3529,-4.3497,-4.3406,-4.302,-4.2616,-4.2139,-4.135,-4.0524,-3.9698,-3.8909,-3.779,-3.6728,-3.6048,-3.5232,-3.4485,-3.4104,-3.4345,-3.4607,-3.444,-3.4412,-3.4412,-3.4412,-3.4082,-3.3807,-3.3807,-3.3807,-3.3642,-3.3256,-3.3201,-3.2889,-3.2082,-3.2008,-3.1843,-3.1421,-3.065,-3.0026,-2.9622,-2.9237,-2.8994,-2.8994,-2.8994,-2.8994,-2.8994,-2.8994,-2.8994,-2.8994,-2.8438,-2.8439,-2.8971,-2.8745,-2.9174,0.0,0.0,0.0,0.0,0.0,0.0,0.0,-3.7821,-3.8633,-4.0484,-4.2693,-4.5394,-4.889,-5.1478,-5.4279,-5.7872,-5.9218,-6.0134,-6.1085,-6.0633,-6.0456,-6.1132,-6.1211,-6.1211,-6.1211,-6.0586,-6.0176,-6.0176,-5.9419,-5.8861,-5.8669,-5.8457,-5.792,-5.6989,-5.6831,-5.6365,-5.5517,-5.4839,-5.4457,-5.4304,-5.3378,-5.2511,-5.1684,-5.1684,-5.1125,-5.0183,-5.0029,-4.9548,-4.8856,-4.7971,-4.724,-4.6644,-4.6644,-4.622,-4.5568,-4.5302,-4.5159,-4.503,-4.4409,-4.4063,-4.3834,-4.355,-4.3314,-4.3008,-4.2364,-4.2004,-4.1699,-4.1056,-4.0175,-3.9276,-3.8634,-3.7316,-3.6058,-3.5597,-3.4881,-3.4288,-3.42,-3.4758,-3.5014,-3.4199,-3.4431,-3.4605,-3.4119,-3.3899,-3.3807,-3.3807,-3.3807,-3.3513,-3.2706,-3.2614,-3.2228,-3.1256,-3.1164,-3.1091,-3.0944,-3.0338,-2.9696,-2.903,-2.8994,-2.8994,-2.8994,-2.8994,-2.892,-2.8778,-2.8778,-2.8732,-2.8667,-2.7987,-2.7999,-2.8652,-2.7928,-2.8095,-3.4362,-3.4887,-3.647,-3.8637,-3.8667,-3.9114,0.0,-4.2819,-4.2845,-4.5575,-4.7278,-4.9071,-5.1699,-5.3613,-5.5581,-5.7934,-5.9167,-5.9879,-6.013,-6.02,-6.0026,-5.9531,-5.9473,-5.9473,-5.9473,-5.9394,-5.9336,-5.9336,-5.9238,-5.8782,-5.788,-5.7818,-5.7254,-5.6078,-5.6026,-5.5623,-5.4813,-5.4612,-5.4223,-5.3693,-5.2582,-5.1682,-5.0999,-5.0892,-4.9933,-4.8355,-4.7644,-4.7278,-4.7105,-4.624,-4.5817,-4.574,-4.574,-4.5682,-4.5605,-4.5568,-4.5342,-4.5096,-4.5011,-4.4264,-4.3389,-4.3337,-4.2651,-4.1805,-4.1712,-4.0972,-4.0139,-4.0047,-3.8927,-3.7764,-3.7672,-3.6629,-3.5566,-3.5498,-3.5061,-3.4551,-3.4246,-3.4274,-3.4457,-3.4798,-3.4376,-3.4137,-3.4752,-3.4284,-3.3807,-3.3807,-3.3807,-3.3513,-3.2706,-3.2614,-3.2027,-3.0503,-3.0338,-3.0044,-2.9347,-2.92,-2.9085,-2.8994,-2.8994,-2.8994,-2.8994,-2.8994,-2.8668,-2.7952,-2.7934,-2.7762,-2.7405,-2.7014,-2.708,-2.7487,-2.7026,-2.7604,-3.5823,-3.6369,-3.7236,-3.8901,-4.0132,-4.1212,-4.2329,-4.2897,-4.3749,-4.5923,-4.7546,-4.9412,-5.2145,-5.3796,-5.5456,-5.7564,-5.8473,-5.8974,-5.9114,-5.8359,-5.7751,-5.7594,-5.7184,-5.7539,-5.9043,-5.873,-5.8437,-5.8437,-5.7969,-5.7499,-5.7081,-5.6996,-5.6478,-5.5463,-5.5287,-5.4827,-5.4071,-5.3417,-5.2767,-5.2085,-5.1121,-5.0225,-4.9384,-4.9331,-4.8866,-4.8067,-4.7259,-4.6913,-4.6836,-4.5951,-4.5586,-4.5586,-4.5586,-4.5586,-4.5586,-4.5586,-4.5513,-4.5304,-4.4586,-4.4018,-4.3478,-4.2775,-4.2201,-4.1758,-4.1271,-4.0817,-4.0215,-3.9245,-3.848,-3.776,-3.6802,-3.6157,-3.5656,-3.5337,-3.5097,-3.4851,-3.4532,-3.4508,-3.4446,-3.4336,-3.4027,-3.3917,-3.4247,-3.4027,-3.3807,-3.3807,-3.3807,-3.333,-3.2063,-3.1898,-3.1292,-2.9677,-2.9512,-2.9384,-2.9012,-2.8994,-2.8994,-2.8994,-2.8994,-2.8994,-2.8994,-2.8558,-2.8136,-2.7805,-2.7137,-2.6939,-2.7211,-2.6674,-2.6498,-2.6645,-2.6243,-2.6167,-3.6004,-3.6955,-3.7752,-3.9255,-4.122,-4.2634,-4.205,-4.2919,-4.4213,-4.5608,-4.7003,-4.8808,-5.1523,-5.3103,-5.4642,-5.6577,-5.7596,-5.813,-5.8136,-5.6936,-5.6044,-5.5996,-5.5349,-5.5719,-5.7868,-5.7538,-5.7187,-5.7187,-5.6601,-5.623,-5.623,-5.6141,-5.5782,-5.5118,-5.4451,-5.3724,-5.2952,-5.1948,-5.1086,-5.0412,-4.977,-4.8953,-4.8033,-4.774,-4.7674,-4.7721,-4.6894,-4.6547,-4.649,-4.5855,-4.5586,-4.5586,-4.5586,-4.5586,-4.5586,-4.5586,-4.5451,-4.5126,-4.425,-4.3635,-4.3099,-4.2218,-4.1722,-4.1312,-4.0503,-4.017,-3.9797,-3.8365,-3.78,-3.737,-3.6201,-3.5792,-3.5571,-3.5186,-3.5174,-3.5138,-3.487,-3.4565,-3.4193,-3.3679,-3.3511,-3.3403,-3.3183,-3.333,-3.3385,-3.3164,-3.3128,-3.2706,-3.1549,-3.0999,-3.0283,-2.9104,-2.8994,-2.8994,-2.8994,-2.8994,-2.8902,-2.8686,-2.8686,-2.8576,-2.8356,-2.7702,-2.7218,-2.6999,-2.6108,-2.5859,-2.629,-2.603,-2.5806,-2.5734,-2.5618,-2.5203,-3.3749,-3.5541,-3.7724,-4.0308,-4.1901,-4.3003,-4.3725,-4.4299,-4.4911,-4.5736,-4.6562,-4.7776,-4.9905,-5.1631,-5.3301,-5.492,-5.6545,-5.7525,-5.7288,-5.6466,-5.5671,-5.5024,-5.4281,-5.4216,-5.5133,-5.5325,-5.5371,-5.5371,-5.5351,-5.5332,-5.5332,-5.5332,-5.5267,-5.5104,-5.3454,-5.2141,-5.1283,-5.0285,-4.9503,-4.8964,-4.8672,-4.814,-4.7387,-4.6346,-4.6259,-4.6894,-4.6009,-4.5624,-4.5624,-4.5605,-4.5586,-4.5586,-4.5586,-4.5586,-4.5586,-4.5586,-4.5066,-4.4335,-4.4297,-4.3222,-4.1857,-4.1819,-4.107,-4.0005,-3.9109,-3.8624,-3.8196,-3.7363,-3.6575,-3.5956,-3.5918,-3.5515,-3.5107,-3.5105,-3.5304,-3.5398,-3.5157,-3.4225,-3.3352,-3.3071,-3.2822,-3.2394,-3.1604,-3.2118,-3.2375,-3.1586,-3.1458,-3.1458,-3.1403,-3.0044,-2.9049,-2.8994,-2.8994,-2.8994,-2.8994,-2.8994,-2.8686,-2.7879,-2.7842,-2.7493,-2.6722,-2.6354,-2.5778,-2.4996,-2.4623,-2.4302,-2.4021,-2.4694,-2.4883,-2.4557,-2.527,-2.5203,-3.5646,-3.7727,-4.0043,-4.1822,-4.2927,-4.3555,-4.3337,-4.4177,-4.5035,-4.511,-4.4892,-4.511,-4.6301,-4.7701,-4.9265,-5.1168,-5.3541,-5.5383,-5.6095,-5.5571,-5.4816,-5.3998,-5.4342,-5.4557,-5.427,-5.4369,0.0,-5.6074,-5.5625,-5.5293,-5.5293,-5.5293,-5.4745,-5.3548,-5.2292,-5.1277,-5.0539,-4.9538,-4.8708,-4.8027,-4.7264,-4.6786,-4.6514,-4.6026,-4.5944,-4.6162,-4.577,-4.5586,-4.5586,-4.5586,-4.5586,-4.5586,-4.5586,-4.524,-4.4739,-4.4739,-4.3855,-4.272,-4.3297,-4.2758,-4.1623,-4.0508,-3.9884,-3.9397,-3.8534,-3.818,-3.7919,-3.7061,-3.664,-3.6313,-3.5777,-3.55,-3.5369,-3.5369,-3.5432,-3.5278,-3.4429,-3.3949,-3.3373,-3.2387,-3.2135,-3.194,-3.1489,-3.1623,-3.1531,-3.0723,-3.0595,-3.0595,-3.0595,-2.9677,-2.8994,-2.8994,-2.8994,-2.8994,-2.8994,-2.8521,-2.8081,-2.7824,-2.7291,-2.6888,-2.6612,-2.5978,-2.5412,-2.4901,-2.4046,-2.3689,-2.3898,-2.3933,-2.3867,-2.3765,-2.4019,-2.3748,-3.7595,-3.9358,-4.1201,-4.2751,-4.3342,-4.3497,-4.3335,-4.386,-4.4393,-4.4428,-4.349,-4.2892,-4.3699,-4.4761,-4.6109,-4.7966,-5.0559,-5.2914,-5.4583,-5.4169,-5.372,-5.3778,-5.4241,-5.4476,-5.4229,-5.3796,-5.4121,-5.5566,-5.5156,-5.4707,-5.4394,-5.4375,-5.3711,-5.2285,-5.1027,-5.001,-4.9277,-4.8311,-4.7608,-4.7129,-4.6475,-4.6147,-4.6108,-4.5974,-4.5867,-4.5796,-4.5708,-4.5651,-4.5586,-4.5586,-4.5413,-4.5143,-4.5143,-4.4624,-4.3874,-4.3874,-4.2989,-4.1835,-4.2085,-4.1623,-4.0681,-3.9296,-3.8834,-3.8661,-3.7796,-3.7546,-3.7353,-3.6507,-3.6276,-3.6161,-3.5641,-3.5276,-3.5122,-3.543,-3.5026,-3.4447,-3.4025,-3.3414,-3.2659,-3.1789,-3.1538,-3.1318,-3.0771,-3.0612,-3.0375,-2.9861,-2.9769,-2.9769,-2.9769,-2.9305,-2.8994,-2.8994,-2.8741,-2.8576,-2.8576,-2.7842,-2.7255,-2.6943,-2.6447,-2.6043,-2.575,-2.5136,-2.462,-2.4316,-2.3454,-2.3127,-2.3326,-2.3374,-2.3257,-2.3004,-2.3274,-2.3004,-3.9442,-4.0408,-4.1342,-4.315,-4.3163,-4.2937,-4.3686,-4.3335,-4.3047,-4.3629,-4.2229,-4.113,-4.1809,-4.2708,-4.3925,-4.5553,-4.7974,-5.0502,-5.2965,-5.2626,-5.2702,-5.4318,-5.4052,-5.4032,-5.482,-5.3659,-5.3164,-5.3945,0.0,-5.3574,-5.2734,-5.2656,-5.2246,-5.1367,-4.9707,-4.8437,-4.7617,-4.6738,-4.6308,-4.6308,-4.6308,-4.6225,-4.6113,-4.6089,-4.6006,-4.5803,-4.5822,-4.5713,-4.5526,-4.5526,-4.5026,-4.4239,-4.4239,-4.3739,-4.3028,-4.2989,-4.2431,-4.1546,-4.0623,-3.9854,-3.9142,-3.8238,-3.793,-3.7757,-3.6853,-3.6565,-3.6411,-3.5603,-3.5372,-3.5372,-3.5372,-3.4757,-3.4334,-3.518,-3.4103,-3.3122,-3.3891,-3.2617,-3.1306,-3.1234,-3.0987,-3.0509,-2.9544,-2.9178,-2.8994,-2.8994,-2.8994,-2.8994,-2.8994,-2.8994,-2.8994,-2.8994,-2.8282,-2.7787,-2.7787,-2.7016,-2.6209,-2.5458,-2.5366,-2.5017,-2.4226,-2.3896,-2.3566,-2.3212,-2.2898,-2.259,-2.231,-2.3004,-2.2987,-2.2327,-2.3021,-2.297,-4.1537,-4.2695,-4.3737,-4.3624,-4.3418,-4.301,-4.2228,-4.2225,-4.1992,-4.0632,-3.932,-3.8102,-3.7055,-3.9533,-4.2458,-4.4707,-4.8615,-5.2237,-5.4715,-5.4876,-5.4664,-5.4511,-5.5113,-5.5374,-5.4937,-5.4736,-5.4453,0.0,-5.3398,-5.293,-5.2715,-5.207,-5.1348,-5.0527,-4.8828,-4.7812,-4.7598,-4.6738,-4.6308,-4.6308,-4.6308,-4.6289,-4.6247,-4.6147,-4.6069,-4.6008,-4.5909,-4.5467,-4.478,-4.478,-4.423,-4.3412,-4.3412,-4.2874,-4.2047,-4.1393,-4.0642,-3.9719,-3.82,-3.8373,-3.9046,-3.7526,-3.7026,-3.6757,-3.5276,-3.4834,-3.4661,-3.3795,-3.3564,-3.3564,-3.3564,-3.3397,-3.3288,-3.3506,-3.3224,-3.2788,-3.2429,-3.1949,-3.1306,-3.03,-2.9774,-2.9381,-2.9149,-2.9062,-2.8994,-2.8994,-2.8994,-2.8994,-2.8994,-2.8994,-2.8994,-2.8994,-2.8282,-2.7787,-2.7787,-2.6502,-2.5623,-2.5421,-2.4832,-2.441,-2.4208,-2.4113,-2.3795,-2.3212,-2.3117,-2.2807,-2.231,-2.2496,-2.2496,-2.231,-2.2496,-2.2496,-4.3301,-4.4058,-4.4656,-4.4189,-4.3434,-4.2506,-4.1397,-4.0946,-4.0372,-3.9097,-3.7627,-3.6491,-3.6166,-3.8267,-4.0848,-4.3271,-4.714,-5.0814,-5.3659,-5.4357,-5.4857,-5.5511,-5.5947,-5.6153,-5.6016,-5.522,-5.4531,-5.4043,-5.3183,-5.2383,-5.1641,-5.1133,-5.0312,-4.9101,-4.8105,-4.7422,-4.7031,-4.6543,-4.6308,-4.6308,-4.6308,-4.6308,-4.6289,-4.5833,-4.5799,-4.6069,0.0,-4.5064,-4.4511,-4.4511,-4.3728,-4.2527,-4.2527,-4.1777,-4.0642,-4.0142,-3.945,-3.8527,-3.718,-3.7103,-3.7411,-3.6045,-3.5603,-3.5353,-3.4026,-3.3622,-3.3526,-3.3045,-3.2891,-3.2891,-3.2891,-3.2628,-3.2455,-3.2814,-3.234,-3.177,-3.1718,-3.141,-3.0874,-2.9988,-2.9551,-2.9272,-2.9181,-2.9067,-2.8994,-2.8994,-2.8994,-2.8865,-2.8521,-2.8484,-2.8484,-2.8484,-2.7438,-2.6741,-2.6741,-2.5585,-2.4869,-2.4869,-2.4447,-2.4113,-2.3996,-2.3976,-2.3671,-2.2996,-2.2972,-2.2755,-2.231,-2.231,-2.231,-2.231,-2.231,-2.231,-4.4784,-4.4935,-4.4837,-4.4731,-4.3442,-4.1908,-4.085,-3.972,-3.8723,-3.8018,-3.6547,-3.5725,-3.6711,-3.7801,-3.9375,-4.187,-4.499,-4.8289,-5.1694,-5.2874,-5.4243,-5.6594,-5.6466,-5.6436,-5.7049,-5.5103,-5.3789,-5.3652,-5.2754,-5.1601,-5.0273,-4.998,-4.9101,-4.748,-4.7422,-4.7051,-4.6308,-4.6308,-4.623,-4.6133,-4.6133,-4.6074,-4.5937,-4.5176,-4.5172,-4.575,0.0,0.0,-4.4211,-4.4199,-4.3098,-4.1482,-4.147,-4.0508,-3.9104,-3.8988,-3.8469,-3.77,-3.6719,-3.5911,-3.5199,-3.4449,-3.4122,-3.3872,-3.3006,-3.2737,-3.2718,-3.2602,-3.2564,-3.2564,-3.2564,-3.2045,-3.1698,-3.241,-3.1468,-3.0583,-3.1218,-3.0655,-2.9979,-2.987,-2.9566,-2.9269,-2.9097,-2.8846,-2.8663,-2.8663,-2.8663,-2.8448,-2.7732,-2.7732,-2.775,-2.764,-2.6303,-2.5403,-2.5403,-2.4649,-2.419,-2.419,-2.419,-2.4054,-2.3714,-2.3692,-2.3392,-2.2721,-2.2695,-2.2563,-2.231,-2.231,-2.231,-2.231,-2.231,-2.231,-4.5781,-4.587,-4.5529,-4.4876,-4.3916,-4.2521,-4.0101,-3.9292,-3.8218,-3.5219,-3.5068,-3.5144,-3.3998,-3.5928,-3.8826,-4.223,-4.5197,-4.8617,-5.2952,-5.3955,-5.4727,-5.5956,-5.6149,-5.6018,-5.5542,-5.3932,-5.2637,-5.1914,-5.043,-4.9746,-5.0176,-4.8828,-4.7578,-4.6562,-4.6523,-4.6445,-4.6308,-4.6308,-4.5937,-4.5234,-4.5234,-4.4844,-4.4141,-4.3984,-4.4004,-4.4119,-4.3963,0.0,-4.2674,-4.2568,-4.1451,-3.9804,-3.9774,-3.9123,-3.8142,-3.743,-3.7065,-3.6719,-3.5161,-3.4545,-3.4391,-3.4237,-3.3699,-3.2968,-3.216,-3.191,-3.1756,-3.1044,-3.0833,-3.0833,-3.0833,-3.0737,-3.0648,-3.0814,-3.0609,-3.0237,-2.966,-2.8746,-2.821,-2.8888,-2.8129,-2.7364,-2.7345,-2.7165,-2.7034,-2.7034,-2.7034,-2.6979,-2.6833,-2.7383,-2.7548,-2.6888,-2.5952,-2.5403,-2.5403,-2.4649,-2.419,-2.419,-2.419,-2.4054,-2.3714,-2.3692,-2.3392,-2.2721,-2.2695,-2.2563,-2.231,-2.231,-2.231,-2.231,-2.231,-2.231,-4.5878,-4.6053,-4.5896,-4.5395,-4.4327,-4.2568,-3.9399,-3.8293,-3.7039,-3.3846,-3.3937,-3.4555,-3.434,-3.5818,-3.7978,-4.0772,-4.3467,-4.6499,-5.0336,-5.2197,-5.3801,-5.5576,-5.5568,-5.5474,-5.5617,-5.3372,-5.1771,-5.1426,-4.9433,-4.8418,-4.8828,-4.7617,-4.6738,-4.6308,-4.6308,-4.6308,-4.6308,-4.5859,-4.541,-4.498,-4.4531,-4.4101,-4.3672,-4.3223,-4.3262,-4.3672,-4.3223,0.0,-4.2303,-4.2237,-4.1135,-3.95,-3.9398,-3.8563,-3.7321,-3.64,-3.5795,-3.5218,-3.3949,-3.3256,-3.2891,-3.2891,-3.2622,-3.2122,-3.1275,-3.1025,-3.0948,-3.0513,-3.0398,-3.0398,-3.0398,-3.0398,-3.0398,-3.0398,-3.0044,-2.9602,-2.9179,-2.8372,-2.779,-2.8068,-2.7554,-2.7024,-2.6916,-2.674,-2.6612,-2.6612,-2.6612,-2.6447,-2.6025,-2.63,-2.6392,-2.6007,-2.5254,-2.4777,-2.4777,-2.441,-2.419,-2.419,-2.4054,-2.3795,-2.3437,-2.3259,-2.2965,-2.25,-2.25,-2.2426,-2.231,-2.231,-2.231,-2.231,-2.231,-2.231,-4.5755,-4.6028,-4.6064,-4.5901,-4.4637,-4.2551,-3.9179,-3.7791,-3.645,-3.3793,-3.3695,-3.4393,-3.5465,-3.608,-3.7094,-3.9086,-4.1345,-4.4056,-4.7491,-5.0086,-5.2531,-5.4959,-5.4929,-5.4802,-5.5073,-5.2578,-5.0836,-5.0605,-4.8555,-4.7324,-4.7324,-4.668,-4.6308,-4.6308,-4.6308,-4.6211,-4.6016,-4.5332,-4.4805,-4.4433,-4.375,-4.332,-4.3144,-4.2461,-4.2519,-4.3125,-4.2441,0.0,0.0,-4.1741,-4.0686,-3.9035,-3.8908,-3.7827,-3.6223,-3.5502,-3.468,-3.3795,-3.2949,-3.2237,-3.1679,-3.1487,-3.1429,-3.1295,-3.0609,-3.0398,-3.0398,-3.0398,-3.0398,-3.0359,-3.0179,-3.0121,-3.0083,-2.991,-2.9198,-2.8621,-2.8794,-2.8044,-2.7328,-2.7275,-2.6944,-2.6615,-2.6413,-2.6223,-2.6098,-2.6098,-2.6098,-2.586,-2.5237,-2.5146,-2.5146,-2.5146,-2.4575,-2.419,-2.419,-2.419,-2.419,-2.419,-2.3937,-2.361,-2.323,-2.2947,-2.2652,-2.231,-2.231,-2.231,-2.231,-2.231,-2.231,-2.231,-2.231,-2.231,-4.5831,-4.6094,-4.6108,-4.6075,-4.4826,-4.2865,-4.0084,-3.8793,-3.763,-3.5728,-3.5139,-3.524,-3.6062,-3.5873,-3.6235,-3.8108,-3.9962,-4.2621,-4.6942,-4.9426,-5.1543,-5.3565,-5.4322,-5.3938,-5.2023,-5.0796,-4.9505,-4.8066,-4.6992,-4.6426,-4.6426,-4.6348,-4.6308,-4.6308,-4.6308,-4.5918,-4.5137,-4.5039,-4.4219,-4.2637,-4.2558,-4.2148,-4.1426,-4.1348,-4.1348,-4.1426,-4.1348,0.0,0.0,-3.9998,-3.8878,-3.7221,-3.7153,-3.6037,-3.4437,-3.4347,-3.3776,-3.2891,-3.2083,-3.1756,-3.1564,-3.0794,-3.0513,-3.0494,-3.0417,-3.0398,-3.0398,-3.0398,-3.0398,-3.0217,-2.941,-2.9217,-2.9044,-2.8294,-2.7467,-2.7044,-2.7832,-2.6717,-2.5704,-2.6294,-2.5668,-2.4956,-2.4769,-2.4543,-2.441,-2.441,-2.441,-2.4392,-2.4318,-2.43,-2.43,-2.43,-2.4245,-2.419,-2.419,-2.419,-2.419,-2.419,-2.417,-2.3876,-2.323,-2.3165,-2.2883,-2.231,-2.231,-2.231,-2.231,-2.231,-2.231,-2.231,-2.231,-2.231,-4.4734,-4.5726,-4.62,-4.6117,-4.412,-4.1711,-3.9994,-3.8104,-3.6518,-3.5757,-3.5457,-3.5538,-3.6188,-3.6141,-3.6081,-3.633,-3.7793,-3.9928,-4.2871,-4.5341,-4.7937,-5.0836,-5.1455,-5.1552,-5.1293,-4.9551,-4.7982,-4.6894,-4.6504,-4.6308,-4.6308,-4.6308,-4.6055,-4.5527,-4.5527,-4.5098,-4.4238,-4.3691,-4.3086,-4.2383,-4.1914,-4.1504,-4.1172,-4.0664,-4.043,-4.0391,-3.9863,0.0,0.0,-3.8966,-3.7905,-3.6319,-3.619,-3.5067,-3.3476,-3.289,-3.2509,-3.2113,-3.1222,-3.0948,-3.0839,-2.9905,-2.9621,-2.9621,-2.9621,-2.9621,-2.9525,-2.9025,-2.8909,-2.8813,-2.8467,-2.8371,-2.8294,-2.7967,-2.7236,-2.6697,-2.7044,-2.6159,-2.5349,-2.5492,-2.5137,-2.4731,-2.4526,-2.4321,-2.419,-2.419,-2.419,-2.419,-2.419,-2.419,-2.419,-2.419,-2.419,-2.419,-2.419,-2.419,-2.419,-2.419,-2.4016,-2.3692,-2.3212,-2.3021,-2.2704,-2.231,-2.231,-2.231,-2.231,-2.231,-2.231,-2.231,-2.231,-2.231,-4.3008,-4.4714,-4.5878,-4.5787,-4.3471,-4.0996,-4.0251,-3.7834,-3.5872,-3.6308,-3.5944,-3.579,-3.6648,-3.653,-3.6056,-3.534,-3.6759,-3.855,-4.0261,-4.2957,-4.577,-4.8526,-4.9096,-4.9485,-5.0009,-4.8263,-4.6861,-4.6347,-4.6308,-4.6191,-4.5937,-4.5918,-4.5625,-4.5019,-4.4746,-4.4199,-4.332,-4.2461,-4.1914,-4.1641,-4.082,-4.043,-4.041,-3.9805,-3.9512,-3.9473,0.0,0.0,0.0,-3.7842,-3.6836,-3.5474,-3.506,-3.401,-3.2654,-3.1973,-3.1592,-3.1308,-3.0365,-3.0095,-2.9981,-2.9072,-2.8781,-2.8713,-2.8439,-2.8544,-2.8621,-2.8063,-2.7717,-2.7525,-2.7525,-2.7313,-2.7121,-2.7121,-2.6659,-2.6217,-2.6217,-2.5686,-2.5152,-2.4981,-2.4828,-2.4639,-2.4462,-2.4284,-2.419,-2.419,-2.419,-2.419,-2.419,-2.419,-2.419,-2.419,-2.419,-2.419,-2.419,-2.419,-2.4151,-2.4074,-2.3816,-2.3522,-2.3069,-2.2822,-2.2573,-2.231,-2.231,-2.231,-2.231,-2.231,-2.231,-2.231,-2.231,-2.231,-4.0665,-4.2875,-4.4937,-4.4999,-4.3086,-4.1191,-4.1191,-3.8448,-3.6352,-3.7941,-3.6851,-3.6079,-3.769,-3.7053,-3.6129,-3.558,-3.7343,-3.9183,-4.0323,-4.354,-4.6119,-4.7023,-4.7955,-4.8232,-4.7509,-4.6751,-4.6308,-4.6308,-4.6308,0.0,-4.5058,-4.5019,-4.5019,-4.5,-4.416,-4.3301,-4.2422,-4.1601,-4.0781,-3.9922,-3.9043,-3.8633,-3.8633,-3.8613,-3.8613,0.0,0.0,0.0,0.0,-3.6387,-3.5463,-3.453,-3.3593,-3.2681,-3.1896,-3.1744,-3.1236,-3.0471,-2.9536,-2.9249,-2.9181,-2.8288,-2.8004,-2.7851,-2.6911,-2.7236,-2.7909,-2.789,-2.7274,-2.6621,-2.6621,-2.5967,-2.5322,-2.5322,-2.5322,-2.5303,-2.5303,-2.5152,-2.4962,-2.4828,-2.4639,-2.4426,-2.4247,-2.419,-2.419,-2.419,-2.419,-2.419,-2.419,-2.419,-2.419,-2.419,-2.419,-2.419,-2.419,-2.419,-2.4074,-2.3714,-2.3692,-2.3392,-2.2746,-2.2695,-2.2573,-2.231,-2.231,-2.231,-2.231,-2.231,-2.231,-2.231,-2.231,-2.231,-3.8544,-4.0248,-4.1565,-4.2245,-4.0449,-3.8691,-3.9297,-3.714,-3.5642,-3.7903,-3.7378,-3.6839,-3.7936,-3.8243,-3.7894,-3.6551,-3.7909,-3.9265,-3.9676,-4.1744,-4.3765,-4.5279,-4.6804,-4.7429,-4.6596,-4.638,-4.6014,-4.5333,-4.5368,0.0,-4.3301,-4.2695,-4.2402,-4.2402,-4.2148,-4.1289,-3.9824,-3.9551,-3.9237,-3.8871,-3.8598,-3.8461,-3.8422,-3.729,-3.7102,0.0,0.0,0.0,0.0,-3.4521,-3.3629,-3.2739,-3.1796,-3.0885,-3.0043,-2.945,-2.9123,-2.8903,-2.8573,-2.8485,-2.8388,-2.7426,-2.7113,-2.6942,-2.6006,-2.6332,-2.689,-2.6294,-2.5928,-2.5707,-2.5707,-2.5514,-2.5303,-2.5303,-2.5303,-2.5264,-2.5111,-2.5046,-2.4924,-2.4654,-2.4526,-2.4445,-2.4228,-2.419,-2.419,-2.419,-2.419,-2.419,-2.419,-2.419,-2.419,-2.419,-2.419,-2.419,-2.419,-2.419,-2.4054,-2.3714,-2.3692,-2.3392,-2.2721,-2.2695,-2.2573,-2.231,-2.231,-2.231,-2.231,-2.231,-2.231,-2.231,-2.231,-2.231,-3.6301,-3.7981,-3.9351,-4.001,-3.8454,-3.7088,-3.832,-3.654,-3.5254,-3.7461,-3.7163,-3.6778,-3.7598,-3.8119,-3.8071,-3.6988,-3.8276,-3.9549,-3.9917,-4.1489,-4.3152,-4.4635,-4.5747,-4.6075,-4.5272,-4.5245,-4.4894,-4.3967,-4.4275,0.0,-4.1562,-4.1248,-4.0679,-3.9722,-3.9995,-3.9624,-3.8531,-3.817,-3.7803,-3.742,-3.7089,-3.6757,-3.6391,-3.5373,-3.5235,0.0,0.0,0.0,0.0,-3.2766,-3.1882,-3.1003,-3.0057,-2.9381,-2.8852,-2.829,-2.8158,-2.8188,-2.7788,-2.769,-2.7598,-2.6603,-2.6249,-2.6099,-2.5511,-2.5688,-2.6005,-2.5437,-2.5303,-2.5303,-2.5303,-2.5303,-2.5303,-2.5303,-2.5303,-2.5264,-2.5141,-2.5046,-2.4924,-2.4651,-2.4543,-2.4445,-2.4228,-2.419,-2.419,-2.419,-2.419,-2.419,-2.419,-2.419,-2.419,-2.419,-2.419,-2.4151,-2.4016,-2.4132,-2.3996,-2.3544,-2.3522,-2.323,-2.259,-2.2537,-2.2463,-2.231,-2.231,-2.231,-2.231,-2.231,-2.231,-2.231,-2.231,-2.231,0.0,-3.6115,-3.7976,-3.8229,-3.7084,-3.6331,-3.8026,-3.6523,0.0,-3.6788,-3.6505,-3.622,-3.6969,-3.715,-3.717,-3.7176,-3.8629,-4.0057,-4.0889,-4.2543,-4.3977,-4.4804,-4.4782,-4.4416,-4.3669,-4.354,-4.3186,-4.2363,0.0,0.0,-3.9844,-4.0299,-3.9517,-3.707,-3.7675,-3.8085,-3.8206,-3.7292,-3.6437,-3.5671,-3.4815,-3.3978,-3.3186,-3.3189,-3.323,0.0,0.0,0.0,0.0,-3.1094,-3.0234,-2.9414,-2.8483,-2.8154,-2.8183,-2.8002,-2.8008,-2.7988,-2.7112,-2.6866,-2.6757,-2.5885,-2.5517,-2.5406,-2.5398,-2.5346,-2.5303,-2.5303,-2.5303,-2.5303,-2.5303,-2.5303,-2.5303,-2.5303,-2.5303,-2.5303,-2.5274,-2.5122,-2.4949,-2.4799,-2.4623,-2.4445,-2.4228,-2.419,-2.419,-2.419,-2.419,-2.4171,-2.4116,-2.4153,-2.4171,-2.4116,-2.4171,-2.4074,-2.3774,-2.3996,-2.3876,-2.3212,-2.3165,-2.2908,-2.2321,-2.231,-2.231,-2.231,-2.231,-2.231,-2.231,-2.231,-2.2282,-2.2237,-2.2237,-2.2237,-3.4468,0.0,-3.5388,-3.6164,-3.6129,-3.6004,0.0,-3.6109,-3.5996,-3.7048,-3.7014,-3.7067,-3.7917,-3.8572,-3.8992,-3.8987,-4.04,-4.1617,-4.193,-4.3397,-4.4319,-4.3961,-4.4384,-4.4106,-4.2623,-4.2597,-4.2318,-4.14,0.0,-3.992,-3.7931,-3.7379,-3.6501,-3.5182,-3.4613,-3.5002,-3.632,-3.5509,-3.4936,-3.4641,-3.3807,-3.3311,-3.3098,-3.2454,-3.2563,0.0,0.0,0.0,-3.1094,-2.9551,-2.8789,-2.8516,-2.7636,-2.7285,-2.7226,-2.6519,-2.6287,-2.6289,-2.6054,-2.5995,-2.5957,-2.5689,-2.5547,-2.5477,-2.5408,-2.5346,-2.5303,-2.5303,-2.5303,-2.5303,-2.5303,-2.5303,-2.5303,-2.5303,-2.5303,-2.5264,-2.5099,-2.5034,-2.4924,-2.4639,-2.4545,-2.4445,-2.4228,-2.419,-2.419,-2.419,-2.419,-2.3988,-2.3364,-2.3823,-2.3951,-2.3364,-2.3823,-2.417,-2.4094,-2.3917,-2.3522,-2.2873,-2.2822,-2.2652,-2.2293,-2.231,-2.231,-2.231,-2.231,-2.231,-2.231,-2.231,-2.2106,-2.1764,-2.1764,-2.1598,-3.4975,-3.4894,-3.4988,-3.5597,-3.578,-3.5938,-3.6428,-3.6267,-3.6133,-3.6601,-3.6657,-3.6862,-3.7723,-3.8899,-3.9876,-4.027,-4.1733,-4.2721,-4.2388,-4.3092,-4.3621,-4.3595,-4.3195,-4.2724,0.0,-4.1485,-4.0525,0.0,0.0,-3.7819,-3.6051,-3.548,-3.4802,-3.3884,-3.3297,-3.349,-3.4497,-3.4001,-3.3548,-3.3098,-3.2664,-3.224,-3.1834,-3.0984,-3.0901,0.0,0.0,0.0,-2.8999,-2.8043,-2.744,-2.7051,-2.6582,-2.6406,-2.6348,-2.5879,-2.5703,-2.5703,-2.5703,-2.5703,-2.5683,-2.566,-2.5601,-2.5543,-2.5493,-2.5447,-2.5376,-2.5322,-2.5303,-2.5303,-2.5303,-2.5303,-2.5303,-2.5303,-2.5303,-2.5264,-2.5163,-2.5141,-2.5053,-2.4776,-2.4737,-2.4648,-2.4393,-2.4339,-2.4303,-2.4209,-2.3896,-2.3639,-2.3566,-2.3621,-2.3621,-2.3566,-2.3933,-2.4074,-2.3774,-2.3566,-2.3323,-2.2947,-2.2797,-2.2573,-2.231,-2.231,-2.231,-2.231,-2.231,-2.231,-2.231,-2.231,-2.218,-2.1928,-2.1688,-2.1598,-3.5295,-3.5698,-3.5881,-3.5788,-3.5937,-3.6273,-3.6946,-3.6621,-3.6152,-3.6035,-3.5996,-3.6309,-3.7305,-3.8711,-4.0039,-4.1035,-4.2617,-4.3535,-4.3026,-4.2851,-4.2923,-4.3309,-4.1844,0.0,-4.1621,-3.9952,-3.8333,0.0,0.0,-3.5795,-3.4354,-3.4104,-3.3606,-3.2716,-3.2455,-3.2309,-3.2309,-3.2444,-3.2179,-3.1506,-3.1237,-3.0737,-3.0006,-2.9303,-2.9018,0.0,0.0,0.0,-2.6891,-2.6754,-2.6319,-2.5703,-2.5703,-2.5703,-2.5703,-2.5703,-2.5703,-2.5703,-2.5703,-2.5703,-2.5703,-2.5703,-2.566,-2.5607,-2.5603,-2.5558,-2.5498,-2.5371,-2.5312,-2.5313,-2.5293,-2.5207,-2.5159,-2.5264,-2.5207,-2.5149,-2.5264,-2.5303,-2.5234,-2.5034,-2.4986,-2.4834,-2.4391,-2.4403,-2.4337,-2.4062,-2.3437,-2.3199,-2.3749,-2.3345,-2.3217,-2.3768,-2.4004,-2.3896,-2.3305,-2.3189,-2.3117,-2.3117,-2.2822,-2.2537,-2.231,-2.231,-2.231,-2.231,-2.231,-2.231,-2.231,-2.2237,-2.2163,-2.2077,-2.1628,-2.1568,-3.4471,-3.6154,-3.7375,-3.5979,-3.677,-3.7579,-3.6387,-3.6635,-3.6894,-3.6152,-3.5996,-3.6484,-3.8105,-3.8613,-3.9336,-4.0937,-4.2617,-4.4139,-4.5366,-4.4901,-4.3919,-4.2494,0.0,-4.0291,-3.8947,-3.7339,0.0,0.0,0.0,-3.3647,-3.3322,-3.2607,-3.1768,-3.0841,-3.0075,-2.9374,-2.8702,-3.0094,-3.0717,-3.0571,-2.9159,-2.8409,-2.8275,-2.8172,-2.8126,0.0,0.0,-2.6912,-2.6832,-2.611,-2.5753,-2.5703,-2.5703,-2.5703,-2.5703,-2.5703,-2.5703,-2.5703,-2.5703,-2.5703,-2.5703,-2.5703,-2.5683,-2.5662,-2.5629,-2.5598,-2.5564,-2.5484,-2.5428,-2.5368,-2.5313,-2.4793,-2.4447,-2.5139,-2.4774,-2.4466,-2.5149,-2.5303,-2.5234,-2.5034,-2.4917,-2.453,-2.3646,-2.3913,-2.3989,-2.329,-2.3088,-2.2813,-2.2226,-2.2666,-2.2795,-2.2226,-2.3136,-2.3753,-2.3631,-2.3093,-2.2772,-2.2772,-2.2517,-2.2349,-2.231,-2.231,-2.231,-2.231,-2.231,-2.231,-2.231,-2.1899,-2.1538,-2.1197,-2.0715,-2.0364,-3.414,-3.5609,-3.6779,-3.6917,-3.8675,-4.0195,-3.9552,-3.9412,-3.916,-3.8281,-3.7734,-3.7793,-3.9062,-3.9687,-4.0858,-4.3427,-4.4108,-4.424,-4.4079,-4.3358,-4.2334,0.0,0.0,-3.9108,-3.8216,0.0,0.0,0.0,0.0,0.0,-3.1669,-3.0819,-2.9939,-2.9083,-2.8659,-2.8275,-2.789,-2.8198,-2.8582,-2.9044,-2.8275,-2.789,-2.7871,-2.7409,-2.7219,-2.7199,0.0,-2.6006,-2.6048,-2.5695,-2.5593,-2.5658,-2.5683,-2.5703,-2.5703,-2.5703,-2.5703,-2.5625,-2.5156,-2.5312,-2.5625,-2.5156,-2.5,-2.498,-2.4958,-2.4624,-2.4249,-2.4219,-2.4782,-2.5282,-2.483,-2.4733,-2.4601,-2.4082,-2.4024,-2.4206,-2.4562,-2.4639,-2.462,-2.4532,-2.4457,-2.4074,-2.2952,-2.2989,-2.2996,-2.2426,-2.1951,-2.1694,-2.1803,-2.1712,-2.1841,-2.2391,-2.2805,-2.2998,-2.2851,-2.2751,-2.2634,-2.25,-2.236,-2.231,-2.231,-2.231,-2.231,-2.231,-2.231,-2.231,-2.231,-2.1823,-2.1491,-2.1306,-2.0616,-2.0364,-3.3779,-3.4929,-3.6057,-3.7734,-3.9685,-4.1342,-4.1941,-4.1443,-4.0722,-4.0293,-3.9668,-3.9355,-3.9805,-4.0449,-4.1774,-4.4421,-4.4508,-4.3833,-4.2729,-4.1765,-4.0889,-4.0006,-3.8602,-3.7661,0.0,0.0,0.0,0.0,0.0,0.0,-3.014,-2.9275,-2.8429,-2.7621,-2.7601,-2.7505,-2.7294,-2.664,-2.6736,-2.7582,-2.739,-2.7294,-2.7274,-2.6601,-2.6294,-2.6255,-2.5591,-2.5339,-2.5406,-2.5459,-2.5531,-2.5603,-2.5659,-2.5566,-2.5391,-2.5391,-2.5273,-2.5,-2.4355,-2.4551,-2.498,-2.4336,-2.4121,-2.4121,-2.4102,-2.3633,-2.3105,-2.3114,-2.3949,-2.4678,-2.4064,-2.4165,-2.4167,-2.3052,-2.3148,-2.3552,-2.3744,-2.3802,-2.3802,-2.3802,-2.3755,-2.336,-2.2231,-2.2147,-2.2065,-2.1578,-2.0941,-2.0739,-2.14,-2.0923,-2.0963,-2.2209,-2.2218,-2.1986,-2.1633,-2.1895,-2.1979,-2.1769,-2.1938,-2.204,-2.204,-2.204,-2.204,-2.204,-2.2226,-2.231,-2.231,-2.1735,-2.146,-2.143,-2.0583,-2.0364,-3.2957,-3.4554,-3.6192,-3.7864,-3.8382,-3.8947,-4.0696,-4.0434,-4.004,-4.0937,-4.1055,-4.0781,-4.0039,-3.9941,-4.0246,-4.1045,-4.196,-4.2744,-4.3252,0.0,-4.1105,-4.0844,-3.7942,-3.5896,0.0,0.0,0.0,0.0,0.0,0.0,-2.9198,-2.8429,-2.7582,-2.6717,-2.6697,-2.6313,-2.5495,-2.5418,-2.5832,-2.6678,-2.587,-2.5495,-2.5476,-2.5418,-2.538,-2.538,-2.5322,-2.5339,-2.5398,-2.5406,-2.5488,-2.5601,-2.5603,-2.5149,-2.4492,-2.4492,-2.3984,-2.3281,-2.3281,-2.3281,-2.3281,-2.3281,-2.3281,-2.3262,-2.3203,-2.3144,-2.3105,-2.3183,-2.3179,-2.3155,-2.3018,-2.243,-2.2016,-2.2645,-2.2235,-2.1908,-2.2716,-2.2889,-2.2889,-2.2889,-2.2747,-2.2304,-2.136,-2.1644,-2.1702,-2.0737,-2.0539,-2.0521,-2.0576,-2.0539,-2.0473,-2.0409,-2.0773,-2.078,-2.0195,-2.0171,-2.0179,-2.017,-2.0873,-2.1288,-2.1288,-2.1288,-2.1288,-2.1288,-2.1955,-2.231,-2.231,-2.1446,-2.1023,-2.1023,-2.0139,-1.9747,-3.2199,-3.3746,-3.5422,-3.6984,-3.7413,-3.8362,-4.1822,-4.237,-4.2246,-4.2675,-4.2754,-4.2304,-4.085,-4.093,-4.1271,-4.1519,-4.1914,-4.2103,-4.1813,-4.0904,-3.9641,-3.7936,-3.6511,0.0,0.0,0.0,0.0,0.0,0.0,0.0,-2.7563,-2.7255,-2.6697,-2.5832,-2.5793,-2.563,-2.5303,-2.5303,-2.5457,-2.5793,-2.5457,-2.5303,-2.5303,-2.5303,-2.5303,-2.5303,-2.5303,-2.5313,-2.5339,-2.5376,-2.5453,-2.5492,-2.5027,-2.4666,-2.4336,-2.3848,-2.3457,-2.3086,-2.2578,-2.2695,-2.3027,-2.2559,-2.2383,-2.2383,-2.2363,-2.1973,-2.1543,-2.1582,-2.1559,-2.1618,-2.2036,-2.2249,-2.2169,-2.1416,-2.1389,-2.16,-2.1927,-2.1985,-2.1985,-2.1985,-2.1867,-2.1448,-2.046,-2.0412,-2.0329,-1.9835,-1.9748,-1.9748,-1.9748,-1.9748,-1.9918,-2.0348,-2.0278,-2.0162,-2.0001,-1.9587,-1.9519,-1.9968,-2.0297,-2.0467,-2.0467,-2.0467,-2.0686,-2.1204,-2.1465,-2.1837,-2.231,-2.1675,-2.1368,-2.1368,-2.0797,-2.0514,-3.2217,-3.3504,-3.4903,-3.6188,-3.6786,-3.8068,-4.1917,-4.2783,-4.3027,-4.3925,-4.3476,-4.2518,-4.1244,-4.0721,-4.0461,-4.0431,-4.0719,-4.0623,-3.976,-3.8981,-3.773,-3.5632,0.0,0.0,0.0,0.0,0.0,0.0,0.0,0.0,0.0,-2.6351,-2.5928,-2.5322,-2.5303,-2.5303,-2.5303,-2.5303,-2.5168,-2.4928,-2.485,-2.4985,-2.5284,-2.5043,-2.5063,-2.5284,-2.5024,-2.4928,-2.4889,-2.467,-2.462,-2.4665,-2.4186,-2.3828,-2.3535,-2.2988,-2.2617,-2.2285,-2.1699,-2.1855,-2.2227,-2.168,-2.1484,-2.1484,-2.1484,-2.1074,-2.0605,-2.0605,-2.0585,-2.0678,-2.1191,-2.1681,-2.1755,-2.0577,-2.0716,-2.1119,-2.1119,-2.1119,-2.1119,-2.1119,-2.1005,-2.0648,-1.9938,-1.9695,-1.9527,-1.932,-1.9305,-1.9305,-1.9305,-1.9243,-1.935,-1.9722,-1.9404,-1.92,-1.9307,-1.8843,-1.8775,-1.9258,-1.9309,-1.941,-1.963,-1.9647,-1.9908,-2.0475,-2.0967,-2.1448,-2.1955,-2.1475,-2.1236,-2.1236,-2.0586,-2.0304,-3.3124,-3.3976,-3.4808,-3.5667,-3.6547,-3.7858,-4.0398,-4.0984,-4.1758,-4.4414,-4.2969,-4.1151,-4.101,-3.8912,-3.7175,-3.7014,-3.7781,-3.8069,-3.7203,-3.6387,-3.5506,-3.4574,0.0,0.0,0.0,0.0,0.0,0.0,0.0,0.0,0.0,-2.5764,-2.5303,-2.5303,-2.5303,-2.5303,-2.5303,-2.5284,-2.4889,-2.4082,-2.3877,-2.4298,-2.5245,-2.4447,-2.4524,-2.5245,-2.4447,-2.411,-2.4033,-2.3167,-2.2881,-2.3007,-2.3054,-2.2591,-2.1894,-2.1894,-2.1348,-2.0605,-2.0605,-2.0605,-2.0605,-2.0605,-2.0605,-2.0605,-2.0605,-2.0605,-2.0605,-2.0605,-2.0542,-2.0508,-2.0508,-2.0444,-2.0381,-2.0318,-2.0312,-2.0312,-2.0312,-2.0312,-2.0312,-2.0312,-2.0143,-1.9963,-1.9813,-1.9695,-1.9527,-1.932,-1.9305,-1.9305,-1.9289,-1.9117,-1.8789,-1.8249,-1.7971,-1.7811,-1.7811,-1.7811,-1.7811,-1.7811,-1.7811,-1.8132,-1.886,-1.8877,-1.8894,-1.8894,-2.0382,-2.1187,-2.1204,-2.0739,-2.048,-2.0463,-1.9332,-1.8795,-3.1738,-3.2675,-3.3808,-3.4019,-3.5607,-3.7488,-3.8798,-3.9609,-4.0662,-4.2734,-4.2046,-4.0857,-4.0203,-3.9418,-3.8468,-3.7202,-3.6796,-3.6559,-3.6282,-3.4429,-3.2766,0.0,0.0,0.0,0.0,0.0,0.0,0.0,0.0,0.0,0.0,-2.5145,-2.4955,-2.4955,-2.4955,-2.4955,-2.4955,-2.4476,-2.4049,-2.3657,-2.2566,-2.2565,-2.3524,-2.3199,-2.3573,-2.4428,-2.4206,-2.411,-2.4042,-2.3211,-2.2888,-2.289,-2.238,-2.2037,-2.177,-2.1191,-2.082,-2.0605,-2.0605,-2.0605,-2.0605,-2.0605,-2.0605,-2.0605,-2.0605,-2.0605,-2.0605,-2.0605,-2.0585,-2.0563,-2.0511,-2.0482,-2.0435,-2.0332,-2.0299,-2.0312,-2.0312,-2.0312,-2.0312,-2.0312,-2.0143,-1.9963,-1.9813,-1.9774,-1.9638,-1.935,-1.9409,-1.9413,-1.9135,-1.9035,-1.8789,-1.8249,-1.8125,-1.8014,-1.7811,-1.7811,-1.7811,-1.7811,-1.7811,-1.7912,-1.8115,-1.8132,-1.8369,-1.8877,-1.9333,-1.9841,-2.0365,-2.0219,-2.0027,-1.9794,-1.9471,-1.9579,-3.1887,-3.2821,-3.3896,-3.4174,-3.5718,-3.7277,-3.7751,-3.9082,-4.0623,-4.2108,-4.1149,-3.9767,-3.8876,-3.8117,0.0,-3.5761,-3.4876,-3.4245,-3.3918,-3.2163,-3.0586,0.0,0.0,0.0,0.0,0.0,0.0,0.0,0.0,0.0,0.0,-2.4842,-2.4804,-2.4804,-2.4804,-2.4634,-2.4294,-2.3891,-2.3303,-2.2533,-2.1568,-2.1282,-2.1617,-2.1941,-2.2602,-2.3487,-2.3132,-2.2834,-2.2551,-2.1987,-2.1796,-2.1822,-2.1379,-2.1218,-2.1196,-2.0734,-2.0563,-2.0564,-2.0586,-2.0605,-2.0605,-2.0605,-2.0605,-2.0605,-2.0605,-2.0605,-2.0605,-2.0605,-2.0605,-2.0586,-2.0542,-2.0515,-2.0472,-2.0327,-2.0289,-2.0299,-2.03,-2.0312,-2.0312,-2.0312,-2.0088,-1.9882,-1.9813,-1.9762,-1.9625,-1.935,-1.9394,-1.9368,-1.9035,-1.8914,-1.8678,-1.8249,-1.8103,-1.8014,-1.7971,-1.7949,-1.7949,-1.7949,-1.7949,-1.7905,-1.7811,-1.7811,-1.8014,-1.8454,-1.8741,-1.9113,-1.957,-1.957,-1.9379,-1.9052,-1.8755,-1.8923,-3.2959,-3.3721,-3.4472,-3.5368,-3.6394,-3.7199,-3.7277,-3.8955,-4.0766,-4.164,-4.0039,-3.8163,-3.7165,-3.5672,-3.4306,-3.3347,-3.2449,-3.1612,-3.0808,-2.9799,0.0,0.0,0.0,0.0,0.0,0.0,0.0,0.0,0.0,0.0,0.0,-2.476,-2.4746,-2.4746,-2.467,-2.4256,-2.346,-2.3323,-2.2507,0.0,-2.0806,-2.0362,-1.9793,-2.0728,-2.1621,-2.2424,-2.1632,-2.0929,-2.0348,-2.0107,-2.0118,-2.027,-2.0282,-2.0332,-2.0406,-2.0472,-2.0484,-2.0508,-2.0563,-2.0585,-2.0585,-2.0586,-2.0547,-2.0469,-2.0488,-2.043,-2.0352,-2.0352,-2.0352,-2.0352,-2.0352,-2.0387,-2.036,-2.0226,-2.0241,-2.0308,-2.0304,-2.0292,-2.0312,-2.0312,-2.0031,-1.9813,-1.979,-1.9707,-1.9555,-1.935,-1.9305,-1.923,-1.9018,-1.8789,-1.8528,-1.827,-1.7992,-1.7949,-1.8208,-1.8187,-1.8166,-1.8187,-1.8166,-1.804,-1.7811,-1.7811,-1.7811,-1.7811,-1.8454,-1.8792,-1.8792,-1.8768,-1.8583,-1.8259,-1.7535,-1.7448,-3.2225,-3.24,-3.2901,-3.4393,-3.5875,-3.7152,-3.7831,-3.7355,-3.6883,-3.7281,-3.748,-3.7109,-3.5526,-3.4939,-3.4197,-3.2674,-3.166,-3.0754,-2.9904,-2.8345,0.0,0.0,0.0,0.0,0.0,0.0,0.0,0.0,0.0,0.0,-2.4559,-2.4409,-2.4339,-2.4339,-2.373,-2.3304,-2.312,-2.1965,-2.1127,0.0,-2.0113,-1.969,-1.9405,-1.9785,-2.0496,-2.1403,-2.1214,-2.1055,-2.088,-2.0269,-2.0021,-2.0084,-2.0237,-2.0299,-2.0322,-2.0406,-2.0425,-2.0425,-2.0435,-2.0438,-2.0444,-2.051,-2.0066,-1.9501,-1.955,-1.9102,-1.8555,-1.8555,-1.8555,-1.8555,-1.8555,-1.9062,-1.9547,-1.9461,-1.988,-2.0307,-2.0308,-2.0306,-2.0312,-2.0312,-2.0106,-1.9914,-1.9813,-1.9786,-1.9701,-1.9569,-1.9394,-1.923,-1.9018,-1.8949,-1.8807,-1.8547,-1.827,-1.8229,-1.8489,-1.8125,-1.7971,-1.8187,-1.8014,-1.7878,-1.7811,-1.7811,-1.7811,-1.7811,-1.7963,-1.8048,-1.8048,-1.7783,-1.7478,-1.7126,-1.6723,-1.7133,-3.1793,-3.2207,-3.2907,-3.4445,-3.5452,-3.6021,-3.599,-3.5367,-3.4622,-3.4018,-3.4686,-3.4879,-3.3183,-3.2871,-3.2324,-3.0605,-2.9544,-2.8764,-2.8275,-2.6896,0.0,0.0,0.0,0.0,0.0,0.0,0.0,0.0,0.0,-2.4357,-2.4357,-2.4266,-2.4025,-2.3639,-2.3235,-2.2593,-2.1805,-2.1039,-2.0412,-1.9913,-1.9616,-1.9394,-1.9305,-1.9513,-1.9925,-2.0462,-2.0408,-2.0421,-2.0455,-2.005,-1.9934,-2.0031,-2.0212,-2.0308,-2.0263,-1.9914,-2.0017,-2.0235,-1.9476,-1.9484,-1.9756,-1.9375,-1.8941,-1.8579,-1.8627,-1.8339,-1.8008,-1.8008,-1.8008,-1.8008,-1.8008,-1.834,-1.8672,-1.8628,-1.95,-2.0332,-2.0319,-2.0301,-2.0312,-2.0312,-2.0143,-1.9983,-1.9912,-1.9797,-1.9682,-1.9609,-1.9442,-1.9259,-1.915,-1.9069,-1.8949,-1.8807,-1.8547,-1.845,-1.8585,-1.8351,-1.8187,-1.8187,-1.8078,-1.7927,-1.7811,-1.7811,-1.7811,-1.7811,-1.7658,-1.7658,-1.7811,-1.7618,-1.7368,-1.7027,-1.6712,-1.7011,-3.1331,-3.2197,-3.3214,-3.4679,-3.4855,-3.4475,-3.3802,-3.3542,-3.3096,-3.1826,-3.224,-3.2397,-3.0935,-3.0546,-2.9902,-2.832,-2.7389,-2.6789,-2.6548,-2.5688,0.0,0.0,0.0,0.0,0.0,0.0,0.0,0.0,0.0,-2.417,-2.4132,-2.4042,-2.3657,-2.2941,-2.2685,-2.1896,-2.0503,-2.0356,-1.9968,-1.9305,-1.9305,-1.9305,-1.9305,-1.9471,-1.9604,-1.9707,-1.9591,-1.9617,-1.9719,-1.9786,-1.9782,-1.9754,-2.0122,-2.0076,-1.9777,-1.9239,-1.9393,-1.9662,-1.8321,-1.8337,-1.8819,-1.8118,-1.7794,-1.7675,-1.77,-1.773,-1.7734,-1.7598,-1.7656,-1.7734,-1.7598,-1.7656,-1.7773,-1.7773,-1.8904,-1.9986,-2.0069,-2.0089,-2.0135,-2.0273,-2.0106,-1.9963,-1.9924,-1.9726,-1.9541,-1.9541,-1.9413,-1.9305,-1.9305,-1.915,-1.9052,-1.9052,-1.8789,-1.8604,-1.8678,-1.8547,-1.8391,-1.8208,-1.8146,-1.8035,-1.7811,-1.7681,-1.7681,-1.7811,-1.7479,-1.7462,-1.7811,-1.7681,-1.7502,-1.728,-1.6968,-1.6986,-3.044,-3.1266,-3.2285,-3.4007,-3.3674,-3.3077,-3.363,-3.2672,-3.1604,-3.146,-3.1227,-3.0769,-2.9854,-2.9064,-2.8247,-2.7249,-2.6926,-2.646,-2.5462,-2.5146,0.0,0.0,0.0,0.0,0.0,0.0,0.0,0.0,-2.4209,-2.4074,-2.3795,-2.3377,-2.2977,-2.2578,-2.1443,-2.0723,-2.0503,-1.9803,-1.9399,-1.9305,-1.9305,-1.9305,-1.9305,-1.932,-1.935,-1.938,-1.935,-1.935,-1.939,-1.9682,-1.9317,-1.8713,-1.9658,-1.9181,-1.8024,-1.8616,-1.8501,-1.803,-1.7793,-1.7799,-1.7889,-1.7825,-1.7346,-1.6778,-1.6834,-1.6871,-1.6719,-1.5957,-1.6289,-1.6699,-1.5937,-1.6309,-1.6875,-1.6875,-1.7577,-1.8418,-1.9107,-1.9264,-1.9458,-2.0165,-2.0041,-1.9797,-1.9669,-1.9481,-1.9335,-1.9335,-1.932,-1.9305,-1.9305,-1.9274,-1.9259,-1.9259,-1.886,-1.8679,-1.8931,-1.831,-1.7992,-1.8187,-1.7992,-1.7833,-1.7811,-1.724,-1.7216,-1.7789,-1.7479,-1.7462,-1.7811,-1.7216,-1.7052,-1.728,-1.6968,-1.6986,-3.0085,-3.0728,-3.1387,-3.2904,-3.2861,-3.2352,-3.2071,-3.1431,-3.0807,-3.051,-2.9615,-2.8876,-2.8734,-2.8006,-2.7133,-2.6252,-2.5957,-2.5677,-2.5159,-2.472,0.0,0.0,0.0,0.0,0.0,0.0,0.0,0.0,-2.3649,-2.3566,-2.3414,-2.283,-2.2222,-2.1611,-2.0788,-2.0116,-1.9662,-1.941,-1.9305,-1.9305,-1.9305,-1.9305,-1.9271,-1.8831,-1.8629,-1.8647,-1.9087,-1.9032,-1.8658,-1.8914,-1.8771,-1.8454,-1.8993,-1.8517,-1.7547,-1.7936,-1.7892,-1.7516,-1.6606,-1.6619,-1.6952,-1.6499,-1.6121,-1.5882,-1.5913,-1.594,-1.5895,-1.5508,-1.5684,-1.5879,-1.5508,-1.5684,-1.5977,-1.5977,-1.6246,-1.683,-1.8111,-1.8725,-1.9297,-2.0146,-2.0171,-2.0021,-1.9847,-1.9748,-1.9638,-1.9495,-1.9471,-1.9442,-1.9305,-1.9305,-1.9305,-1.9305,-1.9132,-1.8999,-1.9001,-1.8678,-1.8391,-1.8208,-1.8082,-1.7949,-1.7811,-1.7337,-1.7313,-1.7789,-1.7101,-1.7101,-1.7811,-1.7313,-1.7248,-1.7572,-1.7043,-1.6886,-2.8994,-2.9412,-2.9853,-3.1552,-3.166,-3.1222,-3.0808,-3.0497,-3.0161,-2.972,-2.8439,-2.7517,-2.7815,-2.7097,-2.6226,-2.5579,-2.526,-2.5052,-2.4927,-2.4382,0.0,0.0,0.0,0.0,0.0,0.0,0.0,0.0,-2.3189,-2.3165,-2.3069,-2.2263,-2.1489,-2.0798,-2.0127,-1.9525,-1.8896,-1.9099,-1.9243,-1.9305,-1.9305,-1.9305,-1.9271,-1.8463,-1.7986,-1.7839,-1.8427,-1.8463,-1.8092,-1.8092,-1.7938,-1.7777,-1.8324,-1.7788,-1.6772,-1.7274,-1.7242,-1.6774,-1.5607,-1.5638,-1.6061,-1.5407,-1.5245,-1.5291,-1.5303,-1.5494,-1.5671,-1.5468,-1.5566,-1.5684,-1.5469,-1.5391,-1.5391,-1.5391,-1.5566,-1.6106,-1.7508,-1.8606,-1.9523,-2.0177,-2.0269,-2.0188,-2.0022,-1.9964,-1.988,-1.9682,-1.9623,-1.9541,-1.9413,-1.9335,-1.9305,-1.9305,-1.9178,-1.9082,-1.9001,-1.8807,-1.8547,-1.8229,-1.8125,-1.8014,-1.7811,-1.7479,-1.7455,-1.7789,-1.6901,-1.6876,-1.7811,-1.7462,-1.7479,-1.7789,-1.7216,-1.6892,-2.6441,-2.655,-2.7241,-2.9863,-2.961,-2.911,-3.0634,-3.0189,-2.945,-2.9412,-2.8238,-2.722,-2.7248,-2.6269,-2.5464,-2.5406,-2.5222,-2.4908,-2.4398,-2.4153,0.0,0.0,0.0,0.0,0.0,0.0,0.0,0.0,-2.3189,-2.3069,-2.2746,-2.1597,-2.0811,-2.0454,-1.9292,-1.8676,-1.8604,-1.8878,-1.9101,-1.9305,-1.9305,-1.9305,-1.9271,-1.8463,-1.7679,-1.6963,-1.7018,-1.7422,-1.8056,-1.7479,-1.6706,-1.6005,-1.7746,-1.6948,-1.5036,-1.6691,-1.6384,-1.5143,-1.5184,-1.5228,-1.5266,-1.5209,-1.5245,-1.5291,-1.5303,-1.5925,-1.6453,-1.5624,-1.5996,-1.6445,-1.5605,-1.5391,-1.5391,-1.5391,-1.6031,-1.6852,-1.764,-1.9084,-2.0254,-2.0292,-2.0152,-2.0022,-1.9993,-1.9882,-1.9821,-1.9778,-1.9682,-1.9601,-1.9601,-1.9427,-1.9305,-1.9305,-1.8895,-1.8734,-1.8966,-1.831,-1.7949,-1.8187,-1.7971,-1.7811,-1.7811,-1.7479,-1.7455,-1.7789,-1.7117,-1.7117,-1.7811,-1.7462,-1.7479,-1.7789,-1.7455,-1.7101,-2.5958,-2.6226,-2.6831,-2.8415,-2.8388,-2.8103,-2.8468,-2.8558,-2.8424,-2.7885,-2.7363,-2.6819,-2.6218,-2.5499,-2.5022,-2.5022,-2.4662,-2.4318,-2.4136,0.0,0.0,0.0,0.0,0.0,0.0,0.0,0.0,0.0,0.0,-2.2429,-2.2034,-2.0926,-2.0264,-2.0159,-1.8983,-1.843,-1.8585,-1.8697,-1.8861,-1.9119,-1.9119,-1.9182,-1.9271,-1.8463,-1.795,-1.7605,-1.6591,-1.6298,-1.6549,-1.6319,-1.6042,-1.576,-1.6405,-1.5808,-1.4729,-1.5945,-1.578,-1.4942,-1.5047,-1.5133,-1.5189,-1.5189,-1.5212,-1.525,-1.5295,-1.554,-1.575,-1.5478,-1.5623,-1.5781,-1.5488,-1.5391,-1.5391,-1.5391,-1.603,-1.6709,-1.696,-1.8755,-2.0308,-2.03,-2.0241,-2.0197,-2.0197,-2.0041,-1.9901,-1.9802,-1.9682,-1.9555,-1.9409,-1.923,-1.9119,-1.9119,-1.8948,-1.8896,-1.8984,-1.886,-1.868,-1.8469,-1.8371,-1.8065,-1.7486,-1.715,-1.7043,-1.7167,-1.6917,-1.7142,-1.7811,-1.7462,-1.7479,-1.7789,-1.724,-1.6917,-2.5211,-2.5546,-2.6173,-2.7159,-2.7309,-2.7254,-2.7325,-2.752,-2.7511,-2.6878,-2.6466,-2.5998,-2.5257,-2.4654,-2.4314,-2.4444,-2.4008,-2.3581,-2.3479,0.0,0.0,0.0,0.0,0.0,0.0,0.0,0.0,0.0,0.0,0.0,-2.1628,-2.0456,-1.9639,-1.9275,-1.8483,-1.8187,-1.8469,-1.8469,-1.8585,-1.8878,-1.8878,-1.8983,-1.9162,-1.8067,-1.7621,-1.7605,-1.6004,-1.5454,-1.5674,-1.5417,-1.5307,-1.5325,-1.5582,-1.5215,-1.4632,-1.5599,-1.5517,-1.4921,-1.5033,-1.5127,-1.5189,-1.5189,-1.5189,-1.5207,-1.5279,-1.5307,-1.5307,-1.5385,-1.5403,-1.5409,-1.5391,-1.541,-1.5466,-1.5737,-1.623,-1.669,-1.6948,-1.8304,-1.9535,-1.9742,-1.9794,-1.9882,-2.0087,-2.0012,-1.9817,-1.9454,-1.9282,-1.9146,-1.9017,-1.8828,-1.8794,-1.9066,-1.8948,-1.8896,-1.8984,-1.8877,-1.8663,-1.8336,-1.8214,-1.7902,-1.7304,-1.6993,-1.6841,-1.6952,-1.6952,-1.7175,-1.7635,-1.7526,-1.7572,-1.7789,-1.7117,-1.6686,0.0,0.0,0.0,-2.6104,-2.6326,-2.6495,-2.7334,-2.7199,-2.6767,-2.6438,-2.5597,-2.4797,-2.4437,-2.3702,-2.328,-2.363,-2.3243,-2.2764,-2.2418,0.0,0.0,0.0,0.0,0.0,0.0,0.0,0.0,0.0,-2.1007,-2.115,-2.1552,-2.0205,-1.8949,-1.7833,-1.7822,-1.7961,-1.8187,-1.8187,-1.833,-1.8585,-1.8585,-1.8734,-1.893,-1.7311,-1.6697,-1.684,-1.5246,-1.4983,-1.5637,-1.4818,-1.4488,-1.4579,-1.5362,-1.5197,-1.4625,-1.5674,-1.5565,-1.4938,-1.5133,-1.5209,-1.5189,-1.5189,-1.5189,-1.5207,-1.5279,-1.5298,-1.5303,-1.5379,-1.5392,-1.5398,-1.5409,-1.5406,-1.5604,-1.6381,-1.6612,-1.6851,-1.7566,-1.773,-1.7927,-1.8627,-1.8782,-1.8964,-1.9617,-1.9734,-1.9451,-1.8669,-1.8432,-1.8342,-1.8342,-1.8172,-1.8357,-1.9146,-1.8824,-1.8661,-1.8966,-1.827,-1.78,-1.7715,-1.7476,-1.732,-1.7296,-1.6977,-1.6952,-1.7256,-1.7296,-1.7296,-1.7296,-1.7635,-1.7789,-1.7766,-1.7093,-1.6421,-2.3674,0.0,0.0,0.0,0.0,0.0,-2.5781,-2.6136,-2.6222,-2.5418,-2.5372,-2.5031,-2.3578,-2.3021,-2.2419,-2.1383,-2.181,-2.2071,-2.1282,0.0,0.0,0.0,0.0,0.0,0.0,0.0,0.0,0.0,-2.0632,-2.0894,-2.0667,-2.0353,-1.9569,-1.8195,-1.843,-1.8381,-1.7922,-1.7905,-1.8057,-1.831,-1.831,-1.845,-1.8698,-1.8235,-1.7737,-1.7199,-1.6337,-1.5745,-1.5361,-1.4739,-1.4488,-1.4524,-1.4756,-1.4701,-1.4559,-1.4929,-1.502,-1.4902,-1.5026,-1.5127,-1.5189,-1.5189,-1.5189,-1.5195,-1.5218,-1.526,-1.5306,-1.5315,-1.5326,-1.5331,-1.5321,-1.5369,-1.5448,-1.5618,-1.5711,-1.5794,-1.5967,-1.5988,-1.6385,-1.7747,-1.7964,-1.7981,-1.8174,-1.8054,-1.7847,-1.7622,-1.7317,-1.7114,-1.7114,-1.6815,-1.6938,-1.7892,-1.7718,-1.7835,-1.8643,-1.8508,-1.829,-1.8086,-1.8001,-1.7653,-1.6952,-1.6841,-1.6738,-1.6565,-1.6799,-1.6942,-1.6942,-1.7519,-1.7681,-1.7415,-1.6747,-1.6037,-2.3216,-2.3747,-2.4426,-2.4735,0.0,0.0,-2.5303,-2.5542,-2.5595,0.0,-2.4885,-2.4519,-2.2988,-2.2332,-2.1491,-1.981,-1.974,-1.9898,-1.9916,-1.9373,0.0,0.0,0.0,0.0,0.0,-1.9126,-1.9398,-1.9675,-2.0174,-2.0273,-1.9844,-2.0081,-1.9585,-1.8129,-1.8316,-1.8162,-1.7612,-1.7595,-1.7732,-1.8035,-1.8035,-1.8166,-1.8413,-1.8097,-1.7731,-1.7329,-1.6314,-1.5657,-1.5246,-1.4539,-1.435,-1.4488,-1.4488,-1.4488,-1.4511,-1.4656,-1.4756,-1.4841,-1.4962,-1.5049,-1.5133,-1.5183,-1.5189,-1.5189,-1.5189,-1.5188,-1.519,-1.5284,-1.5313,-1.5334,-1.5318,-1.5329,-1.5353,-1.532,-1.5338,-1.5335,-1.5272,-1.5288,-1.5649,-1.6842,-1.7041,-1.7109,-1.7349,-1.7262,-1.7032,-1.6632,-1.63,-1.6107,-1.6107,-1.5818,-1.6147,-1.7483,-1.74,-1.7681,-1.8681,-1.8566,-1.8313,-1.8005,-1.7876,-1.7516,-1.6841,-1.6659,-1.6501,-1.6285,-1.6474,-1.6659,-1.6789,-1.7337,-1.7344,-1.686,-1.6474,-1.5981,-2.2772,-2.3451,-2.4234,-2.4369,-2.4894,0.0,-2.5468,-2.5313,-2.5072,0.0,-2.4422,-2.38,-2.2729,-2.1946,-2.0872,-1.8979,-1.7639,-1.7182,-1.8303,-1.7956,0.0,0.0,0.0,0.0,-1.8559,-1.8688,-1.8954,-1.9566,-1.969,-1.9562,-1.928,-1.9704,-1.9367,-1.8087,-1.7987,-1.7823,-1.7543,-1.7427,-1.7512,-1.7861,-1.7822,-1.7927,-1.8128,-1.7417,-1.7225,-1.7363,-1.5796,-1.5203,-1.53,-1.431,-1.4136,-1.4506,-1.4476,-1.4476,-1.4511,-1.4656,-1.4707,-1.4728,-1.492,-1.4995,-1.5028,-1.514,-1.5183,-1.5189,-1.5183,-1.5101,-1.5062,-1.5246,-1.5345,-1.5387,-1.5324,-1.5318,-1.5313,-1.5303,-1.531,-1.5299,-1.5233,-1.5257,-1.5466,-1.5993,-1.6089,-1.6232,-1.6761,-1.6846,-1.6546,-1.568,-1.54,-1.5275,-1.5275,-1.5145,-1.574,-1.7449,-1.7504,-1.7808,-1.8824,-1.845,-1.8023,-1.7732,-1.7492,-1.7199,-1.6866,-1.6581,-1.6394,-1.6355,-1.6258,-1.6378,-1.6738,-1.7052,-1.686,-1.6231,-1.6231,-1.5996,-2.2721,-2.3176,-2.3784,-2.4276,-2.4821,0.0,-2.5388,-2.5426,-2.5389,-2.5226,-2.4984,-2.452,-2.3545,-2.2936,-2.1817,-1.9455,-1.7789,-1.6675,-1.6211,-1.5163,-1.462,0.0,0.0,0.0,-1.6747,-1.7274,-1.7972,-1.8968,-1.9442,-1.9666,-1.9602,-2.0008,-1.9986,-1.9509,-1.9236,-1.9056,-1.8989,-1.8126,-1.7873,-1.8203,-1.7943,-1.7833,-1.7861,-1.7725,-1.7662,-1.7642,-1.6297,-1.5749,-1.5697,-1.4423,-1.4136,-1.4476,-1.432,-1.4362,-1.4511,-1.4656,-1.4707,-1.4728,-1.492,-1.4995,-1.4995,-1.5035,-1.5101,-1.5183,-1.5075,-1.5095,-1.517,-1.5279,-1.5306,-1.5324,-1.5299,-1.5334,-1.5364,-1.5313,-1.5331,-1.5356,-1.5292,-1.5296,-1.5336,-1.5449,-1.5332,-1.5247,-1.532,-1.5234,-1.5083,-1.4779,-1.4556,-1.4436,-1.4436,-1.468,-1.5311,-1.6459,-1.6757,-1.7256,-1.8261,-1.8061,-1.7839,-1.7777,-1.7726,-1.7549,-1.7224,-1.7134,-1.6977,-1.6712,-1.6071,-1.5933,-1.6394,-1.6474,-1.6239,-1.5749,-1.5839,-1.5315,-2.25,-2.3059,-2.3727,-2.4038,-2.4725,0.0,0.0,-2.55,-2.5535,-2.5471,-2.5263,-2.4826,-2.3992,-2.336,-2.2303,-2.0348,-1.8474,-1.6883,-1.5901,-1.4239,-1.3486,0.0,0.0,0.0,-1.578,-1.6163,-1.7018,-1.8765,-1.9169,-1.9406,-1.969,-1.9909,-1.9798,-1.9336,-1.9372,-1.9321,-1.9151,-1.8434,-1.8259,-1.8593,-1.8057,-1.7811,-1.7811,-1.7811,-1.7608,-1.7207,-1.6189,-1.5602,-1.5263,-1.4121,-1.3931,-1.435,-1.4245,-1.432,-1.4499,-1.4589,-1.4592,-1.4624,-1.4794,-1.4856,-1.4865,-1.4933,-1.5018,-1.5088,-1.5028,-1.512,-1.525,-1.5211,-1.5276,-1.5342,-1.5316,-1.5324,-1.5348,-1.531,-1.5331,-1.5331,-1.5263,-1.5287,-1.5288,-1.5265,-1.5101,-1.4977,-1.4902,-1.4785,-1.4656,-1.4522,-1.4227,-1.4051,-1.4051,-1.4408,-1.5037,-1.6046,-1.6726,-1.7512,-1.8495,-1.8351,-1.8187,-1.8187,-1.7949,-1.7658,-1.732,-1.715,-1.6706,-1.5978,-1.536,-1.5167,-1.5404,-1.5404,-1.5389,-1.5345,-1.5419,-1.5013,-2.236,-2.3059,-2.3765,-2.386,-2.4686,-2.5459,0.0,0.0,0.0,-2.5573,-2.5406,-2.5062,-2.4409,0.0,0.0,0.0,0.0,0.0,0.0,-1.4588,0.0,0.0,0.0,0.0,0.0,-1.5045,-1.6203,-1.8559,-1.8712,-1.8954,-1.953,-1.9639,-1.9471,-1.9034,-1.9317,-1.9421,-1.9295,-1.8772,-1.8651,-1.9,-1.8171,-1.7811,-1.7811,-1.7811,-1.7405,-1.6665,-1.5959,-1.5341,-1.4744,-1.3852,-1.3756,-1.4188,-1.4162,-1.4282,-1.4499,-1.4522,-1.4522,-1.4522,-1.4687,-1.4727,-1.4727,-1.4868,-1.4957,-1.5023,-1.5062,-1.5166,-1.5287,-1.5188,-1.5261,-1.5364,-1.5332,-1.5311,-1.5309,-1.5295,-1.5291,-1.5286,-1.5224,-1.5233,-1.5246,-1.5188,-1.5042,-1.4931,-1.4894,-1.4785,-1.4656,-1.4522,-1.4214,-1.3997,-1.3969,-1.4465,-1.5121,-1.5904,-1.6939,-1.7895,-1.8771,-1.8659,-1.8528,-1.8528,-1.8121,-1.771,-1.732,-1.6834,-1.6102,-1.5106,-1.4613,-1.4406,-1.4501,-1.4406,-1.4564,-1.4876,-1.4937,-1.4721,-2.2599,-2.31,0.0,0.0,-2.4743,0.0,-2.5386,0.0,-2.5573,-2.5511,0.0,-2.5376,-2.5049,0.0,0.0,0.0,0.0,0.0,-1.806,-1.6414,-1.4565,-1.2397,0.0,0.0,0.0,-1.3626,-1.5603,-1.7999,-1.8129,-1.8349,-1.8968,-1.9442,-1.9844,-2.0104,-1.994,-2.013,-2.0751,-1.9495,-1.9018,-1.9322,-1.8289,-1.7811,-1.7811,-1.7811,-1.7405,-1.6665,-1.6115,-1.5469,-1.476,-1.4116,-1.3983,-1.4175,-1.3997,-1.4162,-1.4511,-1.4635,-1.4592,-1.4533,-1.4785,-1.4794,-1.4727,-1.4868,-1.4985,-1.5112,-1.5222,-1.5288,-1.5315,-1.5358,-1.5343,-1.5312,-1.5382,-1.5346,-1.5307,-1.5304,-1.5302,-1.5302,-1.5296,-1.5201,-1.5124,-1.5112,-1.4912,-1.4766,-1.4886,-1.4785,-1.4656,-1.4522,-1.4464,-1.4375,-1.4188,-1.5239,-1.5976,-1.592,-1.7017,-1.7911,-1.827,-1.827,-1.8249,-1.8249,-1.8187,-1.7893,-1.7304,-1.6285,-1.549,-1.5003,-1.4301,-1.4149,-1.4501,-1.4149,-1.4,-1.4019,-1.4406,-1.4117,0.0,0.0,0.0,0.0,0.0,0.0,-2.5492,0.0,-2.5658,0.0,0.0,0.0,0.0,0.0,0.0,0.0,-2.3325,0.0,0.0,0.0,-1.734,0.0,0.0,0.0,0.0,0.0,0.0,0.0,-1.7396,-1.7958,-1.8841,-1.9406,-1.9874,-2.028,-2.0447,-2.0797,-2.1337,-2.0127,-1.9605,-1.972,-1.8411,-1.7811,-1.7811,-1.7811,-1.7475,-1.6875,-1.6193,-1.554,-1.4918,-1.4203,-1.4011,-1.4201,-1.4203,-1.4349,-1.4624,-1.4766,-1.4776,-1.4737,-1.4868,-1.4813,-1.4718,-1.4852,-1.4997,-1.5135,-1.5265,-1.5335,-1.5364,-1.5392,-1.5386,-1.5351,-1.5346,-1.5326,-1.5284,-1.5244,-1.5245,-1.5245,-1.5245,-1.5201,-1.5139,-1.5057,-1.4923,-1.4766,-1.4631,-1.4595,-1.4549,-1.4499,-1.4399,-1.4257,-1.4051,-1.5201,-1.5884,-1.5485,-1.6821,-1.7788,-1.7902,-1.7902,-1.7902,-1.7902,-1.7363,-1.6813,-1.6322,-1.5096,-1.4259,-1.3899,-1.3085,-1.2777,-1.2938,-1.3032,-1.2941,-1.2719,-1.3696,-1.3802,-2.2992,0.0,0.0,0.0,0.0,0.0,0.0,0.0,0.0,0.0,0.0,0.0,0.0,0.0,-2.5454,-2.5381,0.0,-2.4022,0.0,-2.197,0.0,0.0,0.0,0.0,0.0,0.0,0.0,-1.6034,-1.6818,-1.7639,-1.8612,-1.9413,-2.0,-2.028,-2.0846,-2.1306,-2.1582,-2.0542,-2.0002,-1.9985,-1.8498,-1.7811,-1.7811,-1.7811,-1.742,-1.6737,-1.6218,-1.5554,-1.4809,-1.4284,-1.4149,-1.4307,-1.4464,-1.4639,-1.4776,-1.4875,-1.4909,-1.4917,-1.4942,-1.4881,-1.4828,-1.4923,-1.5043,-1.5178,-1.529,-1.5368,-1.5402,-1.5402,-1.5388,-1.537,-1.5342,-1.5304,-1.5258,-1.5236,-1.5195,-1.514,-1.514,-1.5107,-1.5033,-1.4946,-1.4803,-1.4629,-1.4384,-1.4404,-1.4399,-1.4332,-1.4201,-1.4082,-1.3983,-1.5107,-1.5765,-1.544,-1.6725,-1.758,-1.753,-1.7422,-1.7319,-1.7209,-1.6381,-1.5604,-1.5066,-1.4042,-1.3234,-1.2763,-1.2103,-1.1811,-1.1811,-1.2138,-1.2138,-1.1811,-1.3076,-1.3367,0.0,0.0,0.0,-2.4949,0.0,0.0,0.0,0.0,-2.5703,0.0,0.0,0.0,0.0,-2.5447,-2.5376,-2.5303,-2.5332,0.0,0.0,0.0,0.0,0.0,0.0,0.0,0.0,0.0,0.0,-1.5531,-1.6608,-1.7477,-1.8092,-1.9513,-2.028,-2.0314,-2.1134,-2.1582,-2.1582,-2.0542,-2.0002,-1.9985,-1.8498,-1.7811,-1.7811,-1.7811,-1.7126,-1.5954,-1.6116,-1.5431,-1.4237,-1.4417,-1.4476,-1.4511,-1.4776,-1.4895,-1.4894,-1.497,-1.4969,-1.4919,-1.5057,-1.5081,-1.5081,-1.5087,-1.5187,-1.5318,-1.5387,-1.5405,-1.5391,-1.5391,-1.5352,-1.5312,-1.5379,-1.5299,-1.5226,-1.5272,-1.5157,-1.5014,-1.5014,-1.4856,-1.4708,-1.4698,-1.4444,-1.4214,-1.4201,-1.4201,-1.4149,-1.3955,-1.3913,-1.3966,-1.4172,-1.5186,-1.597,-1.6149,-1.6851,-1.7254,-1.7129,-1.6767,-1.6368,-1.5993,-1.5386,-1.4642,-1.3695,-1.3313,-1.2693,-1.1847,-1.1811,-1.1811,-1.1811,-1.1811,-1.1811,-1.1822,-1.2698,-1.2675,0.0,0.0,-2.4733,-2.5081,0.0,0.0,0.0,0.0,0.0,0.0,0.0,0.0,0.0,-2.5007,-2.4583,-2.4532,-2.4109,-2.3865,0.0,0.0,0.0,0.0,-1.9241,-1.7098,0.0,0.0,0.0,-1.6059,-1.6471,-1.7076,0.0,-1.9498,-2.0449,-2.0764,-2.1306,-2.1764,-2.2061,-2.0692,-2.0002,-1.9985,-1.8498,-1.7811,-1.7794,-1.7287,-1.6946,-1.665,-1.5782,-1.5246,-1.4968,-1.463,-1.4488,-1.4511,-1.4697,-1.4813,-1.4921,-1.508,-1.5151,-1.5157,-1.512,-1.5158,-1.5222,-1.5125,-1.5187,-1.5299,-1.5329,-1.535,-1.5403,-1.5403,-1.5383,-1.5369,-1.5382,-1.5321,-1.5277,-1.5292,-1.5251,-1.518,-1.5146,-1.5087,-1.4981,-1.4859,-1.4738,-1.4515,-1.4078,-1.3846,-1.371,-1.3651,-1.4011,-1.423,-1.4032,-1.4878,-1.5404,-1.5129,-1.5491,-1.5758,-1.5712,-1.5587,-1.543,-1.5315,-1.397,-1.3229,-1.328,-1.1916,-1.1217,-1.1282,-1.0954,-1.0802,-1.0802,-1.1132,-1.1094,-1.0812,-1.1765,-1.2042,-2.4259,-2.4622,0.0,-2.5229,-2.5399,0.0,-2.5271,0.0,0.0,0.0,0.0,0.0,0.0,0.0,-2.4184,-2.4109,-2.3483,-2.3286,0.0,-2.4865,0.0,-2.4897,-2.2026,-1.9723,0.0,-1.7311,-1.6504,-1.687,-1.7129,-1.7611,0.0,0.0,-2.0682,-2.0991,-2.1538,-2.2003,-2.231,-2.0762,-2.0002,-1.9985,-1.8597,-1.7949,-1.7932,-1.725,-1.6928,-1.6818,-1.5548,-1.4994,-1.495,-1.455,-1.4387,-1.4411,-1.4606,-1.4785,-1.4921,-1.508,-1.5201,-1.5292,-1.5229,-1.5254,-1.5326,-1.5209,-1.5235,-1.5296,-1.5296,-1.5358,-1.5394,-1.5394,-1.5394,-1.5401,-1.5408,-1.535,-1.531,-1.53,-1.5259,-1.5206,-1.5133,-1.5107,-1.5045,-1.493,-1.4831,-1.4612,-1.4064,-1.3693,-1.3432,-1.3325,-1.3661,-1.3887,-1.3764,-1.4475,-1.4908,-1.4712,-1.473,-1.4581,-1.411,-1.4105,-1.3963,-1.3572,-1.2433,-1.1797,-1.1773,-1.0747,-1.0332,-1.0666,-1.042,-1.0352,-1.0508,-1.0488,-1.0293,-1.0049,-1.0457,-1.0656]},{"header":{"parameterUnit":"m.s-1","parameterCategory":1,"la1":30.6,"la2":29.2853,"lo1":-89.7004,"lo2":-87.6739,"dy":0.0162,"dx":0.0183,"nx":112,"ny":82,"refTime":"2023-08-02T00:00:00:Z","depth":0,"parameterNumber":3,"parameterNumberName":"V-component_of_WINDS"},"data":[0.0,0.0,0.0,0.0,0.0,0.0,0.0,0.0,0.0,0.0,0.0,0.0,0.0,0.0,0.0,0.0,0.0,0.0,0.0,0.0,0.0,0.0,0.0,0.0,0.0,0.0,0.0,0.0,0.0,0.0,0.0,0.0,0.0,0.0,0.0,0.0,0.0,0.0,0.0,0.0,0.0,0.0,0.0,0.0,0.0,0.0,0.0,0.0,0.0,0.0,0.0,0.0,0.0,0.0,0.0,0.0,0.0,0.0,0.0,0.0,0.0,0.0,0.0,0.0,0.0,0.0,0.0,0.0,0.0,0.0,0.0,0.0,0.0,0.0,0.0,0.0,0.0,0.0,0.0,0.0,0.0,0.0,0.0,0.0,0.0,0.0,0.0,0.0,0.0,0.0,0.1858,-0.1227,-0.5822,-0.8927,-0.943,-1.2154,-1.2899,-1.0963,0.0,0.0,0.0,0.0,0.0,0.0,0.0,0.0,0.0,0.0,0.0,0.0,0.0,0.0,0.0,0.0,0.0,0.0,0.0,0.0,0.0,0.0,0.0,0.0,0.0,0.0,0.0,0.0,0.0,0.0,0.0,0.0,0.0,0.0,0.0,0.0,0.0,0.0,0.0,0.0,0.0,0.0,0.0,0.0,0.0,0.0,0.0,0.0,0.0,0.0,0.0,0.0,0.0,0.0,0.0,0.0,0.0,0.0,0.0,0.0,0.0,0.0,0.0,0.0,0.0,0.0,0.0,0.0,0.0,0.0,0.0,0.0,0.0,0.0,0.0,0.0,0.0,0.0,0.0,0.0,0.0,0.0,0.0,0.0,0.0,0.0,0.0,0.0,0.0,0.0,0.0,0.0,0.0,0.0,0.0,0.0,0.0,0.0,0.0,0.0,0.0,0.0,0.0,0.0,0.1113,-0.3296,-0.669,-0.9316,-1.0696,-1.2265,-1.2955,-1.2664,0.0,0.0,0.0,0.0,0.0,0.0,0.0,0.0,0.0,0.0,0.0,0.0,0.0,0.0,0.0,0.0,0.0,0.0,0.0,0.0,0.0,0.0,0.0,0.0,0.0,0.0,0.0,0.0,0.0,0.0,0.0,0.0,0.0,0.0,0.0,0.0,0.0,0.0,0.0,0.0,0.0,0.0,0.0,0.0,0.0,0.0,0.0,0.0,0.0,0.0,0.0,0.0,0.0,0.0,0.0,0.0,0.0,0.0,0.0,0.0,0.0,0.0,0.0,0.0,0.0,0.0,0.0,0.0,0.0,0.0,0.0,0.0,0.0,0.0,0.0,0.0,0.0,0.0,0.0,0.0,0.0,0.0,0.0,0.0,0.0,0.0,0.0,0.0,0.0,0.0,0.0,0.0,0.0,0.0,0.0,0.0,0.0,0.0,0.0,0.0,0.0,0.0,0.0,0.0581,-0.143,-0.4933,-0.7194,-0.9086,-1.0721,-1.2028,-1.2786,-1.2789,-1.3561,0.0,0.0,0.0,0.0,0.0,0.0,0.0,0.0,0.0,0.0,0.0,0.0,0.0,0.0,0.0,0.0,0.0,0.0,0.0,0.0,0.0,0.0,0.0,0.0,0.0,0.0,0.0,0.0,0.0,0.0,0.0,0.0,0.0,0.0,0.0,0.0,0.0,0.0,0.0,0.0,0.0,0.0,0.0,0.0,0.0,0.0,0.0,0.0,0.0,0.0,0.0,0.0,0.0,0.0,0.0,0.0,0.0,0.0,0.0,0.0,0.0,0.0,0.0,0.0,0.0,0.0,0.0,0.0,0.0,0.0,0.0,0.0,0.0,0.0,0.0,0.0,0.0,0.0,0.0,0.0,0.0,0.0,0.0,0.0,0.0,0.0,0.0,0.0,0.0,0.0,0.0,0.0,0.0,0.0,0.0,0.0,0.0,0.0,0.0,0.0,0.0,0.0,-0.2051,-0.4016,-0.5997,-0.7521,-0.9076,-1.0993,-1.1854,-1.2573,-1.2983,-1.3271,0.0,0.0,0.0,0.0,0.0,0.0,0.0,0.0,0.0,0.0,0.0,0.0,0.0,0.0,0.0,0.0,0.0,0.0,0.0,0.0,0.0,0.0,0.0,0.0,0.0,0.0,0.0,0.0,0.0,0.0,0.0,0.0,0.0,0.0,0.0,0.0,0.0,0.0,0.0,0.0,0.0,0.0,0.0,0.0,0.0,0.0,0.0,0.0,0.0,0.0,0.0,0.0,0.0,0.0,0.0,0.0,0.0,0.0,0.0,0.0,0.0,0.0,0.0,0.0,0.0,0.0,0.0,0.0,0.0,0.0,0.0,0.0,0.0,0.0,0.0,0.0,0.0,0.0,0.0,0.0,0.0,0.0,0.0,0.0,0.0,0.0,0.0,0.0,0.0,0.0,0.0,0.0,0.0,0.0,0.0,0.0,0.0,0.0,0.0,0.0,0.0,0.0,-0.3509,-0.5663,-0.6014,-0.7363,-0.9388,-1.2023,-1.1915,-1.2547,-1.4245,-1.3454,0.0,0.0,0.0,0.0,0.0,0.0,0.0,0.0,0.0,0.0,0.0,0.0,0.0,0.0,0.0,0.0,0.0,0.0,0.0,0.0,0.0,0.0,0.0,0.0,0.0,0.0,0.0,0.0,0.0,0.0,0.0,0.0,0.0,0.0,0.0,0.0,0.0,0.0,0.0,0.0,0.0,0.0,0.0,0.0,0.0,0.0,0.0,0.0,0.0,0.0,0.0,0.0,0.0,0.0,0.0,0.0,0.0,0.0,0.0,0.0,0.0,0.0,0.0,0.0,0.0,0.0,0.0,0.0,0.0,0.0,0.0,0.0,0.0,0.0,0.0,0.0,0.0,0.0,0.0,0.0,0.0,0.0,0.0,0.0,0.0,0.0,0.0,0.0,0.0,0.0,0.0,0.0,0.0,0.0,0.0,0.0,0.0,0.0,0.0,0.0,0.0,0.0,-0.4543,-0.6172,-0.7096,-0.8478,-1.0103,-1.1973,-1.2667,-1.3386,-1.423,0.0,0.0,0.0,0.0,0.0,0.0,0.0,0.0,0.0,0.0,0.0,0.0,0.0,0.0,0.0,0.0,0.0,0.0,0.0,0.0,0.0,0.0,0.0,0.0,0.0,0.0,0.0,0.0,0.0,0.0,0.0,0.0,0.0,0.0,0.0,0.0,0.0,0.0,0.0,0.0,0.0,0.0,0.0,0.0,0.0,0.0,0.0,0.0,0.0,0.0,0.0,0.0,0.0,0.0,0.0,0.0,0.0,0.0,0.0,0.0,0.0,0.0,0.0,0.0,0.0,0.0,0.0,0.0,0.0,0.0,0.0,0.0,0.0,0.0,0.0,0.0,0.0,0.0,0.0,0.0,0.0,0.0,0.0,0.0,0.0,0.0,0.0,0.0,0.0,0.0,0.0,0.0,0.0,0.0,0.0,0.0,0.0,0.0,0.0,0.0,0.0,0.0,-0.4316,-0.5612,-0.6923,-0.8481,-0.941,-1.0681,-1.2431,-1.3081,-1.3641,-1.4057,0.0,0.0,0.0,0.0,0.0,0.0,0.0,0.0,0.0,0.0,0.0,0.0,0.0,0.0,0.0,0.0,0.0,0.0,0.0,0.0,0.0,0.0,0.0,0.0,0.0,0.0,0.0,0.0,0.0,0.0,0.0,0.0,0.0,0.0,0.0,0.0,0.0,0.0,0.0,0.0,0.0,0.0,0.0,0.0,0.0,0.0,0.0,0.0,0.0,0.0,0.0,0.0,0.0,0.0,0.0,0.0,0.0,0.0,0.0,0.0,0.0,0.0,0.0,0.0,0.0,0.0,0.0,0.0,0.0,0.0,0.0,0.0,0.0,0.0,0.0,0.0,0.0,0.0,0.0,0.0,0.0,0.0,0.0,0.0,0.0,0.0,0.0,0.0,0.0,0.0,0.0,0.0,0.0,0.0,0.0,0.0,0.0,0.0,0.0,0.0,0.0,0.0,-0.5405,-0.6681,-0.8277,-0.9857,-0.9998,-1.1063,-1.368,-1.3082,-1.3063,0.0,0.0,0.0,0.0,0.0,0.0,0.0,0.0,0.0,0.0,0.0,0.0,0.0,0.0,0.0,0.0,0.0,0.0,0.0,0.0,0.0,0.0,0.0,0.0,0.0,0.0,0.0,0.0,0.0,0.0,0.0,0.0,0.0,0.0,0.0,0.0,0.0,0.0,0.0,0.0,0.0,0.0,0.0,0.0,0.0,0.0,0.0,0.0,0.0,0.0,0.0,0.0,0.0,0.0,0.0,0.0,0.0,0.0,0.0,0.0,0.0,0.0,0.0,0.0,0.0,0.0,0.0,0.0,0.0,0.0,0.0,0.0,0.0,0.0,0.0,0.0,0.0,0.0,0.0,0.0,0.0,0.0,0.0,0.0,0.0,0.0,0.0,0.0,0.0,0.0,0.0,0.0,0.0,0.0,0.0,0.0,0.0,0.0,0.0,0.0,0.0,0.0,0.0,-0.6321,-0.7921,-0.9524,-1.091,-1.2032,-1.3102,-1.3872,-1.4178,-1.4258,-1.4115,0.0,0.0,0.0,0.0,0.0,0.0,0.0,0.0,0.0,0.0,0.0,0.0,0.0,0.0,0.0,0.0,0.0,0.0,0.0,0.0,0.0,0.0,0.0,0.0,0.0,0.0,0.0,0.0,0.0,0.0,0.0,0.0,0.0,0.0,0.0,0.0,0.0,0.0,0.0,0.0,0.0,0.0,0.0,0.0,0.0,0.0,0.0,0.0,0.0,0.0,0.0,0.0,0.0,0.0,0.0,0.0,0.0,0.0,0.0,0.0,0.0,0.0,0.0,0.0,0.0,0.0,0.0,0.0,0.0,0.0,0.0,0.0,0.0,0.0,0.0,0.0,0.0,0.0,0.0,0.0,0.0,0.0,0.0,0.0,0.0,0.0,0.0,0.0,0.0,0.0,0.0,0.0,0.0,0.0,0.0,0.0,0.0,0.0,0.0,0.0,0.0,0.0,-0.7832,-0.9125,-1.0615,-1.213,-1.3239,-1.407,-1.4657,-1.4721,-1.4536,-1.3948,0.0,0.0,0.0,0.0,0.0,0.0,0.0,0.0,0.0,0.0,0.0,0.0,0.0,0.0,0.0,0.0,0.0,0.0,0.0,0.0,0.0,0.0,0.0,0.0,0.0,0.0,0.0,0.0,0.0,0.0,0.0,0.0,0.0,0.0,0.0,0.0,0.0,0.0,0.0,0.0,0.0,0.0,0.0,0.0,0.0,0.0,0.0,0.0,0.0,0.0,0.0,0.0,0.0,0.0,0.0,0.0,0.0,0.0,0.0,0.0,0.0,0.0,0.0,0.0,0.0,0.0,0.0,0.0,0.0,0.0,0.0,0.0,0.0,0.0,0.0,0.0,0.0,0.0,0.0,0.0,0.0,0.0,0.0,0.0,0.0,0.0,0.0,0.0,0.0,0.0,0.0,0.0,0.0,0.0,0.0,0.0,0.0,0.0,0.0,0.0,0.0,0.0,-0.9601,-1.0363,-1.1626,-1.3397,-1.3856,-1.4493,-1.569,-1.4983,-1.4242,-1.3681,0.0,0.0,0.0,0.0,0.0,0.0,0.0,0.0,0.0,0.0,0.0,0.0,0.0,0.0,0.0,0.0,0.0,0.0,0.0,0.0,0.0,0.0,0.0,0.0,0.0,0.0,0.0,0.0,0.0,0.0,0.0,0.0,0.0,0.0,0.0,0.0,0.0,0.0,0.0,0.0,0.0,0.0,0.0,0.0,0.0,0.0,0.0,0.0,0.0,0.0,0.0,0.0,0.0,0.0,0.0,0.0,0.0,0.0,0.0,0.0,-0.7333,0.0,0.0,0.0,0.0,0.0,0.0,0.0,0.0,0.0,0.0,0.0,0.0,0.0,0.0,0.0,0.0,0.0,0.0,0.0,0.0,0.0,0.0,0.0,0.0,0.0,0.0,0.0,0.0,0.0,0.0,0.0,0.0,0.0,0.0,0.0,0.0,0.0,0.0,0.0,0.0,0.0,-1.0536,-1.1444,-1.2703,-1.4437,-1.4734,-1.4956,-1.5471,-1.4683,-1.4028,-1.3585,-1.2525,0.0,0.0,0.0,0.0,0.0,0.0,0.0,0.0,0.0,0.0,0.0,0.0,0.0,0.0,0.0,0.0,0.0,0.0,0.0,0.0,0.0,0.0,0.0,0.0,0.0,0.0,0.0,0.0,0.0,0.0,0.0,0.0,0.0,0.0,0.0,0.0,0.0,0.0,0.0,0.0,0.0,0.0,0.0,0.0,0.0,0.0,0.0,0.0,0.0,0.0,0.0,0.0,0.0,0.0,0.0,0.0,0.0,0.0,0.0,0.0,-0.8265,0.0,0.0,0.0,0.0,0.0,0.0,0.0,0.0,0.0,0.0,0.0,0.0,0.0,0.0,0.0,0.0,0.0,0.0,0.0,0.0,0.0,0.0,0.0,0.0,0.0,0.0,0.0,0.0,0.0,0.0,0.0,0.0,0.0,0.0,0.0,0.0,0.0,0.0,0.0,0.0,-1.1684,-1.2487,-1.3392,-1.4595,-1.4877,-1.5023,-1.5177,-1.4516,-1.3901,-1.3467,-1.2585,0.0,0.0,0.0,0.0,0.0,0.0,0.0,0.0,0.0,0.0,0.0,0.0,0.0,0.0,0.0,0.0,0.0,0.0,0.0,0.0,0.0,0.0,0.0,0.0,0.0,0.0,0.0,0.0,0.0,0.0,0.0,0.0,0.0,0.0,0.0,0.0,0.0,0.0,0.0,0.0,0.0,0.0,0.0,0.0,0.0,0.0,0.0,0.0,0.0,0.0,0.0,0.0,0.0,-0.8455,-0.8537,-0.8601,-0.8655,-0.8733,-0.8808,-0.8462,-0.8736,-0.9665,-1.0382,0.0,0.0,0.0,0.0,0.0,0.0,0.0,0.0,0.0,0.0,0.0,0.0,0.0,0.0,0.0,0.0,0.0,0.0,0.0,0.0,0.0,0.0,0.0,0.0,-1.4349,-1.4115,0.0,0.0,0.0,0.0,0.0,0.0,0.0,0.0,0.0,0.0,0.0,0.0,-1.2647,-1.3193,-1.3814,-1.4449,-1.4696,-1.483,-1.4883,-1.4396,-1.3854,-1.332,-1.2766,-1.2111,0.0,0.0,0.0,0.0,0.0,0.0,0.0,0.0,0.0,0.0,0.0,0.0,0.0,0.0,0.0,0.0,0.0,0.0,0.0,0.0,0.0,0.0,0.0,0.0,0.0,0.0,0.0,0.0,0.0,0.0,0.0,0.0,0.2895,0.1824,0.0,0.0,0.0,0.0,0.0,0.0,0.0,0.0,0.0,0.0,0.0,0.0,0.0,-0.6268,-0.661,-0.7898,-0.8527,-0.8659,-0.9184,-0.9303,-0.9072,-0.934,-0.9401,-0.9296,-0.9371,0.0,-0.8716,-0.9746,0.0,0.0,0.0,0.0,0.0,0.0,0.0,0.0,0.0,0.0,0.0,0.0,0.0,0.0,0.0,0.0,0.0,0.0,0.0,0.0,0.0,0.0,-1.49,-1.4563,-1.4489,-1.4456,0.0,-1.3634,-1.3026,-1.2674,-1.2164,0.0,0.0,0.0,0.0,0.0,0.0,0.0,-1.2311,-1.2893,-1.3587,-1.4429,-1.4329,-1.4302,-1.4556,-1.4275,-1.3941,-1.3607,-1.3273,-1.2919,-1.2607,-1.1777,0.0,0.0,0.0,0.0,0.0,0.0,0.0,0.0,0.0,0.0,0.0,0.0,0.0,0.0,0.0,0.0,0.0,0.0,0.0,0.0,0.0,0.0,0.0,0.0,0.0,0.0,0.0,0.0,0.0,0.3109,0.1988,0.1019,0.0375,-0.0278,0.0,0.0,0.0,0.0,0.0,0.0,0.0,0.0,0.0,-0.5911,-0.7191,-0.7923,-0.8199,-0.8891,-0.9198,-0.9218,-0.9483,-0.9581,-0.9534,-0.9669,-0.9693,-0.9632,-0.97,-0.9445,-0.9078,-1.0011,-1.0915,-1.1793,0.0,0.0,0.0,0.0,-1.3906,-1.347,-1.3616,-1.4041,0.0,-1.4193,0.0,0.0,0.0,0.0,0.0,0.0,0.0,0.0,0.0,0.0,0.0,-1.5237,-1.513,-1.501,-1.501,-1.4449,-1.3761,0.0,-1.2933,-1.2652,-1.1984,0.0,0.0,0.0,0.0,-1.1844,-1.2472,-1.2786,-1.3166,-1.3721,-1.3667,-1.3647,-1.3774,-1.3667,-1.354,-1.3407,-1.328,-1.2999,-1.2518,-1.2285,-1.1917,0.0,0.0,0.0,0.0,0.0,0.0,0.0,0.0,0.0,0.0,0.0,0.0,0.0,0.0,0.0,0.0,0.0,0.0,0.0,0.0,0.0,0.0,0.0,0.0,0.0,0.0,0.0,0.0,0.226,0.1393,0.0574,0.0199,-0.0496,0.0,0.0,0.0,0.0,0.0,0.0,-0.5763,-0.681,-0.7487,-0.7741,-0.8646,-0.9306,-0.9608,-0.9534,-0.9571,-0.9724,-0.9724,-0.9758,-0.9822,-0.9863,-0.9859,-0.9822,-0.9822,-0.9676,-0.9531,-1.0115,-1.1087,-1.24,-1.2894,-1.4177,-1.5732,-1.5732,-1.5685,-1.5651,-1.5865,-1.5892,-1.5772,-1.5411,0.0,-1.4937,-1.4202,0.0,0.0,0.0,0.0,-1.4522,-1.4963,-1.513,-1.5277,-1.5631,-1.5498,-1.5284,-1.5284,-1.4823,-1.4235,0.0,-1.3601,-1.334,-1.2378,0.0,0.0,0.0,0.0,-1.1884,-1.2545,-1.2775,-1.2866,-1.318,-1.3213,-1.3213,-1.3213,-1.3213,-1.3213,-1.3213,-1.3213,-1.2973,-1.2438,-1.2552,-1.2225,-1.1343,0.0,0.0,0.0,0.0,0.0,0.0,0.0,0.0,0.0,0.0,0.0,0.0,0.0,0.0,0.0,0.0,0.0,0.0,0.0,0.0,0.0,0.0,0.0,0.0,0.0,0.0,0.0,0.0,0.0,0.1861,0.0767,0.0,0.0,0.0,0.0,-0.6187,-0.6616,-0.739,-0.8643,-0.9047,-0.9342,-0.9633,-0.9771,-0.9924,-1.0232,-0.9944,-0.9876,-1.0025,-1.0025,-0.9954,-0.9825,-0.9971,-0.9958,-0.9822,-0.9822,-0.9737,-0.9574,-0.938,-1.0708,-1.277,-1.2638,-1.428,-1.664,-1.664,-1.6466,-1.6233,-1.6246,-1.6066,-1.5872,-1.6126,-1.5832,-1.5311,-1.4997,-1.4703,0.0,0.0,-1.489,-1.5337,-1.5364,-1.5578,-1.5725,-1.5478,-1.5197,-1.4983,-1.4983,-1.4522,-1.4175,0.0,-1.4015,-1.3534,-1.32,0.0,-1.2567,-1.1951,-1.2091,-1.2271,-1.2318,-1.2572,-1.2866,-1.318,-1.3213,-1.3213,-1.3213,-1.3213,-1.3213,-1.3213,-1.3213,-1.3066,-1.2815,-1.2465,-1.2298,-1.2238,-1.1498,0.0,0.0,0.0,0.0,0.0,0.0,0.0,0.0,0.0,0.0,0.0,0.0,0.0,0.0,0.0,0.0,0.0,0.0,0.0,0.0,0.0,0.0,0.0,0.0,0.0,0.0,0.0,0.0,0.0755,0.0345,0.0,-0.3476,-0.381,-0.5166,-0.8112,-0.8603,-0.8965,-0.9523,-0.9849,-1.0049,-1.0246,-1.0253,-1.0263,-1.028,-1.0171,-1.0046,-0.99,-0.99,-0.9873,-0.9822,-0.9876,-0.9873,-0.9815,-0.9724,-0.9602,-0.9445,-0.9239,-1.0193,-1.1905,-1.2529,-1.3958,-1.5692,-1.6262,-1.648,-1.6493,-1.6119,-1.6046,-1.6099,-1.6012,-1.5845,-1.5618,-1.5331,-1.5297,-1.5324,-1.5137,-1.5237,-1.5398,-1.5398,-1.5337,-1.5244,-1.5144,-1.489,-1.4676,-1.4676,-1.4369,-1.4115,-1.4222,-1.4068,-1.3774,-1.3293,-1.2953,-1.2688,-1.2211,-1.2078,-1.2091,-1.2278,-1.2392,-1.2505,-1.2612,-1.2625,-1.2625,-1.2625,-1.2625,-1.2625,-1.2625,-1.2806,-1.2692,-1.2278,-1.2258,-1.2037,-1.147,-1.1156,-1.0902,0.0,0.0,0.0,0.0,0.0,0.0,0.0,0.0,0.0,0.0,0.0,0.0,0.0,0.0,0.0,0.0,0.0,0.0,0.0,0.0,0.0,0.0,0.0,0.0,0.0,0.0432,0.0,0.0,0.0,-0.0985,-0.346,-0.4342,-0.5966,-0.8515,-0.9509,-1.009,-1.0192,-1.0344,-1.0473,-1.0565,-1.0517,-1.0446,-1.0351,-1.0253,-1.01,-0.9897,-0.9846,-0.9822,-0.9822,-0.9822,-0.9822,-0.9815,-0.9673,-0.9551,-0.9442,-0.9239,-0.9709,-1.0679,-1.1792,-1.3314,-1.5098,-1.5676,-1.6156,-1.6486,-1.5999,-1.5959,-1.6092,-1.5892,-1.5832,-1.5792,-1.5605,-1.5678,-1.5765,-1.5478,-1.5398,-1.5378,-1.5277,-1.511,-1.4937,-1.4836,-1.4663,-1.4496,-1.4396,-1.4142,-1.3941,-1.3941,-1.3941,-1.3781,-1.3293,-1.2953,-1.2755,-1.2485,-1.2204,-1.2124,-1.2412,-1.2365,-1.2305,-1.2305,-1.2305,-1.2305,-1.2305,-1.2305,-1.2258,-1.2164,-1.2345,-1.2304,-1.1737,-1.2004,-1.1884,-1.1296,-1.1096,-1.0848,-1.0624,0.0,0.0,0.0,0.0,0.0,0.0,0.0,0.0,0.0,0.0,0.0,0.0,0.0,0.0,0.0,0.0,0.0,0.0,0.0,0.0,0.0,0.0,0.0,0.0304,0.0,0.0,0.0,0.0,-0.0645,-0.2064,-0.3888,-0.5622,-0.7176,-0.9297,-1.0367,-1.0367,-1.0639,-1.0721,-1.0721,-1.0571,-1.049,-1.0483,-1.0195,-1.0046,-1.0039,-0.989,-0.9819,-0.9815,-0.9815,-0.9812,-0.9798,-0.9656,-0.9595,-0.9571,-0.9269,-0.9147,-0.9356,-1.063,-1.2705,-1.4931,-1.4925,-1.5524,-1.6219,-1.5925,-1.5832,-1.5832,-1.5832,-1.5832,-1.5832,-1.5832,-1.5832,-1.5765,-1.5478,-1.5391,-1.5317,-1.5023,-1.4943,-1.4863,-1.4563,-1.4496,-1.4409,-1.4122,-1.3834,-1.3627,-1.3627,-1.3539,-1.3527,-1.324,-1.2946,-1.2822,-1.2808,-1.2485,0.0,-1.2768,-1.2478,-1.2305,-1.2305,-1.2305,-1.2305,-1.2305,-1.2291,-1.2164,-1.187,-1.1857,-1.1717,-1.141,-1.1683,-1.1837,-1.183,-1.1269,-1.0842,-1.0624,0.0,0.0,0.0,0.0,0.0,0.0,0.0,0.0,0.0,0.0,0.0,0.0,0.0,0.0,0.0,0.0,0.0,0.0,0.0,0.0,0.0,0.2435,0.1666,0.0217,0.0,0.0,0.0,0.0,-0.0664,-0.2351,-0.303,-0.4104,-0.5798,-0.7688,-0.8651,-0.8651,-1.0022,-1.0721,-1.0721,-1.0571,-1.0443,-1.0341,-1.0148,-0.9992,-0.9883,-0.9839,-0.9768,-0.9666,-0.9666,-0.9608,-0.9493,-0.9344,-0.9276,-0.9262,-0.9076,-0.8998,-0.9102,-1.0582,-1.1527,-1.2279,-1.4099,-1.5245,-1.5939,-1.5858,-1.5832,-1.5832,-1.5832,-1.5832,-1.5832,-1.5832,-1.5832,-1.5765,-1.5478,-1.5244,-1.5017,-1.4716,-1.4489,-1.4255,-1.3955,-1.3881,-1.3808,-1.3514,-1.3387,-1.3327,-1.3327,-1.3146,-1.2966,-1.2886,-1.2882,-1.2748,-1.2458,-1.2351,0.0,-1.2412,-1.2351,-1.2305,-1.2305,-1.2305,-1.2305,-1.2305,-1.2111,-1.1864,-1.1563,-1.155,-1.1323,-1.0822,-1.1076,-1.1136,-1.0987,-1.0762,-1.0641,0.0,0.0,0.0,0.0,0.0,0.0,0.0,0.0,0.0,0.0,0.0,0.0,0.0,0.0,0.0,0.0,0.0,0.0,0.0,0.0,0.0,0.0,0.3059,0.2137,0.0237,0.0,0.0,0.0,0.0,-0.0404,-0.1478,-0.2283,-0.3087,-0.4158,-0.6562,-0.803,-0.803,-0.9775,-1.069,-1.0626,-1.0538,-1.0392,-1.0185,-1.0093,-0.9971,-0.9822,-0.9822,-0.9747,-0.9608,-0.9608,-0.9527,0.0,-0.9218,-0.9154,-0.9144,-0.8998,-0.894,0.0,0.0,0.0,0.0,0.0,-1.4631,-1.5045,-1.5635,-1.5832,-1.5832,-1.5832,-1.5832,-1.5832,-1.5832,-1.5832,-1.5765,-1.5478,-1.519,-1.4897,-1.4596,-1.4208,-1.3854,-1.3687,-1.3547,-1.3414,-1.3247,-1.3213,-1.3173,-1.3039,0.0,0.0,-1.2585,-1.2559,-1.2545,-1.2492,-1.2385,-1.2345,-1.2472,-1.2378,-1.2305,-1.2305,-1.2305,-1.2305,-1.2305,-1.2037,0.0,0.0,0.0,-1.1096,-1.0755,-1.0902,0.0,0.0,0.0,-1.0681,-1.0624,0.0,0.0,0.0,-1.3134,-1.3942,0.0,0.0,0.0,0.0,0.0,0.0,0.0,0.0,0.0,0.0,0.0,0.0,0.0,0.0,0.0,0.0,0.4156,0.33,0.0643,0.0128,0.0,0.0,0.0,0.0,0.0,-0.1478,-0.2417,-0.2417,-0.5492,-0.7491,-0.7612,0.0,0.0,0.0,0.0,-1.0314,-1.0049,-1.0032,-0.9958,-0.9822,-0.9805,-0.9724,-0.9585,-0.9564,-0.9476,-0.9323,-0.9188,-0.912,-0.9093,-0.8967,-0.8893,-0.8852,-0.873,-0.9323,-1.0673,-1.2681,-1.368,0.0,0.0,0.0,0.0,-1.5832,-1.5832,-1.5832,-1.5832,-1.5805,-1.5718,-1.5431,-1.5137,-1.4843,-1.4549,-1.4062,-1.3552,-1.3519,-1.3367,-1.3146,-1.312,-1.3106,-1.3039,-1.2869,-1.2795,-1.2625,-1.2392,-1.2325,-1.2392,-1.2735,-1.2472,0.0,-1.2735,-1.2465,-1.2291,-1.2258,0.0,0.0,-1.2204,-1.1937,-1.1657,-1.1396,-1.1102,-1.0942,-1.0942,-1.0942,-1.0942,-1.0942,-1.0942,-1.0815,-1.0624,-1.1413,-1.2656,-1.422,-1.3478,-1.447,0.0,0.0,0.0,0.0,0.0,0.0,0.0,0.0,0.0,0.0,0.0,0.0,0.0,0.0,0.0,0.6158,0.4334,0.2701,0.221,0.0916,0.0,0.0,0.0,0.0,0.0,-0.0269,-0.0538,-0.0538,-0.255,-0.4268,-0.5537,-0.7376,-0.903,-1.0324,-1.0198,-1.0107,-1.0049,-0.9927,-0.9849,-0.9819,0.0,0.0,-0.9422,-0.9296,-0.9164,-0.9022,-0.8994,-0.891,-0.8794,-0.8767,-0.8615,-0.8408,-0.8492,-0.9253,-1.0289,-1.0663,-1.2129,-1.3974,-1.4166,-1.4949,-1.5832,-1.5832,-1.5832,-1.5832,-1.5832,-1.5665,0.0,-1.513,-1.4836,-1.4543,-1.4249,-1.3908,-1.3587,-1.3353,-1.306,-1.2766,-1.2525,-1.2478,-1.2532,-1.2788,-1.2552,-1.2445,-1.2701,-1.2458,-1.2318,-1.2378,-1.2338,-1.2325,-1.2378,-1.2338,-1.2211,-1.1977,-1.1951,-1.1857,-1.1617,-1.1329,-1.1136,-1.1082,-1.0808,-1.0705,-1.0705,-1.0705,-1.0705,-1.0705,-1.0705,-1.0678,-1.0624,-1.1413,-1.2469,-1.378,-1.459,-1.5951,0.0,0.0,0.0,0.0,0.0,0.0,0.0,0.0,0.0,0.0,0.0,1.0269,0.9327,0.0,0.8651,0.7324,0.6064,0.4585,0.2908,0.1982,0.1059,0.0134,0.0,0.0,0.0,0.0,0.0,0.0,-0.1717,-0.3012,-0.3899,-0.636,-0.8122,-0.8893,-0.9584,-1.0012,-0.9934,-0.9788,-0.9717,-0.9713,-0.9564,-0.9415,-0.9262,-0.9188,-0.9076,-0.894,-0.894,-0.8852,-0.8706,-0.8628,-0.8469,-0.8279,-0.8347,-0.8685,-0.913,-0.9735,-1.0872,-1.2134,-1.3488,-1.4364,-1.4949,-1.5629,-1.5832,-1.5798,-1.5658,-1.5511,-1.5337,-1.505,-1.475,-1.4449,-1.4162,-1.3754,-1.3187,-1.2412,-1.196,-1.179,-1.1577,-1.1658,-1.1916,-1.245,-1.2525,-1.2525,-1.2525,-1.2405,-1.2305,-1.2305,-1.2305,-1.2245,-1.2104,-1.2084,-1.1971,-1.1677,-1.165,-1.159,-1.1436,-1.1156,-1.0929,-1.0782,-1.0641,-1.0624,-1.0624,-1.0624,-1.0624,-1.0624,-1.0624,-1.0624,-1.0624,-1.1779,-1.2811,-1.3663,-1.5123,-1.6338,0.0,0.0,0.0,0.0,0.0,0.0,0.0,1.0667,1.1169,1.1513,1.2242,1.2376,1.1287,1.153,1.1043,0.852,0.7928,0.6718,0.3602,0.2912,0.1979,0.0267,0.0,0.0,0.0,0.0,0.0,0.0,-0.1297,-0.2313,-0.269,-0.5243,-0.6983,-0.7503,-0.8874,-0.9432,-0.929,-0.9546,-0.9235,-0.8722,-0.9172,-0.9141,-0.8765,-0.8997,-0.9015,-0.8849,-0.8821,-0.8737,-0.8615,-0.8459,-0.833,-0.8225,-0.8225,-0.815,-0.8137,-0.9217,-0.9805,-1.0293,-1.242,-1.3262,-1.3611,-1.4677,-1.5126,-1.523,-1.5002,-1.5081,-1.5177,-1.4943,-1.4623,-1.4295,-1.4062,-1.3398,-1.2504,-1.148,-1.0831,-1.0565,-1.0783,-1.0959,-1.1377,-1.2195,-1.2532,-1.2681,-1.2418,-1.2338,-1.2305,-1.2305,-1.2305,-1.2198,-1.1904,-1.187,-1.173,-1.1376,-1.1343,-1.1316,-1.1263,-1.1042,-1.0808,-1.0638,-1.0624,-1.0624,-1.0624,-1.0624,-1.0598,-1.0474,-1.0474,-1.06,-1.0718,-1.2242,-1.3205,-1.3743,-1.5242,-1.6221,0.7147,0.8376,0.9687,1.0353,1.0542,1.0756,0.0,1.2582,1.3304,1.2746,1.3892,1.4303,1.2055,1.2008,1.1687,1.0215,0.8711,0.722,0.5393,0.3682,0.1965,0.026,0.0,0.0,0.0,0.0,0.0,0.0,-0.0129,-0.0898,-0.2401,-0.2904,-0.438,-0.7383,-0.7625,-0.7694,-0.7703,-0.8894,-0.8225,-0.5407,-0.7976,-0.8417,-0.7054,-0.8288,-0.8804,-0.8526,-0.8401,-0.8336,-0.8306,-0.8153,-0.8079,-0.8065,-0.8065,-0.8055,-0.8041,-0.8137,-0.9019,-0.9998,-1.0288,-1.1139,-1.1931,-1.212,-1.2735,-1.3483,-1.3453,-1.4008,-1.4609,-1.4576,-1.4168,-1.3652,-1.3619,-1.2523,-1.1385,-1.1278,-1.0302,-0.9744,-1.0634,-1.0807,-1.1196,-1.2494,-1.2512,-1.2425,-1.2735,-1.2478,-1.2305,-1.2305,-1.2305,-1.2198,-1.1904,-1.187,-1.1657,-1.1102,-1.1042,-1.0935,-1.0681,-1.0628,-1.0658,-1.0624,-1.0624,-1.0624,-1.0624,-1.0624,-1.0434,-1.0174,-1.0167,-1.0518,-1.1212,-1.2169,-1.3135,-1.4156,-1.5058,-1.5937,0.7696,0.8564,0.9457,1.1155,1.1888,1.2501,1.3448,1.4353,1.5064,1.5032,1.5909,1.6174,1.4707,1.3913,1.3058,1.1842,1.031,0.8682,0.6866,0.5234,0.3406,0.1634,0.0624,0.0,0.0,0.0,0.0,0.0,0.0,-0.0251,-0.0996,-0.199,-0.3083,-0.4487,-0.6299,-0.6853,-0.5922,-0.7388,-0.6947,-0.4786,-0.5938,-0.6501,-0.6611,-0.7263,-0.7849,-0.8476,-0.8333,-0.8272,-0.8258,-0.8102,-0.8038,-0.8038,-0.8038,-0.8038,-0.8038,-0.8038,-0.8333,-0.8909,-0.9681,-1.0162,-1.074,-1.1361,-1.1902,-1.2171,-1.2029,-1.2187,-1.2487,-1.2186,-1.1949,-1.1634,-1.1427,-1.0796,-1.014,-0.9386,-0.8832,-0.8689,-0.9739,-0.9895,-1.0449,-1.2159,-1.2385,-1.2345,-1.2465,-1.2385,-1.2305,-1.2305,-1.2305,-1.2131,-1.167,-1.161,-1.139,-1.0802,-1.0742,-1.0695,-1.0631,-1.0624,-1.0624,-1.0624,-1.0624,-1.0624,-1.0624,-1.0394,-1.0241,-1.012,-1.0349,-1.0748,-1.1271,-1.258,-1.3429,-1.387,-1.4697,-1.5107,0.7407,0.8277,0.9325,1.0979,1.2406,1.3647,1.4479,1.5304,1.6092,1.66,1.7108,1.7164,1.6245,1.5478,1.4386,1.2802,1.1587,1.0119,0.7912,0.6487,0.5026,0.3302,0.157,0.0608,0.0631,0.0251,0.0,0.0,0.0,0.0,0.0,-0.1102,-0.207,-0.2527,-0.4644,-0.5291,-0.4284,-0.5575,-0.5369,-0.3415,-0.4136,-0.4714,-0.526,-0.6073,-0.7125,-0.8414,-0.8269,-0.8208,-0.8197,-0.8085,-0.8038,-0.8038,-0.8038,-0.8038,-0.8038,-0.8038,-0.8014,-0.8058,-0.8902,-0.9176,-0.9259,-1.0136,-1.0596,-1.078,-1.0475,-1.067,-1.085,-1.046,-1.0305,-1.0101,-0.9785,-0.9423,-0.8951,-0.8043,-0.7557,-0.7629,-0.8694,-0.902,-0.9644,-1.1432,-1.2032,-1.2158,-1.2078,-1.2131,-1.2151,-1.2071,-1.2058,-1.1904,-1.1483,-1.1283,-1.1022,-1.0665,-1.0624,-1.0624,-1.0624,-1.0624,-1.0591,-1.0441,-1.0441,-1.0401,-1.0321,-1.0288,-1.0244,-1.0162,-1.0615,-1.111,-1.1636,-1.2837,-1.3577,-1.3755,-1.4494,-1.4551,0.6103,0.7798,0.9756,0.9213,1.1227,1.3456,1.3891,1.5145,1.6346,1.6647,1.6947,1.6918,1.5855,1.6032,1.5284,1.2427,1.2406,1.1442,0.8051,0.7434,0.6712,0.4814,0.3201,0.213,0.2166,0.0845,0.0,0.0,0.0,0.0,0.0,0.0,-0.0844,-0.2406,-0.2568,-0.2619,-0.2575,-0.4068,-0.3245,-0.0214,-0.3083,-0.3683,-0.2276,-0.4871,-0.681,-0.8269,-0.8113,-0.8045,-0.8045,-0.8041,-0.8038,-0.8038,-0.8038,-0.8038,-0.8038,-0.8038,-0.7946,-0.7818,-0.7811,-0.7719,-0.7475,-0.7468,-0.8169,-0.896,-0.8849,-0.9541,-1.0413,-1.0274,-0.9972,-0.9718,-0.9708,-0.8773,-0.7863,-0.7783,-0.7022,-0.6641,-0.7633,-0.8375,-0.9171,-1.0269,-1.1222,-1.179,-1.1503,-1.169,-1.1784,-1.1496,-1.145,-1.145,-1.143,-1.0935,-1.0645,-1.0624,-1.0624,-1.0624,-1.0624,-1.0624,-1.0441,-1.0147,-1.0134,-1.0007,-0.9726,-1.0315,-1.0546,-1.029,-1.0963,-1.1657,-1.2438,-1.2923,-1.344,-1.4107,-1.459,-1.4551,0.501,0.5218,0.5717,0.6624,0.8344,1.0256,1.212,1.3823,1.5287,1.6196,1.6339,1.6196,1.6169,1.5499,1.4476,1.2758,1.2238,1.1394,0.9387,0.8057,0.7095,0.6391,0.4038,0.2382,0.2251,0.083,0.0,0.0,0.0,0.0,0.0,0.0,-0.0239,-0.0818,-0.1826,-0.1791,-0.0882,-0.2271,-0.202,0.0,-0.196,-0.2554,-0.2133,-0.4736,-0.6253,-0.6796,-0.7659,-0.8038,-0.8038,-0.8038,-0.8038,-0.8038,-0.8038,-0.7977,-0.7889,-0.7889,-0.7733,-0.7533,-0.7634,-0.7539,-0.7339,-0.7143,-0.7302,-0.7569,-0.7403,-0.7681,-0.7887,-0.7793,-0.7705,-0.7553,-0.7442,-0.7142,-0.6795,-0.6795,-0.6567,-0.6538,-0.7397,-0.776,-0.8398,-0.9902,-1.0441,-1.0842,-1.1306,-1.151,-1.1476,-1.1182,-1.1136,-1.1136,-1.1136,-1.0802,-1.0624,-1.0624,-1.0624,-1.0624,-1.0624,-1.0381,-1.0221,-1.0127,-0.9933,-0.9786,-0.9686,-0.9713,-0.9882,-1.0314,-1.0769,-1.149,-1.2507,-1.3062,-1.3503,-1.3721,-1.3867,-1.3711,0.3455,0.3011,0.2971,0.4116,0.5514,0.7279,0.9905,1.2061,1.3785,1.519,1.5507,1.5611,1.5905,1.5303,1.4317,1.274,1.2372,1.1731,0.987,0.8701,0.8028,0.8037,0.5223,0.3213,0.3079,0.1174,0.0,0.0,0.0,0.0,0.0,0.0,0.0,0.0,-0.0891,-0.0982,0.0,-0.0949,-0.0935,0.0,-0.0913,-0.1511,-0.2013,-0.382,-0.5125,-0.6029,-0.6933,-0.7537,-0.8038,-0.8038,-0.8007,-0.796,-0.796,-0.7868,-0.7736,-0.7736,-0.758,-0.7377,-0.7421,-0.7339,-0.7173,-0.6929,-0.6848,-0.6817,-0.6664,-0.662,-0.6586,-0.6437,-0.6396,-0.6376,-0.6285,-0.622,-0.6193,-0.6247,-0.6176,-0.6307,-0.6845,-0.7102,-0.7615,-0.8741,-0.9267,-0.9724,-1.052,-1.0916,-1.1056,-1.0868,-1.0835,-1.0835,-1.0835,-1.0739,-1.0624,-1.0624,-1.0461,-1.0401,-1.0401,-1.0134,-0.992,-0.9806,-0.9626,-0.9479,-0.9372,-0.9398,-0.976,-1.0447,-1.0937,-1.1657,-1.2665,-1.3224,-1.3428,-1.3281,-1.3437,-1.3281,0.155,0.1323,0.1444,0.1695,0.2924,0.4608,0.7213,0.9905,1.2141,1.3547,1.4438,1.497,1.5217,1.5545,1.491,1.2312,1.2631,1.2358,0.9816,0.9279,0.9293,0.9578,0.6756,0.4727,0.4676,0.1874,0.0,0.0,0.0,0.0,0.0,0.0,0.0,0.0,0.0,0.0,0.0,0.0,0.0,0.0,0.0,-0.0706,-0.1913,-0.2012,-0.3419,-0.5827,-0.5829,-0.6628,-0.7925,-0.7925,-0.7838,-0.7801,-0.7801,-0.7712,-0.7587,-0.758,-0.7482,-0.7326,-0.7163,-0.7027,-0.6902,-0.6742,-0.6688,-0.6658,-0.6498,-0.6447,-0.642,-0.6278,-0.6237,-0.6237,-0.6237,-0.6129,-0.6054,-0.6203,-0.6013,-0.584,-0.5976,-0.6414,-0.6869,-0.6924,-0.7798,-0.8676,-0.9245,-1.0047,-1.0624,-1.0624,-1.0624,-1.0624,-1.0624,-1.0624,-1.0624,-1.0624,-1.0294,-1.0114,-1.0114,-0.9833,-0.9539,-0.9203,-0.917,-0.9044,-0.8818,-0.9413,-1.0064,-1.0762,-1.1416,-1.2138,-1.2881,-1.3281,-1.3271,-1.2891,-1.3291,-1.3262,0.1451,0.0093,-0.105,-0.0857,0.0095,0.1784,0.4438,0.7636,1.0567,1.2326,1.3347,1.3868,1.3487,1.4389,1.4309,1.177,1.2573,1.2662,1.0017,0.9676,0.9639,0.9612,0.6767,0.4845,0.4686,0.1792,0.0,0.0,0.0,0.0,0.0,0.0,0.0,0.0,0.0,0.0,0.0,0.0,0.0,0.0,0.0,-0.0202,-0.0504,-0.1511,-0.2414,-0.3116,-0.4117,-0.518,-0.6393,-0.6393,-0.6906,-0.7655,-0.7655,-0.756,-0.7414,-0.7299,-0.7166,-0.7004,-0.6736,-0.6766,-0.6885,-0.6617,-0.6529,-0.6481,-0.622,-0.6142,-0.6112,-0.5959,-0.5918,-0.5918,-0.5918,-0.5964,-0.6019,-0.5908,-0.5933,-0.5929,-0.5718,-0.5849,-0.6298,-0.7485,-0.8961,-1.0117,-1.0251,-1.0434,-1.0624,-1.0624,-1.0624,-1.0624,-1.0624,-1.0624,-1.0624,-1.0624,-1.0294,-1.0114,-1.0114,-0.9646,-0.9263,-0.919,-0.9038,-0.8884,-0.8811,-0.8956,-0.9614,-1.0762,-1.0965,-1.1683,-1.2881,-1.2988,-1.2988,-1.2881,-1.2988,-1.2988,0.0,-0.1442,-0.2829,-0.2799,-0.2657,-0.167,0.1536,0.4665,0.7665,1.0293,1.1864,1.2743,1.3074,1.3928,1.3767,1.1392,1.2191,1.2317,0.9824,0.9585,0.9673,0.9788,0.6869,0.4913,0.4901,0.1928,0.0,0.0,0.0,0.0,0.0,0.0,0.0,0.0,0.0,0.0,0.0,0.0,0.0,0.0,0.0,0.0,0.0,-0.08,-0.1399,-0.2011,0.0,-0.4141,-0.5761,-0.5761,-0.6438,-0.7499,-0.7499,-0.7366,-0.7166,-0.7078,-0.6956,-0.6793,-0.6556,-0.6542,-0.6597,-0.6356,-0.6278,-0.6234,-0.6,-0.5928,-0.5911,-0.5827,-0.58,-0.58,-0.58,-0.5827,-0.5796,-0.5786,-0.5775,-0.5745,-0.5593,-0.5538,-0.5862,-0.7199,-0.8544,-0.9582,-0.9977,-1.0364,-1.0624,-1.0624,-1.0624,-1.0577,-1.0381,-1.0367,-1.0367,-1.0367,-0.9987,-0.9733,-0.9733,-0.9312,-0.9051,-0.9051,-0.8898,-0.8956,-0.9211,-0.9263,-0.9865,-1.1216,-1.1266,-1.1783,-1.2881,-1.2881,-1.2881,-1.2881,-1.2881,-1.2881,-0.1368,-0.2748,-0.3824,-0.3913,-0.4662,-0.4497,-0.0891,0.1908,0.4669,0.8081,1.0221,1.178,1.3,1.3665,1.3366,1.1415,1.1845,1.1705,0.9814,0.9442,0.9442,0.9598,0.6808,0.4813,0.474,0.1924,0.0,0.0,0.0,0.0,0.0,0.0,0.0,0.0,0.0,0.0,0.0,0.0,0.0,0.0,0.0,0.0,0.0,0.0,-0.0591,-0.1698,0.0,0.0,-0.5331,-0.5427,-0.6153,-0.7128,-0.7312,-0.7143,-0.6895,-0.6875,-0.6783,-0.6647,-0.6474,-0.6332,-0.6207,-0.6074,-0.6017,-0.5973,-0.582,-0.5772,-0.5769,-0.5749,-0.5742,-0.5742,-0.5742,-0.565,-0.5589,-0.5715,-0.5549,-0.5393,-0.5504,-0.5543,-0.5759,-0.6485,-0.744,-0.8324,-0.9105,-0.9932,-1.0504,-1.0504,-1.0504,-1.0354,-1.0094,-1.0094,-1.01,-1.006,-0.9508,-0.9183,-0.9183,-0.8971,-0.8804,-0.8804,-0.8804,-0.9113,-0.9762,-0.9814,-1.0415,-1.1765,-1.1814,-1.2187,-1.2881,-1.2881,-1.2881,-1.2881,-1.2881,-1.2881,0.0,-0.2103,-0.3983,-0.3828,-0.4035,-0.3627,-0.1138,0.2231,0.5371,0.7246,0.9561,1.1165,1.0965,1.2459,1.3464,1.271,1.2428,1.2009,1.1376,1.0366,0.9158,0.7989,0.6149,0.4409,0.3032,0.1177,0.0,0.0,0.0,0.0,0.0,0.0,0.0,0.0,0.0,0.0,0.0,0.0,0.0,0.0,0.0,0.0,0.0,0.0,-0.0096,-0.0385,-0.0384,0.0,-0.261,-0.3537,-0.454,-0.5594,-0.6567,-0.6898,-0.6725,-0.66,-0.6536,-0.6474,-0.62,-0.6091,-0.6064,-0.6037,-0.5942,-0.5813,-0.5671,-0.5627,-0.5599,-0.5474,-0.5437,-0.5437,-0.5437,-0.542,-0.5473,-0.5433,-0.5466,-0.5332,-0.523,-0.5653,-0.6125,-0.6404,-0.7537,-0.8562,-0.8687,-0.9354,-0.984,-0.984,-0.984,-0.982,-0.9766,-0.9967,-1.0027,-0.9786,-0.9446,-0.9183,-0.9183,-0.8971,-0.8804,-0.8804,-0.8804,-0.9113,-0.9762,-0.9814,-1.0415,-1.1765,-1.1814,-1.2187,-1.2881,-1.2881,-1.2881,-1.2881,-1.2881,-1.2881,0.03,-0.1407,-0.331,-0.4571,-0.4463,-0.3537,-0.2065,0.0752,0.373,0.612,0.8069,0.9583,1.0663,1.1811,1.2431,1.1787,1.1647,1.1378,1.0241,0.9674,0.9245,0.8678,0.7069,0.5464,0.4011,0.2214,0.0791,0.0112,0.0,0.0,0.0,0.0,0.0,0.0,0.0,0.0,0.0,0.0,0.0,0.0,0.0,0.0,0.0,0.0,0.0,0.0,0.0,0.0,-0.1847,-0.2398,-0.3328,-0.4413,-0.5537,-0.5849,-0.5828,-0.6255,-0.6312,-0.621,-0.5986,-0.5864,-0.58,-0.58,-0.5752,-0.5664,-0.5515,-0.5471,-0.5457,-0.5449,-0.5428,-0.5428,-0.5428,-0.5428,-0.5428,-0.5428,-0.5298,-0.522,-0.5145,-0.5323,-0.5654,-0.6223,-0.719,-0.8069,-0.8551,-0.9207,-0.9686,-0.9686,-0.9686,-0.9626,-0.9472,-0.9573,-0.9606,-0.9466,-0.9192,-0.9018,-0.9018,-0.8884,-0.8804,-0.8804,-0.9113,-0.9614,-1.0312,-1.0661,-1.1325,-1.2344,-1.2344,-1.2559,-1.2881,-1.2881,-1.2881,-1.2881,-1.2881,-1.2881,0.0799,-0.0803,-0.2515,-0.4622,-0.4298,-0.3255,-0.2482,-0.033,0.2309,0.5126,0.6702,0.8178,1.0169,1.1117,1.1341,1.0564,1.0885,1.0679,0.9124,0.9057,0.9026,0.8705,0.772,0.6244,0.4213,0.2871,0.1553,0.011,0.0,0.0,0.0,0.0,0.0,0.0,0.0,0.0,0.0,0.0,0.0,0.0,0.0,0.0,0.0,0.0,0.0,0.0,0.0,0.0,0.0,-0.1731,-0.2488,-0.3587,-0.4605,-0.5064,-0.5252,-0.5941,-0.6115,-0.5959,-0.581,-0.5684,-0.5586,-0.5552,-0.5542,-0.5518,-0.5466,-0.5428,-0.5428,-0.5428,-0.5428,-0.5422,-0.5321,-0.5311,-0.5304,-0.5274,-0.5148,-0.5047,-0.5077,-0.4945,-0.5065,-0.5922,-0.6655,-0.7444,-0.8265,-0.9029,-0.9499,-0.9499,-0.9499,-0.9412,-0.9123,-0.909,-0.909,-0.909,-0.8945,-0.8804,-0.8804,-0.8804,-0.8804,-0.8804,-0.9309,-0.9961,-1.0771,-1.1316,-1.1981,-1.2881,-1.2881,-1.2881,-1.2881,-1.2881,-1.2881,-1.2881,-1.2881,-1.2881,0.2101,-0.0101,-0.2013,-0.2314,-0.2251,-0.1965,-0.105,0.1101,0.3292,0.4545,0.6433,0.7893,0.8243,0.9948,1.1078,1.0658,1.0614,1.0627,1.0514,0.9608,0.8048,0.5512,0.6309,0.5312,0.0908,0.1552,0.1621,0.0105,0.0,0.0,0.0,0.0,0.0,0.0,0.0,0.0,0.0,0.0,0.0,0.0,0.0,0.0,0.0,0.0,0.0,0.0,0.0,0.0,0.0,-0.1309,-0.2293,-0.3256,-0.448,-0.5305,-0.5917,-0.5979,-0.5956,-0.58,-0.5657,-0.5599,-0.5566,-0.543,-0.5449,-0.5446,-0.5432,-0.5428,-0.5428,-0.5428,-0.5428,-0.5328,-0.5186,-0.5152,-0.5121,-0.4989,-0.4843,-0.4769,-0.4908,-0.4711,-0.4822,-0.5649,-0.6281,-0.6921,-0.7632,-0.8391,-0.8884,-0.8884,-0.8884,-0.8878,-0.8851,-0.8844,-0.8844,-0.8844,-0.8824,-0.8804,-0.8804,-0.8804,-0.8804,-0.8804,-0.8857,-0.9465,-1.0771,-1.0864,-1.1534,-1.2881,-1.2881,-1.2881,-1.2881,-1.2881,-1.2881,-1.2881,-1.2881,-1.2881,0.3128,0.1197,-0.1008,-0.1812,-0.1348,-0.0819,-0.0698,0.1247,0.3436,0.447,0.5854,0.715,0.7857,0.8677,0.9163,0.8974,0.9073,0.9035,0.8625,0.8403,0.7593,0.6017,0.6432,0.5418,0.1903,0.1947,0.1571,0.0102,0.0,0.0,0.0,0.0,0.0,0.0,0.0,0.0,0.0,0.0,0.0,0.0,0.0,0.0,0.0,0.0,0.0,0.0,0.0,0.0,0.0,-0.1191,-0.1821,-0.2221,-0.3963,-0.4772,-0.5003,-0.5578,-0.5367,-0.4871,-0.5365,-0.511,-0.4678,-0.5071,-0.5223,-0.5223,-0.5223,-0.5223,-0.5206,-0.5118,-0.5098,-0.5081,-0.502,-0.5003,-0.4989,-0.4931,-0.4802,-0.4707,-0.4769,-0.4613,-0.4698,-0.5477,-0.6151,-0.6858,-0.7557,-0.8315,-0.8804,-0.8804,-0.8804,-0.8804,-0.8804,-0.8804,-0.8804,-0.8804,-0.8804,-0.8804,-0.8804,-0.8804,-0.8804,-0.8804,-0.9159,-0.9814,-1.0762,-1.1166,-1.1882,-1.2881,-1.2881,-1.2881,-1.2881,-1.2881,-1.2881,-1.2881,-1.2881,-1.2881,0.3668,0.2148,0.02,-0.1099,-0.0664,-0.0089,-0.0439,0.1156,0.2981,0.4137,0.5132,0.623,0.7373,0.7848,0.7911,0.7431,0.7897,0.8018,0.719,0.7189,0.7045,0.6389,0.6246,0.5092,0.2621,0.1896,0.1125,0.0101,0.0,0.0,0.0,0.0,0.0,0.0,0.0,0.0,0.0,0.0,0.0,0.0,0.0,0.0,0.0,0.0,0.0,0.0,0.0,0.0,0.0,-0.0826,-0.1206,-0.1549,-0.3299,-0.395,-0.3937,-0.5136,-0.4792,-0.3844,-0.4674,-0.4364,-0.3748,-0.4475,-0.4687,-0.4741,-0.4951,-0.5033,-0.5047,-0.4948,-0.4887,-0.4853,-0.4853,-0.4816,-0.4782,-0.4782,-0.4701,-0.4623,-0.4623,-0.4703,-0.5003,-0.571,-0.6421,-0.7182,-0.7889,-0.848,-0.8804,-0.8804,-0.8804,-0.8804,-0.8804,-0.8804,-0.8804,-0.8804,-0.8804,-0.8804,-0.8804,-0.8804,-0.891,-0.9061,-0.9562,-1.0167,-1.1065,-1.1566,-1.2129,-1.2881,-1.2881,-1.2881,-1.2881,-1.2881,-1.2881,-1.2881,-1.2881,-1.2881,0.3558,0.2528,0.1471,0.0295,0.0,0.0,0.0,0.0839,0.1985,0.3319,0.4199,0.5151,0.6476,0.7539,0.7762,0.6514,0.7682,0.8329,0.7291,0.6507,0.5969,0.5982,0.5252,0.4008,0.2178,0.0816,0.0,0.0,0.0,0.0,0.0,0.0,0.0,0.0,0.0,0.0,0.0,0.0,0.0,0.0,0.0,0.0,0.0,0.0,0.0,0.0,0.0,0.0,0.0,0.0,-0.0619,-0.1659,-0.257,-0.2931,-0.3142,-0.4957,-0.439,-0.2867,-0.3692,-0.3462,-0.281,-0.3599,-0.3811,-0.3914,-0.4503,-0.4802,-0.4921,-0.4918,-0.4809,-0.4694,-0.4694,-0.4579,-0.4522,-0.4522,-0.4522,-0.4519,-0.4519,-0.5003,-0.5706,-0.6421,-0.7182,-0.7937,-0.8646,-0.8804,-0.8804,-0.8804,-0.8804,-0.8804,-0.8804,-0.8804,-0.8804,-0.8804,-0.8804,-0.8804,-0.8804,-0.8804,-0.9061,-0.9762,-0.9814,-1.0415,-1.1715,-1.1814,-1.2129,-1.2881,-1.2881,-1.2881,-1.2881,-1.2881,-1.2881,-1.2881,-1.2881,-1.2881,0.3372,0.2285,0.1179,0.0276,0.0,0.0,0.0,0.081,0.1712,0.2235,0.3681,0.4932,0.5416,0.6485,0.7109,0.6527,0.7026,0.71,0.593,0.5681,0.5277,0.4559,0.3478,0.2589,0.2034,0.081,0.0402,0.1286,0.0495,0.0,0.0,0.0,0.0,0.0,0.0,0.0,0.0,0.0,0.0342,0.1103,0.1095,0.1091,0.109,0.1058,0.0729,0.0,0.0,0.0,0.0,-0.0829,-0.1248,-0.1501,-0.2502,-0.2838,-0.2827,-0.3421,-0.2804,-0.1894,-0.2814,-0.2492,-0.1985,-0.3246,-0.369,-0.3786,-0.4352,-0.4643,-0.4741,-0.4636,-0.4572,-0.4591,-0.4591,-0.4556,-0.4519,-0.4519,-0.4519,-0.4625,-0.5109,-0.5324,-0.5869,-0.7128,-0.7557,-0.7943,-0.8699,-0.8804,-0.8804,-0.8804,-0.8804,-0.8804,-0.8804,-0.8804,-0.8804,-0.8804,-0.8804,-0.8804,-0.8804,-0.8804,-0.9113,-0.9762,-0.9814,-1.0415,-1.1765,-1.1814,-1.2129,-1.2881,-1.2881,-1.2881,-1.2881,-1.2881,-1.2881,-1.2881,-1.2881,-1.2881,0.3655,0.3073,0.2234,0.0873,0.0503,0.0405,0.0084,0.0478,0.1154,0.1717,0.2762,0.3784,0.4201,0.4934,0.5435,0.5281,0.5379,0.5295,0.4548,0.4178,0.3586,0.2535,0.2598,0.2314,0.1383,0.0888,0.0882,0.1247,0.0483,0.0,0.0,0.036,0.0621,0.0607,0.0611,0.0605,0.0588,0.1,0.1485,0.2125,0.2106,0.2087,0.1987,0.1622,0.1153,0.0,0.0,0.0,0.0,-0.0715,-0.0904,-0.088,-0.1904,-0.2055,-0.1765,-0.2475,-0.1907,-0.0923,-0.1882,-0.1572,-0.1024,-0.2269,-0.3049,-0.361,-0.3984,-0.4356,-0.4585,-0.4543,-0.4519,-0.4519,-0.4519,-0.4519,-0.4519,-0.4519,-0.4519,-0.4625,-0.5058,-0.5324,-0.5869,-0.7069,-0.7503,-0.7943,-0.8699,-0.8804,-0.8804,-0.8804,-0.8804,-0.8804,-0.8804,-0.8804,-0.8804,-0.8804,-0.8804,-0.891,-0.9159,-0.8962,-0.9211,-1.0115,-1.0167,-1.0771,-1.2138,-1.2236,-1.2452,-1.2881,-1.2881,-1.2881,-1.2881,-1.2881,-1.2881,-1.2881,-1.2881,-1.2881,0.0,0.4434,0.4159,0.2003,0.1376,0.111,0.0332,0.008,0.0,0.1445,0.1674,0.1898,0.2991,0.3169,0.317,0.3089,0.3295,0.3328,0.3218,0.2509,0.1536,0.0293,0.2347,0.2911,0.0476,0.114,0.1225,0.0185,0.0,0.0,0.0087,0.1055,0.1639,0.17,0.1727,0.1746,0.1668,0.2608,0.3028,0.3042,0.2969,0.2898,0.2758,0.1885,0.1451,0.0,0.0,0.0,0.0,0.0,0.0,-0.0064,-0.087,-0.0737,-0.0184,-0.1897,-0.1468,-0.0122,-0.0947,-0.0704,-0.0117,-0.0847,-0.212,-0.3345,-0.34,-0.3901,-0.4519,-0.4519,-0.4519,-0.4519,-0.4519,-0.4519,-0.4519,-0.4519,-0.4519,-0.4519,-0.457,-0.5054,-0.576,-0.6529,-0.7235,-0.7943,-0.8699,-0.8804,-0.8804,-0.8804,-0.8804,-0.8798,-0.8778,-0.8791,-0.8798,-0.8778,-0.8798,-0.9061,-0.9666,-0.9211,-0.9465,-1.0762,-1.0864,-1.1484,-1.2822,-1.2881,-1.2881,-1.2881,-1.2881,-1.2881,-1.2881,-1.2881,-1.2929,-1.2968,-1.2968,-1.2968,0.4232,0.0,0.4267,0.3005,0.2131,0.1493,0.0,0.0551,0.0079,0.0404,0.1131,0.178,0.1987,0.2782,0.3411,0.324,0.3446,0.3184,0.2289,0.2939,0.2905,0.1439,0.2812,0.3665,0.2794,0.1301,0.0739,0.1446,0.0,0.0348,0.1159,0.1305,0.1753,0.2537,0.3257,0.3293,0.2779,0.2873,0.3364,0.41,0.4001,0.3869,0.3844,0.3626,0.2706,0.0,0.0,0.0,0.0,0.0,0.0,0.0,-0.0241,-0.0179,-0.0059,-0.0463,-0.0344,-0.0057,-0.0227,-0.017,-0.0113,-0.0841,-0.173,-0.2565,-0.3176,-0.3901,-0.4519,-0.4519,-0.4519,-0.4519,-0.4519,-0.4519,-0.4519,-0.4519,-0.4519,-0.4625,-0.5164,-0.5378,-0.5869,-0.7182,-0.7563,-0.7943,-0.8699,-0.8804,-0.8804,-0.8804,-0.8804,-0.8731,-0.8504,-0.8671,-0.8717,-0.8504,-0.8671,-0.8857,-0.9008,-0.9361,-1.0167,-1.1466,-1.1566,-1.1981,-1.2871,-1.2881,-1.2881,-1.2881,-1.2881,-1.2881,-1.2881,-1.2881,-1.3152,-1.36,-1.36,-1.3826,0.3753,0.4594,0.4917,0.3428,0.2659,0.2041,0.1113,0.0396,0.0,0.0,0.048,0.0965,0.0905,0.1443,0.1915,0.1846,0.1913,0.1679,0.111,0.1693,0.2095,0.1808,0.3021,0.355,0.0,0.2537,0.2213,0.0,0.0,0.1569,0.2126,0.2481,0.2892,0.3487,0.4458,0.4483,0.3626,0.4024,0.4491,0.502,0.4882,0.4818,0.4758,0.4217,0.3452,0.0,0.0,0.0,0.0506,0.0489,0.0299,0.0,0.0,0.0,0.0,0.0,0.0,0.0,0.0,0.0,-0.0056,-0.0448,-0.1118,-0.1786,-0.2174,-0.2843,-0.3566,-0.4294,-0.4519,-0.4519,-0.4519,-0.4519,-0.4519,-0.4519,-0.4519,-0.4625,-0.4948,-0.5058,-0.5382,-0.6465,-0.6686,-0.7009,-0.8103,-0.8321,-0.8427,-0.8752,-0.8697,-0.8604,-0.8577,-0.8597,-0.8597,-0.8577,-0.8711,-0.9061,-0.9666,-1.0064,-1.0568,-1.1316,-1.1616,-1.2129,-1.2881,-1.2881,-1.2881,-1.2881,-1.2881,-1.2881,-1.2881,-1.2881,-1.3065,-1.3372,-1.3684,-1.3826,0.3088,0.4621,0.5683,0.3682,0.3144,0.2616,0.0726,0.008,0.0,0.0,0.0,0.0,0.0,0.0,0.0,0.0,0.0,-0.0095,-0.0282,0.0093,0.0749,0.208,0.3018,0.0,0.2546,0.3847,0.3944,0.0,0.0,0.2974,0.3081,0.381,0.4201,0.438,0.5213,0.5262,0.4325,0.5284,0.5674,0.5555,0.5508,0.542,0.5291,0.4379,0.3885,0.0,0.0,0.0,0.1115,0.111,0.0689,0.0,0.0,0.0,0.0,0.0,0.0,0.0,0.0,0.0,0.0,0.0,-0.0448,-0.095,-0.1062,-0.1563,-0.2343,-0.3735,-0.4236,-0.4349,-0.446,-0.4501,-0.4436,-0.4512,-0.4501,-0.4491,-0.4512,-0.4519,-0.4677,-0.5378,-0.5597,-0.6077,-0.7399,-0.7753,-0.8084,-0.8639,-0.853,-0.8444,-0.8644,-0.8497,-0.845,-0.8651,-0.8856,-0.9413,-1.0559,-1.0813,-1.0965,-1.0965,-1.1566,-1.2236,-1.2881,-1.2881,-1.2881,-1.2881,-1.2881,-1.2881,-1.2881,-1.2968,-1.3055,-1.32,-1.3779,-1.3873,0.2864,0.4279,0.5336,0.4577,0.3865,0.2958,0.1668,0.0639,0.0,0.0,0.0,0.0,0.0,0.0,0.0,0.0,0.0,-0.0385,-0.1485,0.0294,0.2014,0.2971,0.0,0.3791,0.4437,0.3678,0.0,0.0,0.0,0.3092,0.3944,0.4004,0.4394,0.5161,0.5235,0.5047,0.4803,0.5239,0.5416,0.5459,0.5142,0.5009,0.4986,0.4778,0.4329,0.0,0.0,0.2532,0.1113,0.1083,0.0674,0.0,0.0,0.0,0.0,0.0,0.0,0.0,0.0,0.0,0.0,0.0,-0.0056,-0.028,-0.0895,-0.1174,-0.1452,-0.2286,-0.301,-0.3622,-0.4349,-0.4372,-0.4311,-0.4433,-0.4368,-0.4314,-0.4491,-0.4519,-0.4677,-0.5378,-0.5982,-0.663,-0.7229,-0.8059,-0.8613,-0.8477,-0.8404,-0.8303,-0.809,-0.825,-0.8297,-0.809,-0.8997,-0.9718,-0.9909,-1.1015,-1.1665,-1.1665,-1.2353,-1.2774,-1.2881,-1.2881,-1.2881,-1.2881,-1.2881,-1.2881,-1.2881,-1.342,-1.392,-1.4433,-1.505,-1.5555,0.2837,0.4057,0.5087,0.4942,0.4236,0.3075,0.1208,0.0344,0.0,0.0,0.0,0.0,0.0,0.0,-0.0267,-0.0948,-0.1059,-0.1255,-0.1925,-0.0284,0.1571,0.0,0.0,0.3852,0.4946,0.0,0.0,0.0,0.0,0.0,0.4804,0.4675,0.4742,0.5128,0.5053,0.4986,0.4918,0.4972,0.504,0.5121,0.4986,0.4918,0.4914,0.4833,0.4555,0.4186,0.0,0.3424,0.2336,0.1853,0.1285,0.056,0.0168,0.0,0.0,0.0,0.0,0.0,0.0,0.0,0.0,0.0,0.0,-0.0054,-0.0381,-0.0484,-0.0635,-0.1375,-0.2441,-0.3385,-0.3655,-0.4028,-0.4338,-0.4246,-0.4236,-0.4214,-0.4331,-0.4345,-0.4452,-0.4713,-0.5087,-0.5558,-0.6473,-0.6974,-0.7472,-0.8052,-0.7989,-0.7896,-0.7882,-0.7903,-0.8004,-0.815,-0.904,-0.9703,-0.9995,-1.1096,-1.1972,-1.2344,-1.2715,-1.2881,-1.2881,-1.2881,-1.2881,-1.2881,-1.2881,-1.2881,-1.2881,-1.3505,-1.3956,-1.4236,-1.5186,-1.5555,0.2436,0.344,0.4268,0.455,0.4346,0.3435,0.1007,0.0452,0.0267,0.0088,0.0,0.0,0.0,0.0,-0.0547,-0.2134,-0.1943,-0.1722,-0.2333,-0.1002,0.0892,0.3236,0.3377,0.3792,0.0,0.0,0.0,0.0,0.0,0.0,0.5315,0.5162,0.5013,0.487,0.4867,0.485,0.4813,0.4697,0.4714,0.4863,0.483,0.4813,0.4809,0.4691,0.4636,0.4629,0.457,0.407,0.3345,0.2732,0.1953,0.1062,0.0504,0.0167,0.0,0.0,0.0,0.0,0.0,0.0,0.0,0.0,0.0,0.0,0.0,0.0,-0.0101,-0.0706,-0.1885,-0.303,-0.3061,-0.3612,-0.4098,-0.4013,-0.403,-0.41,-0.4133,-0.4143,-0.4143,-0.4143,-0.4296,-0.47,-0.5698,-0.609,-0.6588,-0.7641,-0.7622,-0.7548,-0.7789,-0.7615,-0.7734,-0.8304,-0.9033,-0.9731,-1.0493,-1.1277,-1.1996,-1.2568,-1.2666,-1.2725,-1.2725,-1.2725,-1.2725,-1.2725,-1.2832,-1.2881,-1.2881,-1.3647,-1.4003,-1.405,-1.5231,-1.5555,0.1439,0.1962,0.2372,0.3063,0.4034,0.4265,0.2311,0.1677,0.1223,0.0179,0.0,0.0,0.0,0.0,-0.079,-0.323,-0.1649,-0.0933,-0.3309,0.0,0.0807,0.3035,0.3069,0.3773,0.0,0.0,0.0,0.0,0.0,0.0,0.5148,0.5013,0.4863,0.4711,0.4707,0.464,0.4553,0.4539,0.4555,0.4704,0.4562,0.4553,0.4549,0.4539,0.4532,0.4532,0.4522,0.407,0.34,0.3345,0.2454,0.1118,0.1062,0.0604,0.0,0.0,0.0,0.0,0.0,0.0,0.0,0.0,0.0,0.0,0.0,0.0,0.0,-0.0051,-0.1063,-0.223,-0.2928,-0.3053,-0.3192,-0.384,-0.3921,-0.3863,-0.4005,-0.4036,-0.4036,-0.4036,-0.4576,-0.5149,-0.5474,-0.636,-0.7156,-0.7497,-0.7527,-0.752,-0.754,-0.7527,-0.7705,-0.8246,-0.914,-1.0191,-1.1426,-1.1587,-1.165,-1.1704,-1.2051,-1.2229,-1.2229,-1.2229,-1.2229,-1.2229,-1.2676,-1.2881,-1.2881,-1.4061,-1.4652,-1.4652,-1.5876,-1.6423,0.1335,0.1695,0.2167,0.3887,0.4097,0.3441,0.21,0.1665,0.1291,0.0186,0.0,-0.0185,-0.0891,-0.2324,-0.3792,-0.4639,-0.3391,-0.2667,-0.3658,-0.1071,0.1471,0.2902,0.3516,0.0,0.0,0.0,0.0,0.0,0.0,0.0,0.486,0.4806,0.4707,0.4555,0.4548,0.4577,0.4519,0.4519,0.4546,0.4548,0.4546,0.4519,0.4519,0.4519,0.4519,0.4519,0.4519,0.4349,0.407,0.3566,0.2788,0.1671,0.0765,0.0269,0.0,0.0,0.0,0.0,0.0,0.0,0.0,0.0,0.0,0.0,0.0,0.0,0.0,0.0,-0.0376,-0.0991,-0.2025,-0.2929,-0.361,-0.3728,-0.3771,-0.3809,-0.3866,-0.3877,-0.3877,-0.3877,-0.4399,-0.4952,-0.5291,-0.6046,-0.6704,-0.7121,-0.7188,-0.7188,-0.7188,-0.7188,-0.7348,-0.776,-0.8712,-0.9943,-1.149,-1.1309,-1.127,-1.1587,-1.1719,-1.1816,-1.1816,-1.1816,-1.1943,-1.218,-1.2393,-1.2607,-1.2881,-1.3742,-1.4143,-1.4143,-1.4971,-1.5389,0.0773,0.0877,0.1143,0.3405,0.3299,0.2412,0.1739,0.1587,0.1315,0.0192,0.0,-0.0371,-0.144,-0.3115,-0.4431,-0.4696,-0.3831,-0.3108,-0.3129,-0.051,0.1812,0.2804,0.0,0.0,0.0,0.0,0.0,0.0,0.0,0.0,0.0,0.4646,0.4572,0.4522,0.4519,0.4519,0.4519,0.4519,0.4494,0.4395,0.4606,0.4631,0.4515,0.4416,0.4419,0.4515,0.4412,0.4395,0.4389,0.3797,0.3023,0.1995,0.0792,0.0156,0.0,0.0,0.0,0.0,0.0,0.0,0.0,0.0,0.0,0.0,0.0,0.0,0.0,0.0,-0.0135,-0.0496,-0.1296,-0.2422,-0.3348,-0.3536,-0.3653,-0.3724,-0.3724,-0.3724,-0.3724,-0.3724,-0.4226,-0.4767,-0.5203,-0.5787,-0.6392,-0.6937,-0.6979,-0.6979,-0.6979,-0.7147,-0.7525,-0.8068,-0.8946,-0.9942,-1.1091,-1.0879,-1.084,-1.1175,-1.1204,-1.1263,-1.139,-1.14,-1.1494,-1.1762,-1.2044,-1.2383,-1.2676,-1.3289,-1.3594,-1.3594,-1.4082,-1.4283,-0.0289,-0.0741,-0.1063,0.109,0.1596,0.157,0.1587,0.161,0.1276,0.0194,0.0,-0.0359,-0.1432,-0.1614,-0.1948,-0.3157,-0.2311,-0.1662,-0.1787,0.0,0.1705,0.2797,0.0,0.0,0.0,0.0,0.0,0.0,0.0,0.0,0.0,0.4601,0.4519,0.4519,0.4519,0.4519,0.4519,0.4515,0.4389,0.4246,0.4804,0.4888,0.4508,0.4311,0.4324,0.4508,0.4311,0.4197,0.4184,0.4033,0.3216,0.1912,0.1208,0.0542,0.0,0.0,0.0,0.0,0.0,0.0,0.0,0.0,0.0,0.0,0.0,0.0,0.0,0.0,-0.0448,-0.0895,-0.0895,-0.134,-0.2097,-0.3309,-0.3581,-0.3581,-0.3581,-0.3581,-0.3581,-0.3581,-0.4052,-0.4609,-0.5216,-0.5787,-0.6392,-0.6937,-0.6979,-0.6979,-0.7021,-0.753,-0.8316,-0.9399,-0.9961,-1.0283,-1.0283,-1.0283,-1.0283,-1.0283,-1.0283,-1.0469,-1.0889,-1.0898,-1.0908,-1.0908,-1.1768,-1.2171,-1.218,-1.2771,-1.311,-1.3099,-1.3286,-1.3406,-0.0069,-0.0214,-0.0148,0.1262,0.1632,0.1965,0.2628,0.2162,0.1331,0.0186,-0.0642,-0.1338,-0.158,-0.2411,-0.3112,-0.3255,-0.2412,-0.1756,-0.1822,0.0526,0.2363,0.0,0.0,0.0,0.0,0.0,0.0,0.0,0.0,0.0,0.0,0.569,0.5991,0.5991,0.5991,0.5991,0.5991,0.537,0.5222,0.5625,0.5054,0.4591,0.4148,0.4509,0.4529,0.4307,0.4214,0.4197,0.4131,0.3521,0.3013,0.2507,0.1369,0.077,0.057,0.0139,0.0,0.0,0.0,0.0,0.0,0.0,0.0,0.0,0.0,0.0,0.0,0.0,-0.0135,-0.0359,-0.0806,-0.1029,-0.1474,-0.2677,-0.3306,-0.3581,-0.3581,-0.3581,-0.3581,-0.3581,-0.4052,-0.4609,-0.5216,-0.5437,-0.591,-0.6852,-0.6683,-0.6732,-0.7538,-0.7787,-0.8316,-0.9399,-0.9637,-0.9883,-1.0283,-1.0283,-1.0283,-1.0283,-1.0283,-1.0342,-1.0459,-1.0469,-1.0605,-1.0898,-1.1162,-1.1455,-1.1758,-1.1969,-1.2213,-1.255,-1.2584,-1.2776,-0.0696,-0.0859,-0.0814,0.0597,0.1325,0.1872,0.2474,0.2134,0.133,0.0276,-0.0539,-0.1215,-0.1527,-0.2248,0.0,-0.2657,-0.2133,-0.1495,-0.074,0.1264,0.2676,0.0,0.0,0.0,0.0,0.0,0.0,0.0,0.0,0.0,0.0,0.6367,0.6588,0.6588,0.6588,0.6543,0.6453,0.5901,0.5756,0.5932,0.5528,0.506,0.4546,0.4714,0.4701,0.4459,0.4444,0.4232,0.3926,0.363,0.3209,0.2728,0.1917,0.1484,0.1204,0.0588,0.0359,0.0314,0.009,0.0,0.0,0.0,0.0,0.0,0.0,0.0,0.0,0.0,0.0,-0.009,-0.0448,-0.0716,-0.1207,-0.2406,-0.2987,-0.3306,-0.3534,-0.3581,-0.3581,-0.3581,-0.4224,-0.4865,-0.5216,-0.548,-0.5953,-0.6852,-0.6725,-0.6859,-0.7787,-0.8077,-0.8561,-0.9399,-0.9677,-0.9883,-0.9961,-1.0,-1.0,-1.0,-1.0,-1.0079,-1.0283,-1.0283,-1.04,-1.0654,-1.082,-1.1035,-1.1299,-1.1299,-1.1586,-1.2079,-1.1891,-1.2172,-0.1799,-0.2136,-0.2335,-0.0463,0.0953,0.1868,0.1872,0.1956,0.1691,0.0273,0.0,-0.0333,-0.1298,-0.148,-0.1423,-0.1456,-0.1417,-0.0759,0.0874,0.1953,0.0,0.0,0.0,0.0,0.0,0.0,0.0,0.0,0.0,0.0,0.0,0.675,0.6804,0.6804,0.6784,0.667,0.6396,0.6304,0.6031,0.0,0.6163,0.608,0.5443,0.5024,0.4892,0.4971,0.4845,0.4401,0.3817,0.4228,0.3774,0.2849,0.276,0.2361,0.183,0.1207,0.0984,0.0895,0.0359,0.018,0.0135,0.009,0.009,0.0089,0.0,0.0,0.0,0.0,0.0,0.0,0.0,-0.04,-0.1112,-0.226,-0.262,-0.2854,-0.3398,-0.3578,-0.3581,-0.3581,-0.4487,-0.5216,-0.5303,-0.5744,-0.6307,-0.6852,-0.6979,-0.7238,-0.7829,-0.8316,-0.8837,-0.9359,-0.9922,-1.0,-0.9478,-0.9518,-0.9558,-0.9518,-0.9558,-0.9795,-1.0283,-1.0283,-1.0283,-1.0283,-1.0654,-1.085,-1.085,-1.0891,-1.1166,-1.1688,-1.1333,-1.1714,-0.1618,-0.1627,-0.1365,-0.03,0.2116,0.4151,0.4227,0.4091,0.3308,0.0569,0.0,-0.0081,-0.031,-0.0381,-0.0373,-0.0356,0.0138,0.0671,0.1044,0.2293,0.0,0.0,0.0,0.0,0.0,0.0,0.0,0.0,0.0,0.0,0.745,0.799,0.8321,0.8321,0.8113,0.7968,0.7904,0.6978,0.6712,0.0,0.6487,0.6398,0.6634,0.6096,0.5684,0.5386,0.5338,0.525,0.5061,0.4586,0.4256,0.3949,0.307,0.2627,0.245,0.183,0.1607,0.1607,0.1474,0.1429,0.134,0.0851,0.0701,0.0638,0.0128,0.0,0.0,0.0,0.0,0.0,0.0,-0.0083,-0.0384,-0.1105,-0.2002,-0.2719,-0.2854,-0.3262,-0.3581,-0.3581,-0.4136,-0.4735,-0.5216,-0.5394,-0.5696,-0.6264,-0.6725,-0.7238,-0.7829,-0.7995,-0.8275,-0.8797,-0.9359,-0.9439,-0.8918,-0.9637,-0.9961,-0.9518,-0.9883,-1.0166,-1.0283,-1.0283,-1.0283,-1.0283,-1.0371,-1.042,-1.042,-1.0791,-1.1242,-1.1771,-1.2039,-1.2735,-0.2781,-0.2747,-0.2013,0.0752,0.3883,0.627,0.6103,0.5681,0.4712,0.2379,0.1211,0.0533,0.0072,0.0,0.0,0.0,0.0645,0.1193,0.1606,0.2886,0.0,0.0,0.0,0.0,0.0,0.0,0.0,0.0,0.0,0.8209,0.8209,0.8593,0.8744,0.8604,0.8457,0.8279,0.799,0.7347,0.7128,0.7248,0.6802,0.6725,0.6979,0.6435,0.5902,0.5435,0.5708,0.5663,0.5385,0.4999,0.4648,0.4303,0.3473,0.3126,0.3028,0.2401,0.2192,0.2171,0.1704,0.1619,0.1642,0.1227,0.0951,0.073,0.0447,0.016,0.0,0.0,0.0,0.0,0.0,0.0,-0.0081,-0.0406,-0.1406,-0.2361,-0.263,-0.317,-0.3581,-0.3581,-0.4052,-0.4522,-0.4826,-0.5351,-0.583,-0.6136,-0.6647,-0.7105,-0.7447,-0.7704,-0.7995,-0.8275,-0.8797,-0.8999,-0.8716,-0.9199,-0.9518,-0.9518,-0.9765,-1.004,-1.0283,-1.0283,-1.0283,-1.0283,-1.0505,-1.0505,-1.0283,-1.0534,-1.0905,-1.1431,-1.192,-1.2703,-0.4125,-0.3811,-0.2395,0.1817,0.5287,0.7643,0.7339,0.6672,0.5761,0.4544,0.2821,0.1273,0.0405,0.02,0.0196,0.0185,0.0837,0.158,0.2439,0.3725,0.0,0.0,0.0,0.0,0.0,0.0,0.0,0.0,0.0,0.8857,0.8962,0.881,0.8669,0.8577,0.8369,0.8024,0.7513,0.7459,0.7268,0.6979,0.6979,0.6979,0.6979,0.6562,0.6087,0.5604,0.613,0.6044,0.5561,0.5394,0.5024,0.4561,0.3957,0.3676,0.3576,0.3004,0.2769,0.2676,0.1885,0.1725,0.1812,0.1545,0.1166,0.0849,0.0734,0.0387,0.0,0.0,0.0,0.0,0.0,0.0,0.0,0.0,-0.0908,-0.1924,-0.242,-0.3002,-0.346,-0.3575,-0.4136,-0.4609,-0.4691,-0.561,-0.6349,-0.6349,-0.6732,-0.6979,-0.6979,-0.7447,-0.7746,-0.7746,-0.8316,-0.8675,-0.8561,-0.8797,-0.9119,-0.9478,-0.9597,-0.9843,-1.0283,-1.0467,-1.0467,-1.0283,-1.0764,-1.0753,-1.0283,-1.0467,-1.0725,-1.1008,-1.1553,-1.2341,-0.4008,-0.2255,0.0,0.1559,0.4583,0.7182,0.7302,0.7019,0.6502,0.5477,0.3696,0.2084,0.1303,0.1015,0.0925,0.0952,0.1588,0.2548,0.3919,0.4831,0.0,0.0,0.0,0.0,0.0,0.0,0.0,0.0,0.8752,0.9061,0.9614,0.8915,0.8705,0.9237,0.8177,0.7594,0.7513,0.7208,0.7061,0.6979,0.6979,0.6979,0.6979,0.6937,0.6852,0.6768,0.6852,0.6852,0.6677,0.569,0.5403,0.5454,0.4629,0.4077,0.379,0.3915,0.3596,0.3017,0.2898,0.2859,0.2793,0.2268,0.1823,0.1394,0.0845,0.0368,0.0,0.0,0.0,0.0,0.0,0.0,0.0,0.0,-0.0844,-0.1692,-0.1882,-0.2408,-0.2995,-0.351,-0.4443,-0.5351,-0.5873,-0.6471,-0.6894,-0.6894,-0.6937,-0.6979,-0.6979,-0.7063,-0.7105,-0.7105,-0.8054,-0.8513,-0.8036,-0.9279,-0.9922,-0.9518,-0.9922,-1.0244,-1.0283,-1.1142,-1.118,-1.0322,-1.0764,-1.0753,-1.0283,-1.118,-1.1394,-1.1008,-1.1553,-1.2341,-0.4698,-0.2621,-0.0068,0.1293,0.4472,0.7469,0.8444,0.8569,0.8183,0.7114,0.5689,0.4058,0.2325,0.1836,0.1719,0.1721,0.2671,0.3666,0.4323,0.6049,0.0,0.0,0.0,0.0,0.0,0.0,0.0,0.0,0.9917,1.0064,1.0364,0.9749,0.9432,0.9565,0.8505,0.7873,0.7745,0.7257,0.6979,0.6979,0.6979,0.6979,0.7014,0.6854,0.678,0.6787,0.6947,0.6927,0.6699,0.5873,0.5605,0.5642,0.4956,0.4445,0.4132,0.41,0.3844,0.3444,0.3003,0.293,0.2951,0.2576,0.2194,0.1739,0.1183,0.0731,0.0347,0.0068,0.0,0.0,0.0,0.0,0.0,0.0,-0.0354,-0.0919,-0.1624,-0.2465,-0.3143,-0.3507,-0.4012,-0.453,-0.5087,-0.5384,-0.5771,-0.6428,-0.6562,-0.6647,-0.6979,-0.6979,-0.6979,-0.6979,-0.744,-0.7773,-0.787,-0.8561,-0.9119,-0.9478,-0.9716,-1.0,-1.0283,-1.0992,-1.1029,-1.0322,-1.1319,-1.1319,-1.0283,-1.1029,-1.1094,-1.0611,-1.1442,-1.2045,-0.5505,-0.3416,-0.0782,0.0826,0.4168,0.7496,0.898,0.947,0.9365,0.8522,0.7355,0.5912,0.4033,0.3027,0.2525,0.2519,0.355,0.4587,0.5128,0.7222,0.0,0.0,0.0,0.0,0.0,0.0,0.0,0.0,1.0813,1.0864,1.1065,1.0441,1.0021,0.9976,0.8961,0.8288,0.8118,0.7523,0.7147,0.6979,0.6979,0.6979,0.7014,0.672,0.6546,0.6493,0.6707,0.672,0.654,0.5879,0.5656,0.5648,0.5254,0.485,0.4416,0.4267,0.3981,0.3565,0.2928,0.2757,0.2832,0.2717,0.238,0.1911,0.144,0.1016,0.0616,0.0135,0.0,0.0,0.0,0.0,0.0,0.0,-0.0102,-0.0492,-0.157,-0.2615,-0.3442,-0.3558,-0.3711,-0.3924,-0.4347,-0.4517,-0.4957,-0.583,-0.6093,-0.6349,-0.6732,-0.6894,-0.6979,-0.6979,-0.7266,-0.7565,-0.787,-0.8275,-0.8797,-0.9439,-0.9637,-0.9883,-1.0283,-1.0764,-1.0802,-1.0322,-1.1616,-1.1653,-1.0283,-1.0753,-1.0764,-1.0322,-1.118,-1.1664,-0.5983,-0.3909,-0.1547,0.0065,0.357,0.6922,0.7994,0.8799,0.9285,0.9274,0.8164,0.723,0.7047,0.4987,0.3352,0.3345,0.3938,0.5124,0.7169,0.814,0.0,0.0,0.0,0.0,0.0,0.0,0.0,0.0,1.0813,1.1065,1.1715,1.0476,1.0038,1.0705,0.941,0.8659,0.8675,0.8111,0.7572,0.6979,0.6979,0.6979,0.7014,0.672,0.6478,0.6216,0.6236,0.6384,0.6527,0.5679,0.5468,0.5707,0.568,0.5222,0.4597,0.4786,0.4199,0.3253,0.2849,0.2719,0.2726,0.2716,0.238,0.1911,0.144,0.1009,0.0611,0.0136,0.0,0.0,0.0,0.0,0.0,0.0,-0.035,-0.0883,-0.1621,-0.2725,-0.3571,-0.3578,-0.4008,-0.4347,-0.4387,-0.4865,-0.5265,-0.5346,-0.583,-0.6227,-0.6227,-0.6689,-0.6979,-0.6979,-0.7972,-0.8439,-0.7953,-0.9279,-1.0,-0.9518,-0.9961,-1.0283,-1.0283,-1.0764,-1.0802,-1.0322,-1.133,-1.133,-1.0283,-1.0753,-1.0764,-1.0322,-1.0802,-1.1319,-0.6653,-0.4683,-0.2347,-0.0372,0.2484,0.5272,0.7164,0.8392,0.903,0.8792,0.8431,0.8072,0.7766,0.6476,0.5433,0.5433,0.6436,0.7435,0.8193,0.0,0.0,0.0,0.0,0.0,0.0,0.0,0.0,0.0,0.0,1.2433,1.3044,1.1719,1.106,1.129,0.9935,0.9039,0.8716,0.8521,0.8152,0.7579,0.7579,0.7363,0.7014,0.672,0.6533,0.6451,0.6039,0.5932,0.5983,0.5699,0.5602,0.5697,0.5689,0.5443,0.5036,0.5027,0.4488,0.3691,0.3233,0.2907,0.2712,0.2712,0.258,0.2347,0.1878,0.1428,0.0998,0.0574,0.0239,0.0,0.0,0.0,0.0,0.0,-0.042,-0.0985,-0.1558,-0.2386,-0.3126,-0.3534,-0.3751,-0.388,-0.388,-0.4351,-0.487,-0.526,-0.583,-0.6307,-0.6683,-0.7238,-0.7579,-0.7579,-0.7946,-0.8118,-0.7912,-0.8054,-0.8415,-0.8958,-0.9159,-0.9707,-1.0715,-1.1244,-1.1442,-1.1255,-1.1627,-1.1292,-1.0283,-1.0753,-1.0764,-1.0322,-1.1142,-1.1627,-0.7588,-0.578,-0.3504,-0.1245,0.1371,0.3952,0.6058,0.7761,0.8873,0.8798,0.8984,0.9143,0.9068,0.8489,0.7841,0.7357,0.8443,0.9467,0.9665,0.0,0.0,0.0,0.0,0.0,0.0,0.0,0.0,0.0,0.0,0.0,1.3779,1.2597,1.1684,1.1185,1.0245,0.9518,0.8958,0.8958,0.8716,0.816,0.816,0.7863,0.7308,0.689,0.6632,0.6451,0.5825,0.5625,0.5705,0.5611,0.5571,0.5578,0.5671,0.5538,0.5254,0.4956,0.4486,0.3928,0.3298,0.294,0.2712,0.2712,0.2712,0.2613,0.2147,0.1778,0.1406,0.0874,0.0471,0.0202,0.0034,0.0101,0.027,0.0412,0.0035,-0.0546,-0.1222,-0.2045,-0.2876,-0.3659,-0.3803,-0.3865,-0.4132,-0.4482,-0.4803,-0.5122,-0.5666,-0.6175,-0.6502,-0.7086,-0.7498,-0.7607,-0.7946,-0.8118,-0.7912,-0.8013,-0.8407,-0.9142,-0.9381,-0.9923,-1.0971,-1.1516,-1.1737,-1.1542,-1.1542,-1.1207,-1.0544,-1.0687,-1.0611,-1.0322,-1.133,-1.1957,0.0,0.0,0.0,-0.2571,0.0287,0.296,0.4697,0.6844,0.8697,0.9362,0.989,1.0462,1.1137,1.1052,1.0426,0.913,0.9926,1.098,1.167,0.0,0.0,0.0,0.0,0.0,0.0,0.0,0.0,0.0,1.4709,1.4468,1.3862,1.2996,1.184,1.04,1.0342,1.0059,0.9518,0.9518,0.9239,0.8716,0.8716,0.8439,0.7889,0.7304,0.6746,0.6213,0.5624,0.549,0.5691,0.543,0.5309,0.5342,0.5591,0.5531,0.5215,0.4643,0.4243,0.3863,0.301,0.2716,0.2712,0.2712,0.2712,0.2613,0.2147,0.2014,0.1811,0.0974,0.0739,0.0605,0.0168,0.037,0.0818,0.1217,0.098,0.0404,-0.0652,-0.1707,-0.2799,-0.3959,-0.4164,-0.4422,-0.5119,-0.5288,-0.5212,-0.4959,-0.5372,-0.5739,-0.5739,-0.6257,-0.6727,-0.7016,-0.8039,-0.8504,-0.7953,-0.9359,-1.0225,-1.0176,-1.0657,-1.0981,-1.1019,-1.1505,-1.1542,-1.1046,-1.1019,-1.1019,-1.1019,-1.0544,-1.0322,-1.0361,-1.1367,-1.2318,-0.9445,0.0,0.0,0.0,0.0,0.0,0.4026,0.5258,0.6235,0.7228,0.8122,0.9234,1.0621,1.1166,1.192,1.3362,1.2847,1.2551,1.3558,0.0,0.0,0.0,0.0,0.0,0.0,0.0,0.0,0.0,1.5197,1.4835,1.5084,1.3729,1.2467,1.1425,1.0965,1.0506,1.0088,1.0079,0.9804,0.9279,0.9279,0.8999,0.8472,0.831,0.8036,0.7613,0.6851,0.6441,0.6245,0.5584,0.5309,0.5322,0.5371,0.5351,0.5227,0.4743,0.4307,0.3923,0.3331,0.294,0.2712,0.2712,0.2712,0.2679,0.2547,0.2281,0.1947,0.1711,0.1408,0.1106,0.0971,0.0805,0.081,0.1195,0.0995,0.0448,-0.0558,-0.1223,-0.1976,-0.3169,-0.3696,-0.3986,-0.4196,-0.4838,-0.5286,-0.522,-0.592,-0.6484,-0.6484,-0.7224,-0.7764,-0.7733,-0.8356,-0.8699,-0.8496,-0.8878,-0.9319,-0.9667,-0.9825,-1.0399,-1.1542,-1.1737,-1.1884,-1.209,-1.1763,-1.159,-1.159,-1.0736,-1.0467,-1.0829,-1.1836,-1.2814,-1.0519,-0.882,-0.6488,-0.4473,0.0,0.0,0.2103,0.3646,0.4975,0.0,0.7312,0.8985,1.0781,1.1874,1.3299,1.5757,1.5562,1.5199,1.556,1.6473,0.0,0.0,0.0,0.0,0.0,1.6995,1.6714,1.6509,1.5832,1.5416,1.5365,1.4192,1.3086,1.2171,1.1781,1.1294,1.0582,1.0572,1.0341,0.9843,0.9843,0.9558,0.903,0.8875,0.86,0.8173,0.7392,0.6849,0.6471,0.5985,0.5617,0.5309,0.5309,0.5309,0.5246,0.4762,0.4441,0.4151,0.3523,0.313,0.2907,0.2746,0.2712,0.2712,0.2712,0.261,0.2474,0.2114,0.1542,0.1072,0.1273,0.1139,0.1074,0.1475,0.1274,0.0703,-0.02,-0.0868,-0.1714,-0.3121,-0.3622,-0.395,-0.4446,-0.4991,-0.5411,-0.5444,-0.6094,-0.6589,-0.6589,-0.7209,-0.7658,-0.7647,-0.816,-0.8434,-0.8366,-0.8756,-0.9231,-0.9776,-1.0011,-1.0629,-1.1737,-1.1993,-1.221,-1.2496,-1.2246,-1.1993,-1.1811,-1.0992,-1.0943,-1.1641,-1.2246,-1.2883,-1.1665,-0.9834,-0.7641,-0.6701,-0.3887,0.0,-0.0111,0.2215,0.4365,0.0,0.6945,0.8958,1.0963,1.2416,1.4078,1.6571,1.7716,1.8106,1.7598,1.8034,0.0,0.0,0.0,0.0,1.7612,1.7504,1.7216,1.6637,1.6522,1.6126,1.5199,1.458,1.3814,1.2783,1.2653,1.2135,1.1176,1.0995,1.0784,1.0469,1.0342,1.004,0.9588,0.9261,0.8871,0.8375,0.7577,0.7049,0.6692,0.6559,0.6037,0.5316,0.534,0.534,0.5246,0.4762,0.4602,0.4468,0.3616,0.329,0.3229,0.2874,0.2746,0.2712,0.2746,0.297,0.3064,0.2245,0.141,0.084,0.1206,0.1273,0.134,0.1811,0.1575,0.1003,0.0166,-0.07,-0.1762,-0.329,-0.3677,-0.4085,-0.5164,-0.5352,-0.5456,-0.563,-0.5989,-0.6249,-0.6249,-0.6704,-0.7049,-0.7228,-0.7793,-0.8163,-0.8088,-0.8999,-0.9785,-1.0186,-1.0667,-1.1169,-1.17,-1.2102,-1.2354,-1.2437,-1.2532,-1.2342,-1.1884,-1.1394,-1.1641,-1.2567,-1.2567,-1.2896,-1.1765,-1.0562,-0.8833,-0.6961,-0.4656,0.0,0.0332,0.1778,0.3005,0.4391,0.5425,0.6742,0.8803,1.0332,1.2406,1.5825,1.7482,1.86,1.9491,2.0122,2.0496,0.0,0.0,0.0,1.9266,1.8769,1.8129,1.7229,1.6752,1.6429,1.623,1.5632,1.4856,1.3851,1.2975,1.2434,1.2214,1.1053,1.0792,1.1485,1.0675,1.0244,1.0157,1.0079,0.9993,0.9829,0.8665,0.8111,0.7955,0.6918,0.6037,0.534,0.5641,0.5585,0.5246,0.4762,0.4602,0.4468,0.3616,0.329,0.329,0.3196,0.297,0.2746,0.3101,0.3003,0.2709,0.2147,0.1609,0.1206,0.1271,0.1072,0.0906,0.134,0.1106,0.067,0.0133,-0.0701,-0.151,-0.2206,-0.2911,-0.359,-0.4177,-0.4549,-0.4901,-0.5306,-0.5734,-0.5979,-0.5979,-0.6923,-0.7592,-0.7544,-0.8584,-0.9272,-0.9204,-0.9755,-1.0196,-1.0264,-1.039,-1.0649,-1.1132,-1.1234,-1.1505,-1.192,-1.2613,-1.2787,-1.2354,-1.2246,-1.2461,-1.2982,-1.3057,-1.3669,-1.2344,-1.0814,-0.893,-0.7868,-0.5143,0.0,0.0,0.0612,0.1898,0.2621,0.3663,0.4938,0.6597,0.7987,0.993,1.3026,1.5296,1.7255,1.8783,2.043,2.1374,0.0,0.0,0.0,2.0016,1.9607,1.8817,1.7422,1.7034,1.6795,1.6522,1.6194,1.5678,1.4905,1.4075,1.3404,1.2857,1.1631,1.1135,1.1338,1.0636,1.0283,1.0283,1.0283,1.0166,0.9884,0.9066,0.8471,0.803,0.739,0.6496,0.5617,0.5828,0.5641,0.5277,0.5023,0.4953,0.4858,0.4172,0.3946,0.3914,0.3723,0.3364,0.3035,0.3229,0.2871,0.2347,0.2341,0.1707,0.0938,0.0702,0.0502,0.0335,0.0301,0.0134,-0.0134,-0.0566,-0.117,-0.1776,-0.2247,-0.2867,-0.3458,-0.3923,-0.4344,-0.4762,-0.5214,-0.582,-0.6183,-0.6183,-0.7302,-0.8038,-0.7913,-0.8431,-0.8779,-0.8723,-0.9199,-0.9518,-0.9518,-1.0,-1.0505,-1.0981,-1.1244,-1.1861,-1.2824,-1.347,-1.3716,-1.3509,-1.3509,-1.3496,-1.3517,-1.3522,-1.4,-1.2715,-1.0814,-0.8826,-0.8567,-0.5416,-0.2339,0.0,0.0,0.0,0.1284,0.2279,0.3411,0.4414,0.0,0.0,0.0,0.0,0.0,0.0,1.9185,0.0,0.0,0.0,0.0,0.0,2.0332,1.9396,1.7612,1.745,1.7216,1.668,1.6552,1.6266,1.5691,1.5025,1.4305,1.351,1.2191,1.143,1.1192,1.0597,1.0283,1.0283,1.0283,1.0049,0.9573,0.9075,0.846,0.7757,0.756,0.6859,0.5913,0.5975,0.5734,0.5277,0.5214,0.5214,0.5214,0.4666,0.4538,0.4538,0.4123,0.3626,0.3159,0.3064,0.2504,0.1945,0.2236,0.147,0.0469,0.0,-0.02,-0.0334,-0.0735,-0.0801,-0.0901,-0.1232,-0.1736,-0.2245,-0.261,-0.3163,-0.3653,-0.3956,-0.4344,-0.4762,-0.5214,-0.5851,-0.6305,-0.6366,-0.749,-0.8253,-0.8235,-0.8353,-0.8392,-0.8211,-0.8602,-0.8837,-0.8837,-0.9686,-1.038,-1.0981,-1.1678,-1.2637,-1.3842,-1.436,-1.4596,-1.4501,-1.4596,-1.4438,-1.4117,-1.4052,-1.4278,-1.208,-1.0772,0.0,0.0,-0.5429,0.0,-0.1497,0.0,0.1284,0.1952,0.0,0.2388,0.2522,0.0,0.0,0.0,0.0,0.0,1.2412,1.5645,1.8982,2.2136,0.0,0.0,0.0,2.1286,1.9882,1.8157,1.7972,1.7719,1.7229,1.6752,1.6213,1.5636,1.4688,1.4292,1.453,1.2182,1.1427,1.231,1.0935,1.0283,1.0283,1.0283,1.0049,0.9573,0.8795,0.8182,0.7643,0.6923,0.6336,0.5944,0.6305,0.5975,0.5246,0.4826,0.4953,0.5182,0.4344,0.4312,0.4538,0.4123,0.3425,0.2699,0.2275,0.1776,0.1306,0.1007,0.0502,-0.0033,-0.0504,-0.0871,-0.1171,-0.1204,-0.1238,-0.1238,-0.1305,-0.2001,-0.2633,-0.2699,-0.3649,-0.4339,-0.4058,-0.4344,-0.4762,-0.5214,-0.5372,-0.5554,-0.5913,-0.7065,-0.8009,-0.8332,-0.9384,-0.9826,-0.9359,-0.9359,-0.9399,-0.9399,-0.9518,-1.0021,-1.0971,-1.2271,-1.323,-1.3808,-1.4617,-1.4845,-1.4501,-1.4845,-1.5013,-1.4968,-1.4596,-1.4876,0.0,0.0,0.0,0.0,0.0,0.0,-0.1336,0.0,0.056,0.0,0.0,0.0,0.0,0.0,0.0,0.0,0.3799,0.0,0.0,0.0,1.5681,0.0,0.0,0.0,0.0,0.0,0.0,0.0,1.8655,1.8115,1.734,1.6795,1.6238,1.5632,1.4855,1.436,1.419,1.2274,1.1548,1.1966,1.0845,1.0283,1.0283,1.0283,0.9887,0.9115,0.861,0.7961,0.7195,0.6698,0.6275,0.5882,0.5774,0.5401,0.4858,0.4409,0.4377,0.4505,0.4123,0.4248,0.45,0.3806,0.3188,0.2567,0.1807,0.1308,0.0906,0.0739,0.0369,-0.0167,-0.0871,-0.1173,-0.1438,-0.1973,-0.2109,-0.2109,-0.2109,-0.2408,-0.2772,-0.2995,-0.3686,-0.4339,-0.4648,-0.4884,-0.5081,-0.5277,-0.5491,-0.5797,-0.6183,-0.7373,-0.8401,-0.9076,-0.981,-1.0167,-0.9923,-0.9923,-0.9923,-0.9923,-1.0692,-1.1502,-1.2188,-1.3474,-1.4384,-1.484,-1.5664,-1.5991,-1.5836,-1.5809,-1.5909,-1.6062,-1.5211,-1.5195,-1.109,0.0,0.0,0.0,0.0,0.0,0.0,0.0,0.0,0.0,0.0,0.0,0.0,0.0,-0.2395,-0.2109,0.0,0.2578,0.0,0.8105,0.0,0.0,0.0,0.0,0.0,0.0,0.0,1.9889,1.9178,1.8426,1.7585,1.6727,1.6051,1.5632,1.4869,1.4236,1.3815,1.2343,1.1606,1.1596,1.0734,1.0283,1.0283,1.0283,0.9706,0.8666,0.8353,0.7628,0.6594,0.6285,0.6006,0.5672,0.5086,0.4686,0.4377,0.3951,0.3821,0.3788,0.3691,0.3849,0.3973,0.3343,0.2754,0.2167,0.1371,0.0839,0.0504,0.0504,0.0269,-0.0168,-0.0938,-0.1204,-0.1503,-0.2311,-0.2679,-0.2874,-0.2874,-0.3039,-0.3298,-0.3588,-0.414,-0.4718,-0.5307,-0.5421,-0.5491,-0.5609,-0.5882,-0.6307,-0.6972,-0.7822,-0.8784,-0.9789,-1.0199,-1.0407,-1.0377,-1.052,-1.0613,-1.0754,-1.2011,-1.3035,-1.3566,-1.4541,-1.5358,-1.5902,-1.6507,-1.6789,-1.6789,-1.6554,-1.6554,-1.6789,-1.6076,-1.586,0.0,0.0,0.0,-0.5019,0.0,0.0,0.0,0.0,0.0,0.0,0.0,0.0,0.0,-0.2843,-0.3566,-0.4291,-0.2439,0.0,0.0,0.0,0.0,0.0,0.0,0.0,0.0,0.0,0.0,2.0333,1.936,1.8579,1.8092,1.6519,1.5632,1.5588,1.4457,1.3815,1.3815,1.2343,1.1606,1.1596,1.0734,1.0283,1.0283,1.0283,0.9591,0.8394,0.7991,0.7114,0.5897,0.5498,0.534,0.5246,0.4377,0.4026,0.3956,0.349,0.3318,0.3273,0.2893,0.2761,0.2761,0.2728,0.2101,0.1273,0.084,0.0403,0.0034,0.0034,0.0,-0.01,-0.0604,-0.1003,-0.1433,-0.1909,-0.2673,-0.3294,-0.3294,-0.3946,-0.4532,-0.4564,-0.5257,-0.5851,-0.5882,-0.5882,-0.6006,-0.6397,-0.6488,-0.6963,-0.8265,-0.8418,-0.8898,-1.0239,-1.0735,-1.0939,-1.0808,-1.1256,-1.1729,-1.2106,-1.3141,-1.4078,-1.4815,-1.5315,-1.5958,-1.6763,-1.6789,-1.6789,-1.6789,-1.6789,-1.6789,-1.6805,-1.716,-1.7129,0.0,0.0,-0.6396,-0.4197,0.0,0.0,0.0,0.0,0.0,0.0,0.0,0.0,0.0,-0.2739,-0.3455,-0.416,-0.2853,-0.1407,0.0,0.0,0.0,0.0,1.2615,1.5944,0.0,0.0,0.0,1.9743,1.8781,1.8152,0.0,1.6506,1.541,1.5017,1.4236,1.36,1.319,1.2128,1.1606,1.1596,1.0734,1.0283,1.0273,0.998,0.9393,0.8621,0.774,0.6908,0.6123,0.5543,0.5309,0.5246,0.4634,0.4248,0.3928,0.3171,0.2706,0.2435,0.2293,0.2029,0.1835,0.2126,0.1797,0.1271,0.1139,0.0804,0.0471,0.0471,0.047,0.0268,-0.0504,-0.0569,-0.07,-0.1742,-0.2211,-0.254,-0.2841,-0.3138,-0.3528,-0.4086,-0.4436,-0.4998,-0.6121,-0.6493,-0.6687,-0.6806,-0.7177,-0.7766,-0.8725,-0.9616,-1.0587,-1.1661,-1.2433,-1.2817,-1.278,-1.2964,-1.312,-1.3254,-1.453,-1.5285,-1.5344,-1.6402,-1.7028,-1.7126,-1.7361,-1.7455,-1.7455,-1.7224,-1.7248,-1.7472,-1.786,-1.7603,-0.7882,-0.6886,0.0,-0.349,-0.2558,0.0,-0.0331,0.0,0.0,0.0,0.0,0.0,0.0,0.0,-0.3345,-0.4089,-0.2987,-0.1577,0.0,0.1358,0.0,0.4111,0.8565,1.2444,0.0,1.5655,1.6942,1.8819,1.8129,1.7688,0.0,0.0,1.5096,1.4698,1.392,1.3286,1.2881,1.2047,1.1606,1.1596,1.0522,1.0,0.9991,0.9366,0.8765,0.8112,0.7416,0.6754,0.6116,0.5695,0.5522,0.546,0.4852,0.4344,0.3928,0.3171,0.2408,0.1742,0.1601,0.1335,0.1173,0.1599,0.1534,0.1305,0.1305,0.1007,0.0706,0.0706,0.0706,0.0538,-0.0235,-0.0234,-0.0301,-0.1473,-0.2009,-0.2374,-0.2805,-0.3039,-0.3335,-0.3896,-0.4113,-0.4642,-0.6006,-0.6678,-0.7104,-0.7424,-0.8208,-0.9062,-0.9863,-1.0908,-1.1911,-1.2846,-1.3557,-1.4142,-1.4612,-1.467,-1.4779,-1.5007,-1.5914,-1.6463,-1.6505,-1.7283,-1.7805,-1.8017,-1.7867,-1.7929,-1.82,-1.7805,-1.7738,-1.7944,-1.8297,-1.8091]}]]